LiveATC.Net - Listen to live air traffic control over the Internet!
Airport/ARTCC Code
Frequency Search
(e.g., 124.400, 128.75)
Site-wide search
 


Browse Feeds
Top 50 Feeds
HF Oceanic Feeds
Coverage Map
Bad Weather Areas

LiveATC FAQ
Offer LiveATC feed
Contact LiveATC.net
Press Inquiries

LiveATC on iPhone
LiveATC on Android

LiveATC Mobile
(Mobile browser)

ATC Audio Archives
Interesting Recordings

LiveATC Forums

Home Page
About LiveATC.net


Terms of Use
Privacy Policy

AIRMETs/SIGMETs

FAA Airport Status
NAS Status
Arrival Demand


Server Software By:
Icecast.org
Liquidsoap

Select an area of interest:
U.S. Feeds: Class B Airports | Class C Airports | Class D/Other Airports | ARTCC (Centers)
International Feeds: Canada | Europe | Oceania | Asia | South America | North/Central America | Africa
Misc Feeds: HF Feeds
Search by ICAO/IATA airport code:   (e.g., kbos, kjfk, lax, eham, etc.)


Currently Available Live Feeds: 3003
Status Updated: Thu Feb 02 2023 00:53:22 UTC


NOTICE

Unauthorized use prohibited. See LiveATC.net Terms of Service

U.S. Class D Airport and ARTCCC Feeds

 

KUES Del/Gnd/Twr/02C (Archives)
Brookfield, Wisconsin, United States

Feed Status: UP
Listen in your browser - HTML5 player(in browser, HTML5)
Click here to listen with your own player(launches your MP3 player)

KUES 012345Z 22005KT 10SM BKN110 M07/M13 A3018

KUES Airport Info (Airnav.com)

KUES Flight Activity (Flightaware)

Listeners: 0 out of 1550 total

Capitol CTAF: 122.700
Waukesha Clearance Delivery: 128.700
Waukesha Ground: 121.600
Waukesha Tower: 123.700

0V4 CTAF (Archives)
Brookneal, Virginia, United States

Feed Status: UP
Listen in your browser - HTML5 player(in browser, HTML5)
Click here to listen with your own player(launches your MP3 player)

K0V4 Airport Info (Airnav.com)

K0V4 Flight Activity (Flightaware)

Listeners: 0 out of 1550 total

Brookneal CTAF: 122.700

16J CTAF (Archives)
Dawson, Georgia, United States

Feed Status: UP
Listen in your browser - HTML5 player(in browser, HTML5)
Click here to listen with your own player(launches your MP3 player)

K16J Airport Info (Airnav.com)

K16J Flight Activity (Flightaware)

Listeners: 0 out of 1550 total

Dawson CTAF: 122.800

SNJ Area CTAF 122.8 (Archives)
Cross Keys, New Jersey, United States

Feed Status: UP
Listen in your browser - HTML5 player(in browser, HTML5)
Click here to listen with your own player(launches your MP3 player)

KPNE 012354Z 28006KT 10SM CLR 00/M12 A3030 RMK AO2 SLP261 T00001117 10033 20000 53012

KPNE Airport Info (Airnav.com)

KPNE Flight Activity (Flightaware)

Listeners: 0 out of 1550 total

CTAF: 122.800

MA/NH/RI/CT Area CTAF (Archives)
Hopedale, Massachusetts, United States

Feed Status: UP
Listen in your browser - HTML5 player(in browser, HTML5)
Click here to listen with your own player(launches your MP3 player)

KBOS 012354Z 30006KT 10SM CLR M01/M16 A3024 RMK AO2 SLP240 T10111156 11011 21028 51014

KBOS Airport Info (Airnav.com)

KBOS Flight Activity (Flightaware)

Listeners: 0 out of 1550 total

Air-to-Air: 122.750
Bridgeport Flight Service: 122.200
CTAF: 122.700
CTAF: 122.800
CTAF: 122.900
CTAF: 123.000
Emergency/Guard: 121.500

MA/NH/RI/CT Area CTAF (Archives)
Hopedale, Massachusetts, United States

Feed Status: UP
Listen in your browser - HTML5 player(in browser, HTML5)
Click here to listen with your own player(launches your MP3 player)

KBOS 012354Z 30006KT 10SM CLR M01/M16 A3024 RMK AO2 SLP240 T10111156 11011 21028 51014

KBOS Airport Info (Airnav.com)

KBOS Flight Activity (Flightaware)

Listeners: 0 out of 1550 total

Air-to-Air: 122.750
Bridgeport Flight Service: 122.200
CTAF: 122.700
CTAF: 122.800
CTAF: 122.900
CTAF: 123.000
Emergency/Guard: 121.500

MA/NH/RI/CT Area CTAF (Archives)
Hopedale, Massachusetts, United States

Feed Status: UP
Listen in your browser - HTML5 player(in browser, HTML5)
Click here to listen with your own player(launches your MP3 player)

KBOS 012354Z 30006KT 10SM CLR M01/M16 A3024 RMK AO2 SLP240 T10111156 11011 21028 51014

KBOS Airport Info (Airnav.com)

KBOS Flight Activity (Flightaware)

Listeners: 0 out of 1550 total

Air-to-Air: 122.750
Bridgeport Flight Service: 122.200
CTAF: 122.700
CTAF: 122.800
CTAF: 122.900
CTAF: 123.000
Emergency/Guard: 121.500

1B9 Area Guard (Archives)
Mansfield, Massachusetts, United States

Feed Status: UP
Listen in your browser - HTML5 player(in browser, HTML5)
Click here to listen with your own player(launches your MP3 player)


Listeners: 0 out of 1550 total

Emergency/Guard: 121.500

1B9 CTAF #1 (Archives)
Mansfield, Massachusetts, United States

Feed Status: UP
Listen in your browser - HTML5 player(in browser, HTML5)
Click here to listen with your own player(launches your MP3 player)


Listeners: 0 out of 1550 total

Mansfield CTAF/UNICOM: 123.000

1B9 CTAF #2 (Archives)
Mansfield, Massachusetts, United States

Feed Status: UP
Listen in your browser - HTML5 player(in browser, HTML5)
Click here to listen with your own player(launches your MP3 player)


Listeners: 0 out of 1550 total

Mansfield CTAF/UNICOM: 123.000

1B9 CTAF/RCO (Archives)
Mansfield, Massachusetts, United States

Feed Status: UP
Listen in your browser - HTML5 player(in browser, HTML5)
Click here to listen with your own player(launches your MP3 player)


Listeners: 0 out of 1550 total

Bridgeport FSS (RCO): 122.500
Mansfield CTAF/UNICOM: 123.000

1B9 Del/RCO #1 (Archives)
Mansfield, Massachusetts, United States

Feed Status: UP
Listen in your browser - HTML5 player(in browser, HTML5)
Click here to listen with your own player(launches your MP3 player)


Listeners: 0 out of 1550 total

Mansfield Clearance Delivery (RCO): 122.500

1B9 Del/RCO #2 (Archives)
Mansfield, Massachusetts, United States

Feed Status: UP
Listen in your browser - HTML5 player(in browser, HTML5)
Click here to listen with your own player(launches your MP3 player)


Listeners: 0 out of 1550 total

Mansfield Clearance Delivery (RCO): 122.500

1C9 CTAF (Archives)
Hollister, California, United States

Feed Status: UP
Listen in your browser - HTML5 player(in browser, HTML5)
Click here to listen with your own player(launches your MP3 player)

K1C9 Airport Info (Airnav.com)

K1C9 Flight Activity (Flightaware)

Listeners: 0 out of 1550 total

Frazier CTAF: 123.050

KGBR/20N CTAF
Kingston, New York, United States

Feed Status: DOWN
Offline since: 2020-11-21 13:08:39 UTC

KGBR Airport Info (Airnav.com)

Great Barrington CTAF: 122.800

26MA CTAF (Archives)
Pepperell, Massachusetts, United States

Feed Status: UP
Listen in your browser - HTML5 player(in browser, HTML5)
Click here to listen with your own player(launches your MP3 player)

KMHT 012353Z 29007KT 10SM CLR M03/M15 A3021 RMK AO2 SLP252 4/002 T10281150 11011 21033 53016

KMHT Airport Info (Airnav.com)

KMHT Flight Activity (Flightaware)

Listeners: 0 out of 1550 total

CTAF: 123.050

2B1 CTAF
Marstons Mills, Massachusetts, United States

Feed Status: DOWN
Offline since: 2021-11-19 19:34:05 UTC

KHYA 012356Z 00000KT 10SM CLR M06/M09 A3022 RMK AO2 SLP235 T10561089 10000 21056 51017

KHYA Airport Info (Airnav.com)

Marstons Mills CTAF: 122.900

MA/NH/RI/CT Area CTAF (Archives)
Newburyport, Massachusetts, United States

Feed Status: UP
Listen in your browser - HTML5 player(in browser, HTML5)
Click here to listen with your own player(launches your MP3 player)

KBOS 012354Z 30006KT 10SM CLR M01/M16 A3024 RMK AO2 SLP240 T10111156 11011 21028 51014

KBOS Airport Info (Airnav.com)

KBOS Flight Activity (Flightaware)

Listeners: 0 out of 1550 total

Air-to-Air: 122.750
Bridgeport Flight Service: 122.200
CTAF: 122.700
CTAF: 122.800
CTAF: 122.900
CTAF: 123.000
Emergency/Guard: 121.500

MA/NH/RI/CT Area CTAF (Archives)
Newburyport, Massachusetts, United States

Feed Status: UP
Listen in your browser - HTML5 player(in browser, HTML5)
Click here to listen with your own player(launches your MP3 player)

KBOS 012354Z 30006KT 10SM CLR M01/M16 A3024 RMK AO2 SLP240 T10111156 11011 21028 51014

KBOS Airport Info (Airnav.com)

KBOS Flight Activity (Flightaware)

Listeners: 0 out of 1550 total

Air-to-Air: 122.750
Bridgeport Flight Service: 122.200
CTAF: 122.700
CTAF: 122.800
CTAF: 122.900
CTAF: 123.000
Emergency/Guard: 121.500

MA/NH/RI/CT Area CTAF (Archives)
Newburyport, Massachusetts, United States

Feed Status: UP
Listen in your browser - HTML5 player(in browser, HTML5)
Click here to listen with your own player(launches your MP3 player)

KBOS 012354Z 30006KT 10SM CLR M01/M16 A3024 RMK AO2 SLP240 T10111156 11011 21028 51014

KBOS Airport Info (Airnav.com)

KBOS Flight Activity (Flightaware)

Listeners: 0 out of 1550 total

Air-to-Air: 122.750
Bridgeport Flight Service: 122.200
CTAF: 122.700
CTAF: 122.800
CTAF: 122.900
CTAF: 123.000
Emergency/Guard: 121.500

2GC CTAF (Archives)
Fayetteville, North Carolina, United States

Feed Status: UP
Listen in your browser - HTML5 player(in browser, HTML5)
Click here to listen with your own player(launches your MP3 player)

KFAY 012353Z 04006KT 10SM OVC010 07/04 A3027 RMK AO2 SLP246 T00670044 10083 20067 53015

KFAY Airport Info (Airnav.com)

KFAY Flight Activity (Flightaware)

Listeners: 0 out of 1550 total

Grays Creek CTAF: 122.900

2NC0 CTAF (Archives)
Burnsville, North Carolina, United States

Feed Status: UP
Listen in your browser - HTML5 player(in browser, HTML5)
Click here to listen with your own player(launches your MP3 player)


Listeners: 0 out of 1550 total

Mountain Air CTAF: 122.725

2O3 CTAF (Archives)
Angwin, California, United States

Feed Status: UP
Listen in your browser - HTML5 player(in browser, HTML5)
Click here to listen with your own player(launches your MP3 player)


Listeners: 0 out of 1550 total

Angwin CTAF: 123.000

39N CTAF (Archives)
Princeton/Rocky Hill, New Jersey, United States

Feed Status: UP
Listen in your browser - HTML5 player(in browser, HTML5)
Click here to listen with your own player(launches your MP3 player)


Listeners: 0 out of 1550 total

Princeton CTAF: 122.725

3CK/KBUU CTAF
Chicago/Lake In The Hills, Illinois, United States

Feed Status: DOWN
Offline since: 2022-08-25 16:52:15 UTC

K3CK Airport Info (Airnav.com)

Lake in the Hills CTAF: 123.050

3M5 CTAF (Archives)
Huntsville, Alabama, United States

Feed Status: UP
Listen in your browser - HTML5 player(in browser, HTML5)
Click here to listen with your own player(launches your MP3 player)


Listeners: 0 out of 1550 total

Moontown CTAF: 122.700

3N6 CTAF
Old Bridge, New Jersey, United States

Feed Status: DOWN
Offline since: 2023-02-01 23:13:38 UTC

Old Bridge CTAF: 123.075

KBLM/N12/3N6/KMJX (Archives)
Old Bridge, New Jersey, United States

Feed Status: UP
Listen in your browser - HTML5 player(in browser, HTML5)
Click here to listen with your own player(launches your MP3 player)

KBLM 012356Z AUTO 26006KT 10SM CLR A3028 RMK AO2 SLPNO 6//// 53014 FZRANO $

KBLM Airport Info (Airnav.com)

KBLM Flight Activity (Flightaware)

Listeners: 0 out of 1550 total

3N6 Old Bridge CTAF: 123.075
Emergency/Guard: 121.500
Monmouth Clearance: 120.950
Monmouth Clearance: 126.150
Monmouth CTAF: 123.000
N12 Lakewood CTAF: 122.800
Ocean County KMJX CTAF: 122.700

3R9 CTAF
Lakeway, Texas, United States

Feed Status: DOWN
Offline since: 2022-09-10 17:51:39 UTC

Lakeway CTAF: 123.000

3S8 CTAF
Grants Pass, Oregon, United States

Feed Status: DOWN
Offline since: 2023-01-26 16:00:04 UTC

Grants Pass CTAF: 122.800

44N/KMGJ CTAF
Millbrook, New York, United States

Feed Status: DOWN
Offline since: 2022-10-05 07:00:39 UTC

44N Sky Acres CTAF: 122.800
CTAF 122.700: 122.700
CTAF 122.9: 122.900
KMGJ Orange County Clearance: 123.850
KMGJ Orange County CTAF: 122.725

46U AWOS (Archives)
Alpine, Wyoming, United States

Feed Status: UP
Listen in your browser - HTML5 player(in browser, HTML5)
Click here to listen with your own player(launches your MP3 player)


Listeners: 0 out of 1550 total

Alpine AWOS: 119.925

46U CTAF (Archives)
Alpine, Wyoming, United States

Feed Status: UP
Listen in your browser - HTML5 player(in browser, HTML5)
Click here to listen with your own player(launches your MP3 player)


Listeners: 1 out of 1550 total

Alpine CTAF: 122.900

47N CTAF (Archives)
Manville, New Jersey, United States

Feed Status: UP
Listen in your browser - HTML5 player(in browser, HTML5)
Click here to listen with your own player(launches your MP3 player)


Listeners: 0 out of 1550 total

Central Jersey CTAF: 122.700

NY1/4B0 CTAF
South Bethlehem, New York, United States

Feed Status: DOWN
Offline since: 2020-11-21 13:08:40 UTC

Kline Kill CTAF: 122.900

4NY8 CTAF (Archives)
Elmira, New York, United States

Feed Status: UP
Listen in your browser - HTML5 player(in browser, HTML5)
Click here to listen with your own player(launches your MP3 player)

KELM 012353Z AUTO 29003KT 10SM CLR M06/M13 A3025 RMK AO2 SLP260 T10561133 11022 21056 53009

KELM Airport Info (Airnav.com)

KELM Flight Activity (Flightaware)

Listeners: 0 out of 1550 total

Harris Gliderport CTAF: 123.300

4S1 CTAF (Archives)
Gold Beach, Oregon, United States

Feed Status: UP
Listen in your browser - HTML5 player(in browser, HTML5)
Click here to listen with your own player(launches your MP3 player)

K4S1 Airport Info (Airnav.com)

K4S1 Flight Activity (Flightaware)

Listeners: 0 out of 1550 total

Gold Beach CTAF: 122.800

54AZ CTAF (Archives)
Somerton, Arizona, United States

Feed Status: UP
Listen in your browser - HTML5 player(in browser, HTML5)
Click here to listen with your own player(launches your MP3 player)


Listeners: 0 out of 1550 total

Somerton CTAF: 123.000

KMTC Area CTAF
Ray, Michigan, United States

Feed Status: DOWN
Offline since: 2023-01-18 23:25:05 UTC

KMTC 012356Z 21011KT 10SM FEW120 FEW200 M06/M14 A3024 RMK AO2A SLP257 4/002 T10581136 11037 21058 53002 $

KMTC Airport Info (Airnav.com)

Air to Air: 123.450
Marine City CTAF (76G): 123.000
Port Huron CTAF: 123.050
Ray CTAF: 122.700
Romeo CTAF: 122.800
St Clair CTAF: 122.800
Troy CTAF: 123.050

5A2/5GE1 CTAF (Archives)
Warner Robins, Georgia, United States

Feed Status: UP
Listen in your browser - HTML5 player(in browser, HTML5)
Click here to listen with your own player(launches your MP3 player)


Listeners: 0 out of 1550 total

Warner Robins/Peachtree Landings CTAF: 122.900

5B6/KCQX/KPVC CTAF
Falmouth, Massachusetts, United States

Feed Status: DOWN
Offline since: 2021-11-19 19:34:05 UTC

KHYA 012356Z 00000KT 10SM CLR M06/M09 A3022 RMK AO2 SLP235 T10561089 10000 21056 51017

KHYA Airport Info (Airnav.com)

Falmouth/Chatham/Provincetown CTAF: 122.800

5C1 CTAF
San Antonio, Texas, United States

Feed Status: DOWN
Offline since: 2023-02-02 00:46:39 UTC

K5C1 020015Z AUTO 00000KT 2SM OVC006 00/00 A3022 RMK AO1

K5C1 Airport Info (Airnav.com)

Boerne Stage CTAF: 123.000

5A2/5GE1 CTAF (Archives)
Fort Valley, Georgia, United States

Feed Status: UP
Listen in your browser - HTML5 player(in browser, HTML5)
Click here to listen with your own player(launches your MP3 player)


Listeners: 0 out of 1550 total

Warner Robins/Peachtree Landings CTAF: 122.900

KMTC Area CTAF
St Clair, Michigan, United States

Feed Status: DOWN
Offline since: 2023-01-18 23:25:05 UTC

KMTC 012356Z 21011KT 10SM FEW120 FEW200 M06/M14 A3024 RMK AO2A SLP257 4/002 T10581136 11037 21058 53002 $

KMTC Airport Info (Airnav.com)

Air to Air: 123.450
Marine City CTAF (76G): 123.000
Port Huron CTAF: 123.050
Ray CTAF: 122.700
Romeo CTAF: 122.800
St Clair CTAF: 122.800
Troy CTAF: 123.050

MA/NH CTAF 122.8 (Archives)
Stow, Massachusetts, United States

Feed Status: UP
Listen in your browser - HTML5 player(in browser, HTML5)
Click here to listen with your own player(launches your MP3 player)

KMHT 012353Z 29007KT 10SM CLR M03/M15 A3021 RMK AO2 SLP252 4/002 T10281150 11011 21033 53016

KMHT Airport Info (Airnav.com)

KMHT Flight Activity (Flightaware)

Listeners: 0 out of 1550 total

MA/NH Area CTAF: 122.800

MA/NH/RI/CT Area CTAF (Archives)
Stow, Massachusetts, United States

Feed Status: UP
Listen in your browser - HTML5 player(in browser, HTML5)
Click here to listen with your own player(launches your MP3 player)

KBOS 012354Z 30006KT 10SM CLR M01/M16 A3024 RMK AO2 SLP240 T10111156 11011 21028 51014

KBOS Airport Info (Airnav.com)

KBOS Flight Activity (Flightaware)

Listeners: 0 out of 1550 total

Air-to-Air: 122.750
Bridgeport Flight Service: 122.200
CTAF: 122.700
CTAF: 122.800
CTAF: 122.900
CTAF: 123.000
Emergency/Guard: 121.500

MA/NH/RI/CT Area CTAF (Archives)
Stow, Massachusetts, United States

Feed Status: UP
Listen in your browser - HTML5 player(in browser, HTML5)
Click here to listen with your own player(launches your MP3 player)

KBOS 012354Z 30006KT 10SM CLR M01/M16 A3024 RMK AO2 SLP240 T10111156 11011 21028 51014

KBOS Airport Info (Airnav.com)

KBOS Flight Activity (Flightaware)

Listeners: 0 out of 1550 total

Air-to-Air: 122.750
Bridgeport Flight Service: 122.200
CTAF: 122.700
CTAF: 122.800
CTAF: 122.900
CTAF: 123.000
Emergency/Guard: 121.500

MA/NH/RI/CT Area CTAF (Archives)
Stow, Massachusetts, United States

Feed Status: UP
Listen in your browser - HTML5 player(in browser, HTML5)
Click here to listen with your own player(launches your MP3 player)

KBOS 012354Z 30006KT 10SM CLR M01/M16 A3024 RMK AO2 SLP240 T10111156 11011 21028 51014

KBOS Airport Info (Airnav.com)

KBOS Flight Activity (Flightaware)

Listeners: 0 out of 1550 total

Air-to-Air: 122.750
Bridgeport Flight Service: 122.200
CTAF: 122.700
CTAF: 122.800
CTAF: 122.900
CTAF: 123.000
Emergency/Guard: 121.500

KMTC Area CTAF
Marine City, Michigan, United States

Feed Status: DOWN
Offline since: 2023-01-18 23:25:05 UTC

KMTC 012356Z 21011KT 10SM FEW120 FEW200 M06/M14 A3024 RMK AO2A SLP257 4/002 T10581136 11037 21058 53002 $

KMTC Airport Info (Airnav.com)

Air to Air: 123.450
Marine City CTAF (76G): 123.000
Port Huron CTAF: 123.050
Ray CTAF: 122.700
Romeo CTAF: 122.800
St Clair CTAF: 122.800
Troy CTAF: 123.050

77S CTAF (Archives)
Creswell, Oregon, United States

Feed Status: UP
Listen in your browser - HTML5 player(in browser, HTML5)
Click here to listen with your own player(launches your MP3 player)


Listeners: 0 out of 1550 total

Creswell CTAF: 122.700

7B2 CTAF (Archives)
Northampton, Massachusetts, United States

Feed Status: UP
Listen in your browser - HTML5 player(in browser, HTML5)
Click here to listen with your own player(launches your MP3 player)


Listeners: 0 out of 1550 total

Northampton CTAF: 122.700

MA/NH CTAF 122.8 (Archives)
Hampton, New Hampshire, United States

Feed Status: UP
Listen in your browser - HTML5 player(in browser, HTML5)
Click here to listen with your own player(launches your MP3 player)

KMHT 012353Z 29007KT 10SM CLR M03/M15 A3021 RMK AO2 SLP252 4/002 T10281150 11011 21033 53016

KMHT Airport Info (Airnav.com)

KMHT Flight Activity (Flightaware)

Listeners: 0 out of 1550 total

MA/NH Area CTAF: 122.800

7FL6 CTAF
Daytona Beach, Florida, United States

Feed Status: DOWN
Offline since: 2022-04-11 02:23:39 UTC

Spruce Creek CTAF/UNICOM: 122.725

7S5 CTAF (Archives)
Independence, Oregon, United States

Feed Status: UP
Listen in your browser - HTML5 player(in browser, HTML5)
Click here to listen with your own player(launches your MP3 player)


Listeners: 0 out of 1550 total

Independence CTAF/UNICOM: 122.975

B18/Lake Area CTAF (Archives)
Alton Bay, New Hampshire, United States

Feed Status: UP
Listen in your browser - HTML5 player(in browser, HTML5)
Click here to listen with your own player(launches your MP3 player)

KLCI 012356Z AUTO 22003KT 10SM CLR M09/M16 A3019 RMK AO2 SLP235 T10891161 11017 21089 51011 FZRANO

KLCI Airport Info (Airnav.com)

KLCI Flight Activity (Flightaware)

Listeners: 0 out of 1550 total

NH Area CTAF (Lakes Region): 122.800

C29 CTAF (Archives)
Middleton, Wisconsin, United States

Feed Status: UP
Listen in your browser - HTML5 player(in browser, HTML5)
Click here to listen with your own player(launches your MP3 player)

KC29 020015Z AUTO 00000KT 10SM BKN100 M06/M13 A3017 RMK AO1 T10641130

KC29 Airport Info (Airnav.com)

KC29 Flight Activity (Flightaware)

Listeners: 0 out of 1550 total

Morey CTAF: 123.000

KMTC Area CTAF
Romeo, Michigan, United States

Feed Status: DOWN
Offline since: 2023-01-18 23:25:05 UTC

KMTC 012356Z 21011KT 10SM FEW120 FEW200 M06/M14 A3024 RMK AO2A SLP257 4/002 T10581136 11037 21058 53002 $

KMTC Airport Info (Airnav.com)

Air to Air: 123.450
Marine City CTAF (76G): 123.000
Port Huron CTAF: 123.050
Ray CTAF: 122.700
Romeo CTAF: 122.800
St Clair CTAF: 122.800
Troy CTAF: 123.050

KGIF/F57 CTAF (Archives)
Winter Haven, Florida, United States

Feed Status: UP
Listen in your browser - HTML5 player(in browser, HTML5)
Click here to listen with your own player(launches your MP3 player)

KGIF 012353Z AUTO 32004KT 10SM BKN050 OVC060 24/17 A3019 RMK AO2 SLP220 T02390167 10283 20239 53010

KGIF Airport Info (Airnav.com)

KGIF Flight Activity (Flightaware)

Listeners: 0 out of 1550 total

Winter Haven CTAF: 123.050

F70 CTAF
Murrieta/Temecula, California, United States

Feed Status: DOWN
Offline since: 2022-09-28 18:01:22 UTC

KF70 020015Z AUTO 34003KT 10SM CLR 18/M10 A3013 RMK AO2

KF70 Airport Info (Airnav.com)

French Valley CTAF: 122.800

FA40 CTAF (Archives)
New Port Richey, Florida, United States

Feed Status: UP
Listen in your browser - HTML5 player(in browser, HTML5)
Click here to listen with your own player(launches your MP3 player)


Listeners: 0 out of 1550 total

Hidden Lake CTAF: 123.000

I35 CTAF/ZID (Archives)
Harlan, Kentucky, United States

Feed Status: UP
Listen in your browser - HTML5 player(in browser, HTML5)
Click here to listen with your own player(launches your MP3 player)

KI35 020015Z AUTO 00000KT 10SM OVC006 01/01 A3025 RMK AO2 T00130013

KI35 Airport Info (Airnav.com)

KI35 Flight Activity (Flightaware)

Listeners: 0 out of 1550 total

Harlan CTAF: 122.800
Indy Center (Sector 21 London Low): 121.325
Indy Center (Sector 21 London Low): 124.625
Indy Center (Sector 25 AZQ Low): 126.575

I40 AWOS (Archives)
Coshocton, Ohio, United States

Feed Status: UP
Listen in your browser - HTML5 player(in browser, HTML5)
Click here to listen with your own player(launches your MP3 player)


Listeners: 0 out of 1550 total

Coshocton AWOS: 118.875

I40 CTAF (Archives)
Coshocton, Ohio, United States

Feed Status: UP
Listen in your browser - HTML5 player(in browser, HTML5)
Click here to listen with your own player(launches your MP3 player)


Listeners: 0 out of 1550 total

Coshocton CTAF: 123.000

K1H0 CTAF/Unicom (Archives)
St. Louis, Missouri, United States

Feed Status: UP
Listen in your browser - HTML5 player(in browser, HTML5)
Click here to listen with your own player(launches your MP3 player)

K1H0 Airport Info (Airnav.com)

K1H0 Flight Activity (Flightaware)

Listeners: 0 out of 1550 total

Creve Coeur CTAF: 122.800

KIXD Ground/Tower/K34 (Archives)
Gardner, Kansas, United States

Feed Status: UP
Listen in your browser - HTML5 player(in browser, HTML5)
Click here to listen with your own player(launches your MP3 player)

KIXD 012353Z 20007KT 10SM CLR 00/M09 A3026 RMK AO2 SLP262 T00001094 10033 20000 55002

KIXD Airport Info (Airnav.com)

KIXD Flight Activity (Flightaware)

Listeners: 0 out of 1550 total

K34 CTAF: 122.800
New Century Ground: 124.300
New Century Tower: 133.000

KAAO CTAF/KBEC Twr
Wichita, Kansas, United States

Feed Status: DOWN
Offline since: 2022-07-21 02:31:39 UTC

KAAO 012354Z AUTO 23008KT 10SM CLR M01/M11 A3028 RMK AO2 SLP273 T10061111 10022 21006 53003

KAAO Airport Info (Airnav.com)

Beech Tower: 126.800
Jabara CTAF: 122.700

KACK App/Dep (Archives)
Nantucket, Massachusetts, United States

Feed Status: UP
Listen in your browser - HTML5 player(in browser, HTML5)
Click here to listen with your own player(launches your MP3 player)

KACK 012353Z 00000KT 10SM CLR M03/M07 A3023 RMK AO2 SLP238 T10331072 10017 21033 51017

KACK Airport Info (Airnav.com)

KACK Flight Activity (Flightaware)

Listeners: 1 out of 1550 total

Cape Approach (Nantucket Sector): 126.100

KACK ATIS (Archives)
Nantucket, Massachusetts, United States

Feed Status: UP
Listen in your browser - HTML5 player(in browser, HTML5)
Click here to listen with your own player(launches your MP3 player)

KACK 012353Z 00000KT 10SM CLR M03/M07 A3023 RMK AO2 SLP238 T10331072 10017 21033 51017

KACK Airport Info (Airnav.com)

KACK Flight Activity (Flightaware)

Listeners: 0 out of 1550 total

Nantucket ATIS: 127.500

KACK Ground (Archives)
Nantucket, Massachusetts, United States

Feed Status: UP
Listen in your browser - HTML5 player(in browser, HTML5)
Click here to listen with your own player(launches your MP3 player)

KACK 012353Z 00000KT 10SM CLR M03/M07 A3023 RMK AO2 SLP238 T10331072 10017 21033 51017

KACK Airport Info (Airnav.com)

KACK Flight Activity (Flightaware)

Listeners: 0 out of 1550 total

Nantucket Clearance Delivery: 119.375
Nantucket Ground: 132.500

KACK Tower (Archives)
Nantucket, Massachusetts, United States

Feed Status: UP
Listen in your browser - HTML5 player(in browser, HTML5)
Click here to listen with your own player(launches your MP3 player)

KACK 012353Z 00000KT 10SM CLR M03/M07 A3023 RMK AO2 SLP238 T10331072 10017 21033 51017

KACK Airport Info (Airnav.com)

KACK Flight Activity (Flightaware)

Listeners: 0 out of 1550 total

Nantucket Tower: 118.300

KADS ATIS (Archives)
Dallas, Texas, United States

Feed Status: UP
Listen in your browser - HTML5 player(in browser, HTML5)
Click here to listen with your own player(launches your MP3 player)



KADS Airport Info (Airnav.com)

KADS Flight Activity (Flightaware)

Listeners: 0 out of 1550 total

Addison ATIS: 133.400
Addison ATIS/AWOS: 133.400

KADS Ground (Archives)
Dallas, Texas, United States

Feed Status: UP
Listen in your browser - HTML5 player(in browser, HTML5)
Click here to listen with your own player(launches your MP3 player)



KADS Airport Info (Airnav.com)

KADS Flight Activity (Flightaware)

Listeners: 0 out of 1550 total

Addison Ground: 121.600

KADS Tower (Archives)
Dallas, Texas, United States

Feed Status: UP
Listen in your browser - HTML5 player(in browser, HTML5)
Click here to listen with your own player(launches your MP3 player)



KADS Airport Info (Airnav.com)

KADS Flight Activity (Flightaware)

Listeners: 0 out of 1550 total

Addison Tower: 126.000

KDAA/KADW Tower (Archives)
Camp Springs, Maryland, United States

Feed Status: UP
Listen in your browser - HTML5 player(in browser, HTML5)
Click here to listen with your own player(launches your MP3 player)

KDAA 012355Z AUTO 00000KT 10SM CLR M01/M10 A3031 RMK AO2 SLP268 T10121096 10046 21013 50009 $

KDAA Airport Info (Airnav.com)

KDAA Flight Activity (Flightaware)

Listeners: 1 out of 1550 total

Andrews Tower: 118.400
Andrews Tower: 349.000
Davison Tower: 241.000
Davison Tower: 126.300
Davison Tower: 229.400

KAEG Twr/App (Archives)
Albuquerque, New Mexico, United States

Feed Status: UP
Listen in your browser - HTML5 player(in browser, HTML5)
Click here to listen with your own player(launches your MP3 player)

KABQ 012352Z 34013KT 10SM FEW080 09/M11 A3008 RMK AO2 SLP185 T00891106 10106 20033 53000

KABQ Airport Info (Airnav.com)

KABQ Flight Activity (Flightaware)

Listeners: 1 out of 1550 total

Double Eagle II Ground: 121.625
Double Eagle II Tower: 120.150
Double Eagle II Tower Clearance: 124.800

MA/NH CTAF 122.8 (Archives)
Jaffrey, New Hampshire, United States

Feed Status: UP
Listen in your browser - HTML5 player(in browser, HTML5)
Click here to listen with your own player(launches your MP3 player)

KMHT 012353Z 29007KT 10SM CLR M03/M15 A3021 RMK AO2 SLP252 4/002 T10281150 11011 21033 53016

KMHT Airport Info (Airnav.com)

KMHT Flight Activity (Flightaware)

Listeners: 0 out of 1550 total

MA/NH Area CTAF: 122.800

KAFW ATIS (Archives)
Fort Worth, Texas, United States

Feed Status: UP
Listen in your browser - HTML5 player(in browser, HTML5)
Click here to listen with your own player(launches your MP3 player)

KAFW 012353Z 36007KT 3SM -FZRA BR FEW005 BKN030 OVC055 M02/M03 A3033 RMK AO2 SLP285 P0009 60022 I1003 I6012 T10171028 11017 21022 53005

KAFW Airport Info (Airnav.com)

KAFW Flight Activity (Flightaware)

Listeners: 0 out of 1550 total

Alliance ATIS: 126.925

KAFW Regional App (North)
Fort Worth, Texas, United States

Feed Status: DOWN
Offline since: 2023-01-26 16:00:04 UTC

KAFW 012353Z 36007KT 3SM -FZRA BR FEW005 BKN030 OVC055 M02/M03 A3033 RMK AO2 SLP285 P0009 60022 I1003 I6012 T10171028 11017 21022 53005

KAFW Airport Info (Airnav.com)

Regional Approach (North): 118.100

KAFW Tower/Heli (Archives)
Fort Worth, Texas, United States

Feed Status: UP
Listen in your browser - HTML5 player(in browser, HTML5)
Click here to listen with your own player(launches your MP3 player)

KAFW 012353Z 36007KT 3SM -FZRA BR FEW005 BKN030 OVC055 M02/M03 A3033 RMK AO2 SLP285 P0009 60022 I1003 I6012 T10171028 11017 21022 53005

KAFW Airport Info (Airnav.com)

KAFW Flight Activity (Flightaware)

Listeners: 0 out of 1550 total

Alliance Tower: 135.150
Alliance Tower (Helicopters): 120.850

KAFW Tower/Heli/App
Fort Worth, Texas, United States

Feed Status: DOWN
Offline since: 2023-01-26 16:00:04 UTC

KAFW 012353Z 36007KT 3SM -FZRA BR FEW005 BKN030 OVC055 M02/M03 A3033 RMK AO2 SLP285 P0009 60022 I1003 I6012 T10171028 11017 21022 53005

KAFW Airport Info (Airnav.com)

Alliance Tower: 135.150
Alliance Tower (Helicopters): 120.850
Regional Approach (North): 118.100

KAHN Tower (Archives)
Athens, Georgia, United States

Feed Status: UP
Listen in your browser - HTML5 player(in browser, HTML5)
Click here to listen with your own player(launches your MP3 player)

KAHN 012351Z 24005KT 10SM OVC030 15/09 A3019 RMK AO2 SLP221 T01500094 10178 20150 53018

KAHN Airport Info (Airnav.com)

KAHN Flight Activity (Flightaware)

Listeners: 0 out of 1550 total

Athens Tower: 126.300

KAMW CTAF (Archives)
Ames, Iowa, United States

Feed Status: UP
Listen in your browser - HTML5 player(in browser, HTML5)
Click here to listen with your own player(launches your MP3 player)

KAMW 012353Z AUTO 00000KT 10SM CLR M07/M11 A3016 RMK AO2 SLP228 T10671111 11006 21067 55002

KAMW Airport Info (Airnav.com)

KAMW Flight Activity (Flightaware)

Listeners: 0 out of 1550 total

Ames CTAF: 122.700

KANE Twr/CTAF (Archives)
Minneapolis, Minnesota, United States

Feed Status: UP
Listen in your browser - HTML5 player(in browser, HTML5)
Click here to listen with your own player(launches your MP3 player)

KANE 012350Z 21006KT 10SM CLR M07/M14 A3007

KANE Airport Info (Airnav.com)

KANE Flight Activity (Flightaware)

Listeners: 0 out of 1550 total

Anoka Tower/CTAF: 132.400

KANK CTAF (Archives)
Salida, Colorado, United States

Feed Status: UP
Listen in your browser - HTML5 player(in browser, HTML5)
Click here to listen with your own player(launches your MP3 player)

KANK 020010Z AUTO 27009G15KT 10SM CLR 02/M16 A3017 RMK AO1 T00191163

KANK Airport Info (Airnav.com)

KANK Flight Activity (Flightaware)

Listeners: 0 out of 1550 total

Salida CTAF: 122.700

KAOH CTAF (Archives)
Lima, Ohio, United States

Feed Status: UP
Listen in your browser - HTML5 player(in browser, HTML5)
Click here to listen with your own player(launches your MP3 player)

KAOH 012353Z AUTO 21004KT 10SM CLR M04/M11 A3030 RMK AO2 SLP276 T10441111 11028 21056 55002

KAOH Airport Info (Airnav.com)

KAOH Flight Activity (Flightaware)

Listeners: 0 out of 1550 total

Lima CTAF: 122.700

KAPA App/Dep (Archives)
Denver, Colorado, United States

Feed Status: UP
Listen in your browser - HTML5 player(in browser, HTML5)
Click here to listen with your own player(launches your MP3 player)

KAPA 012353Z 17011KT 10SM FEW100 FEW140 02/M10 A3007 RMK AO2 SLP227 T00171100 10056 20017 51010

KAPA Airport Info (Airnav.com)

KAPA Flight Activity (Flightaware)

Listeners: 3 out of 1550 total

Denver Approach/Departure: 132.750

KAPA Del/Gnd (Archives)
Denver, Colorado, United States

Feed Status: UP
Listen in your browser - HTML5 player(in browser, HTML5)
Click here to listen with your own player(launches your MP3 player)

KAPA 012353Z 17011KT 10SM FEW100 FEW140 02/M10 A3007 RMK AO2 SLP227 T00171100 10056 20017 51010

KAPA Airport Info (Airnav.com)

KAPA Flight Activity (Flightaware)

Listeners: 0 out of 1550 total

Centennial Clearance Delivery: 128.600
Centennial Ground: 121.800

KAPA Tower (Primary) (Archives)
Denver, Colorado, United States

Feed Status: UP
Listen in your browser - HTML5 player(in browser, HTML5)
Click here to listen with your own player(launches your MP3 player)

KAPA 012353Z 17011KT 10SM FEW100 FEW140 02/M10 A3007 RMK AO2 SLP227 T00171100 10056 20017 51010

KAPA Airport Info (Airnav.com)

KAPA Flight Activity (Flightaware)

Listeners: 8 out of 1550 total

Centennial Tower: 118.900

KAPA Tower (Secondary #1) (Archives)
Denver, Colorado, United States

Feed Status: UP
Listen in your browser - HTML5 player(in browser, HTML5)
Click here to listen with your own player(launches your MP3 player)

KAPA 012353Z 17011KT 10SM FEW100 FEW140 02/M10 A3007 RMK AO2 SLP227 T00171100 10056 20017 51010

KAPA Airport Info (Airnav.com)

KAPA Flight Activity (Flightaware)

Listeners: 0 out of 1550 total

Centennial Tower (Rwy 17R/35L or Rwy 28): 123.700

KAPA Tower (Secondary #2) (Archives)
Denver, Colorado, United States

Feed Status: UP
Listen in your browser - HTML5 player(in browser, HTML5)
Click here to listen with your own player(launches your MP3 player)

KAPA 012353Z 17011KT 10SM FEW100 FEW140 02/M10 A3007 RMK AO2 SLP227 T00171100 10056 20017 51010

KAPA Airport Info (Airnav.com)

KAPA Flight Activity (Flightaware)

Listeners: 0 out of 1550 total

Centennial Tower (Rwy 17R/35L or Rwy 28): 124.600

KAPC Del/Gnd (Archives)
Napa, California, United States

Feed Status: UP
Listen in your browser - HTML5 player(in browser, HTML5)
Click here to listen with your own player(launches your MP3 player)



KAPC Airport Info (Airnav.com)

KAPC Flight Activity (Flightaware)

Listeners: 0 out of 1550 total

Napa Clearance Delivery: 127.850
Napa Ground: 121.700

KAPC Tower (Archives)
Napa, California, United States

Feed Status: UP
Listen in your browser - HTML5 player(in browser, HTML5)
Click here to listen with your own player(launches your MP3 player)



KAPC Airport Info (Airnav.com)

KAPC Flight Activity (Flightaware)

Listeners: 0 out of 1550 total

Napa Tower: 118.700

KAPF ATIS (Archives)
Naples, Florida, United States

Feed Status: UP
Listen in your browser - HTML5 player(in browser, HTML5)
Click here to listen with your own player(launches your MP3 player)

KAPF 012353Z 00000KT 10SM CLR 23/21 A3017 RMK AO2 SLP216 T02330206 10278 20233 52009

KAPF Airport Info (Airnav.com)

KAPF Flight Activity (Flightaware)

Listeners: 0 out of 1550 total

Naples ATIS: 134.225

KAPF Del/Gnd (Archives)
Naples, Florida, United States

Feed Status: UP
Listen in your browser - HTML5 player(in browser, HTML5)
Click here to listen with your own player(launches your MP3 player)

KAPF 012353Z 00000KT 10SM CLR 23/21 A3017 RMK AO2 SLP216 T02330206 10278 20233 52009

KAPF Airport Info (Airnav.com)

KAPF Flight Activity (Flightaware)

Listeners: 0 out of 1550 total

Naples Clearance Delivery: 118.000
Naples Ground: 121.600

KAPF Del/Gnd/Twr (Archives)
Naples, Florida, United States

Feed Status: UP
Listen in your browser - HTML5 player(in browser, HTML5)
Click here to listen with your own player(launches your MP3 player)

KAPF 012353Z 00000KT 10SM CLR 23/21 A3017 RMK AO2 SLP216 T02330206 10278 20233 52009

KAPF Airport Info (Airnav.com)

KAPF Flight Activity (Flightaware)

Listeners: 0 out of 1550 total

Naples Clearance Delivery: 118.000
Naples Ground: 121.600
Naples Tower: 128.500

KAPF Ft Myers App/Dep (Archives)
Naples, Florida, United States

Feed Status: UP
Listen in your browser - HTML5 player(in browser, HTML5)
Click here to listen with your own player(launches your MP3 player)

KAPF 012353Z 00000KT 10SM CLR 23/21 A3017 RMK AO2 SLP216 T02330206 10278 20233 52009

KAPF Airport Info (Airnav.com)

KAPF Flight Activity (Flightaware)

Listeners: 0 out of 1550 total

Fort Myers Approach/Departure: 124.125
Fort Myers Approach/Departure: 126.800

KAPF Tower (Archives)
Naples, Florida, United States

Feed Status: UP
Listen in your browser - HTML5 player(in browser, HTML5)
Click here to listen with your own player(launches your MP3 player)

KAPF 012353Z 00000KT 10SM CLR 23/21 A3017 RMK AO2 SLP216 T02330206 10278 20233 52009

KAPF Airport Info (Airnav.com)

KAPF Flight Activity (Flightaware)

Listeners: 0 out of 1550 total

Naples Tower: 128.500

KARB ATIS (Archives)
Ann Arbor, Michigan, United States

Feed Status: UP
Listen in your browser - HTML5 player(in browser, HTML5)
Click here to listen with your own player(launches your MP3 player)

KARB 012353Z 19008KT 10SM CLR M08/M15 A3027 RMK AO2 SLP268 T10831150 11056 21083 53003

KARB Airport Info (Airnav.com)

KARB Flight Activity (Flightaware)

Listeners: 0 out of 1550 total

Ann Arbor ATIS: 134.550

KARB Gnd/Twr (Archives)
Ann Arbor, Michigan, United States

Feed Status: UP
Listen in your browser - HTML5 player(in browser, HTML5)
Click here to listen with your own player(launches your MP3 player)

KARB 012353Z 19008KT 10SM CLR M08/M15 A3027 RMK AO2 SLP268 T10831150 11056 21083 53003

KARB Airport Info (Airnav.com)

KARB Flight Activity (Flightaware)

Listeners: 0 out of 1550 total

Ann Arbor Ground: 121.600
Ann Arbor Tower: 120.300

KARB Ground (Archives)
Ann Arbor, Michigan, United States

Feed Status: UP
Listen in your browser - HTML5 player(in browser, HTML5)
Click here to listen with your own player(launches your MP3 player)

KARB 012353Z 19008KT 10SM CLR M08/M15 A3027 RMK AO2 SLP268 T10831150 11056 21083 53003

KARB Airport Info (Airnav.com)

KARB Flight Activity (Flightaware)

Listeners: 0 out of 1550 total

Ann Arbor Ground: 121.600

KARB Tower (Archives)
Ann Arbor, Michigan, United States

Feed Status: UP
Listen in your browser - HTML5 player(in browser, HTML5)
Click here to listen with your own player(launches your MP3 player)

KARB 012353Z 19008KT 10SM CLR M08/M15 A3027 RMK AO2 SLP268 T10831150 11056 21083 53003

KARB Airport Info (Airnav.com)

KARB Flight Activity (Flightaware)

Listeners: 0 out of 1550 total

Ann Arbor Tower: 120.300

KARG CTAF/Memphis Center (Archives)
Walnut Ridge, Arkansas, United States

Feed Status: UP
Listen in your browser - HTML5 player(in browser, HTML5)
Click here to listen with your own player(launches your MP3 player)

KARG 012356Z AUTO 13005KT 10SM SCT120 M02/M07 A3036 RMK AO2 SLP284 T10171067 10006 21017 58003 FZRANO

KARG Airport Info (Airnav.com)

KARG Flight Activity (Flightaware)

Listeners: 0 out of 1550 total

Memphis Center (Sector 04 Jonesboro Low): 120.075
Memphis Center (Sector 04 Jonesboro Low): 289.400
Memphis Center (Sector 27 Jonesboro High): 132.375
Memphis Center (Sector 27 Jonesboro High): 257.600
Memphis Center (Sector 35 Walnut Ridge Ultra-High): 135.225
Memphis Center (Sector 35 Walnut Ridge Ultra-High): 322.300
Walnut Ridge CTAF: 122.800

KARR Tower (Archives)
Chicago/Aurora, Illinois, United States

Feed Status: UP
Listen in your browser - HTML5 player(in browser, HTML5)
Click here to listen with your own player(launches your MP3 player)

KARR 012352Z 15004KT 10SM CLR M06/M12 A3024 RMK AO2 SLP255 T10611122 11039 21061 55004

KARR Airport Info (Airnav.com)

KARR Flight Activity (Flightaware)

Listeners: 0 out of 1550 total

Aurora Tower: 120.600

KASE ATIS (Archives)
Aspen, Colorado, United States

Feed Status: UP
Listen in your browser - HTML5 player(in browser, HTML5)
Click here to listen with your own player(launches your MP3 player)

KASE 012353Z 00000KT 10SM CLR M07/M14 A3018 RMK AO2 SLP296 T10671144 11028 21089 53014

KASE Airport Info (Airnav.com)

KASE Flight Activity (Flightaware)

Listeners: 0 out of 1550 total

Aspen ATIS: 120.400

KASE Gnd/Twr/App/Center (Archives)
Aspen, Colorado, United States

Feed Status: UP
Listen in your browser - HTML5 player(in browser, HTML5)
Click here to listen with your own player(launches your MP3 player)

KASE 012353Z 00000KT 10SM CLR M07/M14 A3018 RMK AO2 SLP296 T10671144 11028 21089 53014

KASE Airport Info (Airnav.com)

KASE Flight Activity (Flightaware)

Listeners: 0 out of 1550 total

Aspen Approach/Departure: 123.800
Aspen Ground: 121.900
Aspen Tower/CTAF: 118.850
Denver Center (Sector 26 POWDR Low): 119.850

KASE Ground/Tower (Archives)
Aspen, Colorado, United States

Feed Status: UP
Listen in your browser - HTML5 player(in browser, HTML5)
Click here to listen with your own player(launches your MP3 player)

KASE 012353Z 00000KT 10SM CLR M07/M14 A3018 RMK AO2 SLP296 T10671144 11028 21089 53014

KASE Airport Info (Airnav.com)

KASE Flight Activity (Flightaware)

Listeners: 0 out of 1550 total

Aspen Ground: 121.900
Aspen Tower/CTAF: 118.850

KASE Tower (Archives)
Aspen, Colorado, United States

Feed Status: UP
Listen in your browser - HTML5 player(in browser, HTML5)
Click here to listen with your own player(launches your MP3 player)

KASE 012353Z 00000KT 10SM CLR M07/M14 A3018 RMK AO2 SLP296 T10671144 11028 21089 53014

KASE Airport Info (Airnav.com)

KASE Flight Activity (Flightaware)

Listeners: 0 out of 1550 total

Aspen Tower/CTAF: 118.850

KASG App/Dep (Archives)
Springdale, Arkansas, United States

Feed Status: UP
Listen in your browser - HTML5 player(in browser, HTML5)
Click here to listen with your own player(launches your MP3 player)

KASG 012348Z 27003KT 10SM FEW120 M01/M03 A3031

KASG Airport Info (Airnav.com)

KASG Flight Activity (Flightaware)

Listeners: 0 out of 1550 total

Razorback Approach/Departure: 126.600

KASG Gnd/Twr (Archives)
Springdale, Arkansas, United States

Feed Status: UP
Listen in your browser - HTML5 player(in browser, HTML5)
Click here to listen with your own player(launches your MP3 player)

KASG 012348Z 27003KT 10SM FEW120 M01/M03 A3031

KASG Airport Info (Airnav.com)

KASG Flight Activity (Flightaware)

Listeners: 0 out of 1550 total

Springdale Ground: 121.600
Springdale Tower: 118.200

KASG Gnd/Twr/App (Archives)
Springdale, Arkansas, United States

Feed Status: UP
Listen in your browser - HTML5 player(in browser, HTML5)
Click here to listen with your own player(launches your MP3 player)

KASG 012348Z 27003KT 10SM FEW120 M01/M03 A3031

KASG Airport Info (Airnav.com)

KASG Flight Activity (Flightaware)

Listeners: 0 out of 1550 total

Razorback Approach/Departure: 126.600
Springdale Ground: 121.600
Springdale Tower: 118.200

KASH ATIS #1 (Archives)
Nashua, New Hampshire, United States

Feed Status: UP
Listen in your browser - HTML5 player(in browser, HTML5)
Click here to listen with your own player(launches your MP3 player)

KASH 012356Z 28004KT 10SM CLR M03/M14 A3023 RMK AO2 SLP247 T10331144 11011 21039 52016

KASH Airport Info (Airnav.com)

KASH Flight Activity (Flightaware)

Listeners: 0 out of 1550 total

Nashua ATIS: 125.100

KASH ATIS #2 (Archives)
Nashua, New Hampshire, United States

Feed Status: UP
Listen in your browser - HTML5 player(in browser, HTML5)
Click here to listen with your own player(launches your MP3 player)

KASH 012356Z 28004KT 10SM CLR M03/M14 A3023 RMK AO2 SLP247 T10331144 11011 21039 52016

KASH Airport Info (Airnav.com)

KASH Flight Activity (Flightaware)

Listeners: 0 out of 1550 total

Nashua ATIS: 125.100

KASH Gnd/Twr/FBO #1 (Archives)
Nashua, New Hampshire, United States

Feed Status: UP
Listen in your browser - HTML5 player(in browser, HTML5)
Click here to listen with your own player(launches your MP3 player)

KASH 012356Z 28004KT 10SM CLR M03/M14 A3023 RMK AO2 SLP247 T10331144 11011 21039 52016

KASH Airport Info (Airnav.com)

KASH Flight Activity (Flightaware)

Listeners: 0 out of 1550 total

Infinity Aviation: 129.750
Nashua Ground: 121.800
Nashua Tower: 133.200

KASH Gnd/Twr/FBO #2 (Archives)
Nashua, New Hampshire, United States

Feed Status: UP
Listen in your browser - HTML5 player(in browser, HTML5)
Click here to listen with your own player(launches your MP3 player)

KASH 012356Z 28004KT 10SM CLR M03/M14 A3023 RMK AO2 SLP247 T10331144 11011 21039 52016

KASH Airport Info (Airnav.com)

KASH Flight Activity (Flightaware)

Listeners: 1 out of 1550 total

Nashua Ground: 121.800
Nashua Tower: 133.200

KASH Ground/FBO (Archives)
Nashua, New Hampshire, United States

Feed Status: UP
Listen in your browser - HTML5 player(in browser, HTML5)
Click here to listen with your own player(launches your MP3 player)

KASH 012356Z 28004KT 10SM CLR M03/M14 A3023 RMK AO2 SLP247 T10331144 11011 21039 52016

KASH Airport Info (Airnav.com)

KASH Flight Activity (Flightaware)

Listeners: 0 out of 1550 total

Infinity Aviation: 129.750
Nashua Ground: 121.800

KASH Tower (Archives)
Nashua, New Hampshire, United States

Feed Status: UP
Listen in your browser - HTML5 player(in browser, HTML5)
Click here to listen with your own player(launches your MP3 player)

KASH 012356Z 28004KT 10SM CLR M03/M14 A3023 RMK AO2 SLP247 T10331144 11011 21039 52016

KASH Airport Info (Airnav.com)

KASH Flight Activity (Flightaware)

Listeners: 0 out of 1550 total

Nashua Tower: 133.200

Atlanta Approach (NW Satellite) (Archives)
Atlanta, Georgia, United States

Feed Status: UP
Listen in your browser - HTML5 player(in browser, HTML5)
Click here to listen with your own player(launches your MP3 player)

KRYY 012350Z 00000KT 10SM OVC014 08/06 A3024 RMK AO2 SLP238 T00830056 10117 20083 51019 $

KRYY Airport Info (Airnav.com)

KRYY Flight Activity (Flightaware)

Listeners: 0 out of 1550 total

Atlanta Approach (North Satellite): 121.000

KATW Tower (Archives)
Appleton, Wisconsin, United States

Feed Status: UP
Listen in your browser - HTML5 player(in browser, HTML5)
Click here to listen with your own player(launches your MP3 player)

KATW 012345Z 21008KT 10SM OVC100 M07/M13 A3012

KATW Airport Info (Airnav.com)

KATW Flight Activity (Flightaware)

Listeners: 0 out of 1550 total

Appleton Tower: 119.600

KAUG CTAF/FSS (Archives)
Augusta, Maine, United States

Feed Status: UP
Listen in your browser - HTML5 player(in browser, HTML5)
Click here to listen with your own player(launches your MP3 player)

KAUG 012353Z AUTO 20004KT 10SM CLR M09/M19 A3020 RMK AO2 SLP233 T10891189 11061 21094 53006

KAUG Airport Info (Airnav.com)

KAUG Flight Activity (Flightaware)

Listeners: 0 out of 1550 total

Augusta CTAF/UNICOM: 123.000
Flight Service: 122.200

KAUW CTAF (Air Race Classic)
Wausau, Wisconsin, United States

Feed Status: DOWN
Offline since: 2019-06-24 16:01:03 UTC

Wausau CTAF: 122.700

KAVO CTAF
Avon Park, Florida, United States

Feed Status: DOWN
Offline since: 2022-09-29 00:02:05 UTC

KAVO Airport Info (Airnav.com)

Avon Park CTAF: 122.800

KAVP Gnd/Twr/App
Wilkes-Barre/Scranton, Pennsylvania, United States

Feed Status: DOWN
Offline since: 2022-12-13 18:55:39 UTC

KAVP 012354Z 00000KT 10SM CLR M04/M12 A3023 RMK AO2 SLP248 T10391117 10000 21039 51008

KAVP Airport Info (Airnav.com)

Wilkes-Barre Approach: 120.950
Wilkes-Barre Approach: 126.300
Wilkes-Barre Ground: 121.900
Wilkes-Barre Tower: 120.100

Arlington Fly-In Radio
Arlington, Washington, United States

Feed Status: DOWN
Offline since: 2019-08-18 20:46:39 UTC

KAWO 012356Z AUTO 23003KT 10SM CLR 09/M04 A3014 RMK AO2 SLP211 T00891044 10089 20033 55006

KAWO Airport Info (Airnav.com)

Arlington Fly-In Radio: 89.9

KAWO Arlington Fly-In ATC
Arlington, Washington, United States

Feed Status: DOWN
Offline since: 2019-08-18 20:46:39 UTC

KAWO 012356Z AUTO 23003KT 10SM CLR 09/M04 A3014 RMK AO2 SLP211 T00891044 10089 20033 55006

KAWO Airport Info (Airnav.com)

Arlington CTAF: 122.725
Arlington Tower (Air Show): 127.200

KAWO CTAF/Clearance (Archives)
Arlington, Washington, United States

Feed Status: UP
Listen in your browser - HTML5 player(in browser, HTML5)
Click here to listen with your own player(launches your MP3 player)

KAWO 012356Z AUTO 23003KT 10SM CLR 09/M04 A3014 RMK AO2 SLP211 T00891044 10089 20033 55006

KAWO Airport Info (Airnav.com)

KAWO Flight Activity (Flightaware)

Listeners: 1 out of 1550 total

Arlington Clearance Delivery (Seattle): 121.725
Arlington CTAF: 122.725

KBTL/KAZO Gnd/Twr/App (Archives)
Kalamazoo, Michigan, United States

Feed Status: UP
Listen in your browser - HTML5 player(in browser, HTML5)
Click here to listen with your own player(launches your MP3 player)

KBTL Airport Info (Airnav.com)

KBTL Flight Activity (Flightaware)

Listeners: 0 out of 1550 total

Battle Creek Ground: 121.700
Battle Creek Tower: 126.825
Kalamazoo Approach/Departure: 119.200
Kalamazoo Ground: 121.900
Kalamazoo Tower: 118.300

KBAF ATIS (Archives)
Westfield/Springfield, Massachusetts, United States

Feed Status: UP
Listen in your browser - HTML5 player(in browser, HTML5)
Click here to listen with your own player(launches your MP3 player)

KBAF 012353Z 32004KT 10SM CLR M04/M13 A3024 RMK AO2 SLP248 T10441133 10006 21044 51015

KBAF Airport Info (Airnav.com)

KBAF Flight Activity (Flightaware)

Listeners: 0 out of 1550 total

Westfield ATIS: 127.100

KBAF Ground (Archives)
Westfield/Springfield, Massachusetts, United States

Feed Status: UP
Listen in your browser - HTML5 player(in browser, HTML5)
Click here to listen with your own player(launches your MP3 player)

KBAF 012353Z 32004KT 10SM CLR M04/M13 A3024 RMK AO2 SLP248 T10441133 10006 21044 51015

KBAF Airport Info (Airnav.com)

KBAF Flight Activity (Flightaware)

Listeners: 0 out of 1550 total

Emergency/Guard: 121.500
Emergency/Guard: 243.000
NG Ops: 123.050
NG Ops: 309.000
Westfield Ground: 121.700
Westfield Ground: 289.400

KBAF Ground/Tower (Archives)
Westfield/Springfield, Massachusetts, United States

Feed Status: UP
Listen in your browser - HTML5 player(in browser, HTML5)
Click here to listen with your own player(launches your MP3 player)

KBAF 012353Z 32004KT 10SM CLR M04/M13 A3024 RMK AO2 SLP248 T10441133 10006 21044 51015

KBAF Airport Info (Airnav.com)

KBAF Flight Activity (Flightaware)

Listeners: 1 out of 1550 total

Emergency/Guard: 121.500
Emergency/Guard: 243.000
NG Ops: 123.050
NG Ops: 309.000
Westfield Ground: 121.700
Westfield Ground: 289.400
Westfield Tower: 118.900
Westfield Tower: 251.100

KBAF Tower (Archives)
Westfield/Springfield, Massachusetts, United States

Feed Status: UP
Listen in your browser - HTML5 player(in browser, HTML5)
Click here to listen with your own player(launches your MP3 player)

KBAF 012353Z 32004KT 10SM CLR M04/M13 A3024 RMK AO2 SLP248 T10441133 10006 21044 51015

KBAF Airport Info (Airnav.com)

KBAF Flight Activity (Flightaware)

Listeners: 0 out of 1550 total

Westfield Tower: 118.900
Westfield Tower: 251.100

KBAK Gnd/Twr (Archives)
Columbus, Indiana, United States

Feed Status: UP
Listen in your browser - HTML5 player(in browser, HTML5)
Click here to listen with your own player(launches your MP3 player)

KBAK 012345Z 00000KT 10SM CLR M03/M13 A3032

KBAK Airport Info (Airnav.com)

KBAK Flight Activity (Flightaware)

Listeners: 0 out of 1550 total

Columbus Ground: 121.600
Columbus Tower: 118.600

KBAK Gnd/Twr/App/Dep (Archives)
Columbus, Indiana, United States

Feed Status: UP
Listen in your browser - HTML5 player(in browser, HTML5)
Click here to listen with your own player(launches your MP3 player)

KBAK 012345Z 00000KT 10SM CLR M03/M13 A3032

KBAK Airport Info (Airnav.com)

KBAK Flight Activity (Flightaware)

Listeners: 0 out of 1550 total

Columbus Ground: 121.600
Columbus Tower: 118.600
Emergency/Guard: 121.500
Emergency/Guard: 243.000
Indianapolis Approach/Departure: 134.850

KBAK Indy App/Dep/Guard (Archives)
Columbus, Indiana, United States

Feed Status: UP
Listen in your browser - HTML5 player(in browser, HTML5)
Click here to listen with your own player(launches your MP3 player)

KBAK 012345Z 00000KT 10SM CLR M03/M13 A3032

KBAK Airport Info (Airnav.com)

KBAK Flight Activity (Flightaware)

Listeners: 0 out of 1550 total

Emergency/Guard: 121.500
Emergency/Guard: 243.000
Indianapolis Approach/Departure: 134.850

KBAZ Tower (Archives)
New Braunfels, Texas, United States

Feed Status: UP
Listen in your browser - HTML5 player(in browser, HTML5)
Click here to listen with your own player(launches your MP3 player)

KBAZ 012351Z 01010KT 2SM BR OVC010 01/01 A3024 RMK AO2 CIG 006V012 SLP244 60005 T00110006 10017 20011 50000

KBAZ Airport Info (Airnav.com)

KBAZ Flight Activity (Flightaware)

Listeners: 0 out of 1550 total

New Braunfels Tower: 127.050

KBCT ATIS (Archives)
Boca Raton, Florida, United States

Feed Status: UP
Listen in your browser - HTML5 player(in browser, HTML5)
Click here to listen with your own player(launches your MP3 player)

KBCT 012353Z 13007KT 10SM SCT042 24/20 A3018

KBCT Airport Info (Airnav.com)

KBCT Flight Activity (Flightaware)

Listeners: 0 out of 1550 total

Boca Raton ATIS/AWOS: 121.125

KBCT Emergency/Guard (Archives)
Boca Raton, Florida, United States

Feed Status: UP
Listen in your browser - HTML5 player(in browser, HTML5)
Click here to listen with your own player(launches your MP3 player)

KBCT 012353Z 13007KT 10SM SCT042 24/20 A3018

KBCT Airport Info (Airnav.com)

KBCT Flight Activity (Flightaware)

Listeners: 0 out of 1550 total

Emergency/Guard: 121.500

KBCT Ground (Archives)
Boca Raton, Florida, United States

Feed Status: UP
Listen in your browser - HTML5 player(in browser, HTML5)
Click here to listen with your own player(launches your MP3 player)

KBCT 012353Z 13007KT 10SM SCT042 24/20 A3018

KBCT Airport Info (Airnav.com)

KBCT Flight Activity (Flightaware)

Listeners: 0 out of 1550 total

Boca Raton Ground: 121.800

KBCT Ground/Tower (Archives)
Boca Raton, Florida, United States

Feed Status: UP
Listen in your browser - HTML5 player(in browser, HTML5)
Click here to listen with your own player(launches your MP3 player)

KBCT 012353Z 13007KT 10SM SCT042 24/20 A3018

KBCT Airport Info (Airnav.com)

KBCT Flight Activity (Flightaware)

Listeners: 0 out of 1550 total

Boca Raton Ground: 121.800
Boca Raton Tower: 118.425

KBCT Tower (Archives)
Boca Raton, Florida, United States

Feed Status: UP
Listen in your browser - HTML5 player(in browser, HTML5)
Click here to listen with your own player(launches your MP3 player)

KBCT 012353Z 13007KT 10SM SCT042 24/20 A3018

KBCT Airport Info (Airnav.com)

KBCT Flight Activity (Flightaware)

Listeners: 0 out of 1550 total

Boca Raton Tower: 118.425

KBDN CTAF (Archives)
Bend, Oregon, United States

Feed Status: UP
Listen in your browser - HTML5 player(in browser, HTML5)
Click here to listen with your own player(launches your MP3 player)

KBDN 020010Z AUTO 10003KT 10SM CLR 06/M06 A3011 RMK AO2

KBDN Airport Info (Airnav.com)

KBDN Flight Activity (Flightaware)

Listeners: 0 out of 1550 total

Bend CTAF: 123.000

KBDR Del/Gnd/Twr (Archives)
Bridgeport, Connecticut, United States

Feed Status: UP
Listen in your browser - HTML5 player(in browser, HTML5)
Click here to listen with your own player(launches your MP3 player)

KBDR 012352Z 30005KT 10SM CLR M01/M11 A3025 RMK AO2 SLP242 T10061111 10028 21006 51014

KBDR Airport Info (Airnav.com)

KBDR Flight Activity (Flightaware)

Listeners: 0 out of 1550 total

Bridgeport Clearance/Ground: 121.750
Bridgeport Tower: 120.900
Sikorsky Heliport: 133.600

KBDR Del/Gnd/Twr/App (Archives)
Bridgeport, Connecticut, United States

Feed Status: UP
Listen in your browser - HTML5 player(in browser, HTML5)
Click here to listen with your own player(launches your MP3 player)

KBDR 012352Z 30005KT 10SM CLR M01/M11 A3025 RMK AO2 SLP242 T10061111 10028 21006 51014

KBDR Airport Info (Airnav.com)

KBDR Flight Activity (Flightaware)

Listeners: 0 out of 1550 total

Bridgeport Clearance/Ground: 121.750
Bridgeport Tower: 120.900
New York Approach (LOVES Sector): 124.075
Sikorsky Heliport: 133.600

New York Approach (LOVES Sector) (Archives)
Bridgeport, Connecticut, United States

Feed Status: UP
Listen in your browser - HTML5 player(in browser, HTML5)
Click here to listen with your own player(launches your MP3 player)

KBDR 012352Z 30005KT 10SM CLR M01/M11 A3025 RMK AO2 SLP242 T10061111 10028 21006 51014

KBDR Airport Info (Airnav.com)

KBDR Flight Activity (Flightaware)

Listeners: 0 out of 1550 total

New York Approach (LOVES Sector): 124.075

KFTG/KEIK/KBDU/KLMO/Misc (Archives)
Boulder, Colorado, United States

Feed Status: UP
Listen in your browser - HTML5 player(in browser, HTML5)
Click here to listen with your own player(launches your MP3 player)

KDEN 012353Z 17010KT 10SM FEW100 FEW150 M02/M09 A3007 RMK AO2 SLP218 T10221094 10050 21022 51010

KDEN Airport Info (Airnav.com)

KDEN Flight Activity (Flightaware)

Listeners: 0 out of 1550 total

Air-to-Air Fixed Wing: 122.750
Air-to-Air Informal: 123.450
Boulder CTAF: 122.725
Erie CTAF: 123.000
Front Range Tower: 120.200
KBKF Tower: 121.000
Longmont CTAF: 122.975
MULTICOM: 122.900
UNICOM: 122.950

KAAO CTAF/KBEC Twr
Wichita, Kansas, United States

Feed Status: DOWN
Offline since: 2022-07-21 02:31:39 UTC

KAAO 012354Z AUTO 23008KT 10SM CLR M01/M11 A3028 RMK AO2 SLP273 T10061111 10022 21006 53003

KAAO Airport Info (Airnav.com)

Beech Tower: 126.800
Jabara CTAF: 122.700

Boston App/Dep (North Sat) #1 (Archives)
Bedford, Massachusetts, United States

Feed Status: UP
Listen in your browser - HTML5 player(in browser, HTML5)
Click here to listen with your own player(launches your MP3 player)

KBED 012351Z 26004KT 10SM CLR M03/M15 A3022 RMK AO2 SLP251 T10331150 10006 21033 51015

KBED Airport Info (Airnav.com)

KBED Flight Activity (Flightaware)

Listeners: 0 out of 1550 total

Boston Approach (North Satellites, SFC-3500'): 124.400

Boston App/Dep (North Sat) #3 (Archives)
Bedford, Massachusetts, United States

Feed Status: UP
Listen in your browser - HTML5 player(in browser, HTML5)
Click here to listen with your own player(launches your MP3 player)

KBED 012351Z 26004KT 10SM CLR M03/M15 A3022 RMK AO2 SLP251 T10331150 10006 21033 51015

KBED Airport Info (Airnav.com)

KBED Flight Activity (Flightaware)

Listeners: 0 out of 1550 total

Boston Approach (North Satellites, SFC-3500'): 124.400

KBED ATIS #1 (Archives)
Bedford, Massachusetts, United States

Feed Status: UP
Listen in your browser - HTML5 player(in browser, HTML5)
Click here to listen with your own player(launches your MP3 player)

KBED 012351Z 26004KT 10SM CLR M03/M15 A3022 RMK AO2 SLP251 T10331150 10006 21033 51015

KBED Airport Info (Airnav.com)

KBED Flight Activity (Flightaware)

Listeners: 0 out of 1550 total

Hanscom ATIS: 124.600

KBED ATIS #2 (Archives)
Bedford, Massachusetts, United States

Feed Status: UP
Listen in your browser - HTML5 player(in browser, HTML5)
Click here to listen with your own player(launches your MP3 player)

KBED 012351Z 26004KT 10SM CLR M03/M15 A3022 RMK AO2 SLP251 T10331150 10006 21033 51015

KBED Airport Info (Airnav.com)

KBED Flight Activity (Flightaware)

Listeners: 0 out of 1550 total

Hanscom ATIS: 124.600

KBED Clearance Delivery (Archives)
Bedford, Massachusetts, United States

Feed Status: UP
Listen in your browser - HTML5 player(in browser, HTML5)
Click here to listen with your own player(launches your MP3 player)

KBED 012351Z 26004KT 10SM CLR M03/M15 A3022 RMK AO2 SLP251 T10331150 10006 21033 51015

KBED Airport Info (Airnav.com)

KBED Flight Activity (Flightaware)

Listeners: 0 out of 1550 total

Hanscom Clearance Delivery: 121.850

KBED Del/Gnd (Archives)
Bedford, Massachusetts, United States

Feed Status: UP
Listen in your browser - HTML5 player(in browser, HTML5)
Click here to listen with your own player(launches your MP3 player)

KBED 012351Z 26004KT 10SM CLR M03/M15 A3022 RMK AO2 SLP251 T10331150 10006 21033 51015

KBED Airport Info (Airnav.com)

KBED Flight Activity (Flightaware)

Listeners: 0 out of 1550 total

Hanscom Clearance Delivery: 121.850
Hanscom Ground: 121.700

KBED Gnd/Twr (Archives)
Bedford, Massachusetts, United States

Feed Status: UP
Listen in your browser - HTML5 player(in browser, HTML5)
Click here to listen with your own player(launches your MP3 player)

KBED 012351Z 26004KT 10SM CLR M03/M15 A3022 RMK AO2 SLP251 T10331150 10006 21033 51015

KBED Airport Info (Airnav.com)

KBED Flight Activity (Flightaware)

Listeners: 0 out of 1550 total

Hanscom Ground: 121.700
Hanscom Tower: 118.500

KBED Ground (Archives)
Bedford, Massachusetts, United States

Feed Status: UP
Listen in your browser - HTML5 player(in browser, HTML5)
Click here to listen with your own player(launches your MP3 player)

KBED 012351Z 26004KT 10SM CLR M03/M15 A3022 RMK AO2 SLP251 T10331150 10006 21033 51015

KBED Airport Info (Airnav.com)

KBED Flight Activity (Flightaware)

Listeners: 0 out of 1550 total

Hanscom Ground: 121.700

KBED Tower (Archives)
Bedford, Massachusetts, United States

Feed Status: UP
Listen in your browser - HTML5 player(in browser, HTML5)
Click here to listen with your own player(launches your MP3 player)

KBED 012351Z 26004KT 10SM CLR M03/M15 A3022 RMK AO2 SLP251 T10331150 10006 21033 51015

KBED Airport Info (Airnav.com)

KBED Flight Activity (Flightaware)

Listeners: 0 out of 1550 total

Hanscom Tower: 118.500

KBFI Ground/Tower (Archives)
Seattle, Washington, United States

Feed Status: UP
Listen in your browser - HTML5 player(in browser, HTML5)
Click here to listen with your own player(launches your MP3 player)

KBFI 012353Z 15005KT 10SM BKN160 09/M02 A3013 RMK AO2 SLP204 T00891022 10089 20033 55003

KBFI Airport Info (Airnav.com)

KBFI Flight Activity (Flightaware)

Listeners: 6 out of 1550 total

Boeing Ground: 121.900
Boeing Tower (Rwy 14L & 32R/VFR): 118.300
Boeing Tower (Rwy 14R/32L/IFR): 120.600
Emergency: 121.500

KBFM Ground/Tower
Mobile, Alabama, United States

Feed Status: DOWN
Offline since: 2023-01-11 18:12:05 UTC

KBFM 012353Z 01006KT 10SM OVC008 16/12 A3021 RMK AO2 SLP230 T01560117 10167 20144 53007

KBFM Airport Info (Airnav.com)

Downtown Ground: 121.700
Downtown Tower: 118.800

KBFM Tower (Archives)
Mobile, Alabama, United States

Feed Status: UP
Listen in your browser - HTML5 player(in browser, HTML5)
Click here to listen with your own player(launches your MP3 player)

KBFM 012353Z 01006KT 10SM OVC008 16/12 A3021 RMK AO2 SLP230 T01560117 10167 20144 53007

KBFM Airport Info (Airnav.com)

KBFM Flight Activity (Flightaware)

Listeners: 0 out of 1550 total

Downtown Tower: 118.800

KBGM Del/Gnd/Twr/App (Archives)
Binghamton, New York, United States

Feed Status: UP
Listen in your browser - HTML5 player(in browser, HTML5)
Click here to listen with your own player(launches your MP3 player)

KBGM 012353Z 29005KT 10SM CLR M07/M14 A3018 RMK AO2 SLP249 T10671144 11050 21072 53009

KBGM Airport Info (Airnav.com)

KBGM Flight Activity (Flightaware)

Listeners: 0 out of 1550 total

Binghamton Approach/Departure: 118.600
Binghamton Approach/Departure: 127.550
Binghamton Clearance Delivery: 125.050
Binghamton Ground: 121.900
Binghamton Tower: 119.300

KBID CTAF (Archives)
Block Island, Rhode Island, United States

Feed Status: UP
Listen in your browser - HTML5 player(in browser, HTML5)
Click here to listen with your own player(launches your MP3 player)

KBID 012356Z AUTO 27006KT 10SM FEW039 M01/M08 A3024 RMK AO2 SLP243 T10111078 10006 21017 51015 FZRANO

KBID Airport Info (Airnav.com)

KBID Flight Activity (Flightaware)

Listeners: 0 out of 1550 total

Block Island CTAF: 123.000

KBIS Twr/App (Archives)
Bismarck, North Dakota, United States

Feed Status: UP
Listen in your browser - HTML5 player(in browser, HTML5)
Click here to listen with your own player(launches your MP3 player)

KBIS 012352Z AUTO 17003KT 10SM CLR M06/M11 A2996 RMK AO2 SLP182 T10611111 11044 21083 56010

KBIS Airport Info (Airnav.com)

KBIS Flight Activity (Flightaware)

Listeners: 0 out of 1550 total

Bismarck Approach/Departure: 126.300
Bismarck Tower: 118.300

KBJC Ground/Tower (Archives)
Denver, Colorado, United States

Feed Status: UP
Listen in your browser - HTML5 player(in browser, HTML5)
Click here to listen with your own player(launches your MP3 player)

KBJC 012345Z 31005KT 10SM FEW100 04/M10 A3008

KBJC Airport Info (Airnav.com)

KBJC Flight Activity (Flightaware)

Listeners: 2 out of 1550 total

Metro Ground: 121.700
Metro Tower: 118.600
Metro Tower: 123.950

KBJI CTAF/ZMP (Archives)
Bemidji, Minnesota, United States

Feed Status: UP
Listen in your browser - HTML5 player(in browser, HTML5)
Click here to listen with your own player(launches your MP3 player)

KBJI 020015Z AUTO 27004KT 10SM CLR M13/M17 A2995 RMK AO2 T11311168

KBJI Airport Info (Airnav.com)

KBJI Flight Activity (Flightaware)

Listeners: 2 out of 1550 total

Bemidji CTAF: 122.800
Minneapolis Center (Sector 25 Low/High): 134.750

KBKF Tower (UHF)
Aurora, Colorado, United States

Feed Status: DOWN
Offline since: 2023-01-21 12:17:22 UTC

KBKF 012358Z 16008KT 10SM FEW090 FEW140 01/M10 A3006 RMK AO2A SLP206 4/002 T00091103 10055 20005 51009

KBKF Airport Info (Airnav.com)

Buckley Tower: 291.675

KBKF Tower (VHF)
Aurora, Colorado, United States

Feed Status: DOWN
Offline since: 2023-01-21 12:17:22 UTC

KBKF 012358Z 16008KT 10SM FEW090 FEW140 01/M10 A3006 RMK AO2A SLP206 4/002 T00091103 10055 20005 51009

KBKF Airport Info (Airnav.com)

Buckley Tower: 121.000

KBKF Tower (VHF/UHF)
Aurora, Colorado, United States

Feed Status: DOWN
Offline since: 2023-01-21 12:17:22 UTC

KBKF 012358Z 16008KT 10SM FEW090 FEW140 01/M10 A3006 RMK AO2A SLP206 4/002 T00091103 10055 20005 51009

KBKF Airport Info (Airnav.com)

Buckley Tower: 121.000
Buckley Tower: 291.675

KBKL Gnd/Twr/Misc (Archives)
Cleveland, Ohio, United States

Feed Status: UP
Listen in your browser - HTML5 player(in browser, HTML5)
Click here to listen with your own player(launches your MP3 player)

KBKL 012353Z 22008KT 10SM CLR M04/M11 A3030 RMK AO2 SLP270 T10391111 11033 21044 55005

KBKL Airport Info (Airnav.com)

KBKL Flight Activity (Flightaware)

Listeners: 0 out of 1550 total

Lakefront Area CTAF: 122.800
Lakefront Ground: 121.900
Lakefront Tower: 124.300
Lakefront UNICOM: 122.950

KBLI Tower (Archives)
Bellingham, Washington, United States

Feed Status: UP
Listen in your browser - HTML5 player(in browser, HTML5)
Click here to listen with your own player(launches your MP3 player)

KBLI 012353Z AUTO 01005KT 10SM OVC110 04/02 A3015 RMK AO2 SLP218 T00440022 10056 20022 55001

KBLI Airport Info (Airnav.com)

KBLI Flight Activity (Flightaware)

Listeners: 1 out of 1550 total

Bellingham Tower: 124.900

KBLM/N12/3N6/KMJX (Archives)
Belmar/Farmingdale, New Jersey, United States

Feed Status: UP
Listen in your browser - HTML5 player(in browser, HTML5)
Click here to listen with your own player(launches your MP3 player)

KBLM 012356Z AUTO 26006KT 10SM CLR A3028 RMK AO2 SLPNO 6//// 53014 FZRANO $

KBLM Airport Info (Airnav.com)

KBLM Flight Activity (Flightaware)

Listeners: 0 out of 1550 total

3N6 Old Bridge CTAF: 123.075
Emergency/Guard: 121.500
Monmouth Clearance: 120.950
Monmouth Clearance: 126.150
Monmouth CTAF: 123.000
N12 Lakewood CTAF: 122.800
Ocean County KMJX CTAF: 122.700

KBMG Approach/Departure (Archives)
Bloomington, Indiana, United States

Feed Status: UP
Listen in your browser - HTML5 player(in browser, HTML5)
Click here to listen with your own player(launches your MP3 player)

KBMG 012353Z 28004KT 10SM CLR M02/M13 A3032 RMK AO2 SLP280 T10171133 10006 21033 53004

KBMG Airport Info (Airnav.com)

KBMG Flight Activity (Flightaware)

Listeners: 0 out of 1550 total

Emergency/Guard: 121.500
Emergency/Guard: 243.000
Hulman Approach: 128.025

KBMG Tower (Archives)
Bloomington, Indiana, United States

Feed Status: UP
Listen in your browser - HTML5 player(in browser, HTML5)
Click here to listen with your own player(launches your MP3 player)

KBMG 012353Z 28004KT 10SM CLR M02/M13 A3032 RMK AO2 SLP280 T10171133 10006 21033 53004

KBMG Airport Info (Airnav.com)

KBMG Flight Activity (Flightaware)

Listeners: 0 out of 1550 total

Bloomington Tower: 120.775

KBMG Twr/App (Archives)
Bloomington, Indiana, United States

Feed Status: UP
Listen in your browser - HTML5 player(in browser, HTML5)
Click here to listen with your own player(launches your MP3 player)

KBMG 012353Z 28004KT 10SM CLR M02/M13 A3032 RMK AO2 SLP280 T10171133 10006 21033 53004

KBMG Airport Info (Airnav.com)

KBMG Flight Activity (Flightaware)

Listeners: 0 out of 1550 total

Bloomington Tower: 120.775
Emergency/Guard: 121.500
Emergency/Guard: 243.000
Hulman Approach: 128.025

KBMI App/Dep (Archives)
Bloomington/Normal, Illinois, United States

Feed Status: UP
Listen in your browser - HTML5 player(in browser, HTML5)
Click here to listen with your own player(launches your MP3 player)

KBMI 012356Z 20010KT 10SM CLR M04/M09 A3028 RMK AO2 SLP266 T10391089 10006 21039 58001

KBMI Airport Info (Airnav.com)

KBMI Flight Activity (Flightaware)

Listeners: 0 out of 1550 total

St. Louis Approach/Departure: 128.725

KBMI ATIS (Archives)
Bloomington/Normal, Illinois, United States

Feed Status: UP
Listen in your browser - HTML5 player(in browser, HTML5)
Click here to listen with your own player(launches your MP3 player)

KBMI 012356Z 20010KT 10SM CLR M04/M09 A3028 RMK AO2 SLP266 T10391089 10006 21039 58001

KBMI Airport Info (Airnav.com)

KBMI Flight Activity (Flightaware)

Listeners: 0 out of 1550 total

Bloomington ATIS: 135.350

KBMI Gnd/Twr/App (Archives)
Bloomington/Normal, Illinois, United States

Feed Status: UP
Listen in your browser - HTML5 player(in browser, HTML5)
Click here to listen with your own player(launches your MP3 player)

KBMI 012356Z 20010KT 10SM CLR M04/M09 A3028 RMK AO2 SLP266 T10391089 10006 21039 58001

KBMI Airport Info (Airnav.com)

KBMI Flight Activity (Flightaware)

Listeners: 0 out of 1550 total

Bloomington Ground: 121.650
Bloomington Tower: 124.600
St. Louis Approach/Departure: 128.725

KBMI Gnd/Twr/App/Dep (Archives)
Bloomington/Normal, Illinois, United States

Feed Status: UP
Listen in your browser - HTML5 player(in browser, HTML5)
Click here to listen with your own player(launches your MP3 player)

KBMI 012356Z 20010KT 10SM CLR M04/M09 A3028 RMK AO2 SLP266 T10391089 10006 21039 58001

KBMI Airport Info (Airnav.com)

KBMI Flight Activity (Flightaware)

Listeners: 0 out of 1550 total

Bloomington Ground: 121.650
Bloomington Tower: 124.600
St. Louis Approach/Departure: 128.725

KBOK/KCEC CTAF (Archives)
Brookings, Oregon, United States

Feed Status: UP
Listen in your browser - HTML5 player(in browser, HTML5)
Click here to listen with your own player(launches your MP3 player)

KBOK 012356Z AUTO 16009KT 10SM CLR 10/06 A3015 RMK AO2 SLP214 T01000061 10117 20083 55003

KBOK Airport Info (Airnav.com)

KBOK Flight Activity (Flightaware)

Listeners: 0 out of 1550 total

Brookings/Crescent City CTAF: 122.800

KBOW AWOS (Archives)
Bartow, Florida, United States

Feed Status: UP
Listen in your browser - HTML5 player(in browser, HTML5)
Click here to listen with your own player(launches your MP3 player)



KBOW Airport Info (Airnav.com)

KBOW Flight Activity (Flightaware)

Listeners: 0 out of 1550 total

Bartow AWOS: 123.775

KBOW Gnd/Twr/Misc (Archives)
Bartow, Florida, United States

Feed Status: UP
Listen in your browser - HTML5 player(in browser, HTML5)
Click here to listen with your own player(launches your MP3 player)



KBOW Airport Info (Airnav.com)

KBOW Flight Activity (Flightaware)

Listeners: 0 out of 1550 total

Bartow Ground: 121.900
Bartow Tower: 121.200
Bartow UNICOM: 122.950
Emergency/Guard: 121.500

KBOW Gnd/UNICOM/Guard (Archives)
Bartow, Florida, United States

Feed Status: UP
Listen in your browser - HTML5 player(in browser, HTML5)
Click here to listen with your own player(launches your MP3 player)



KBOW Airport Info (Airnav.com)

KBOW Flight Activity (Flightaware)

Listeners: 0 out of 1550 total

Bartow Ground: 121.900
Bartow UNICOM: 122.950
Emergency/Guard: 121.500

KBOW Tower/CTAF (Archives)
Bartow, Florida, United States

Feed Status: UP
Listen in your browser - HTML5 player(in browser, HTML5)
Click here to listen with your own player(launches your MP3 player)



KBOW Airport Info (Airnav.com)

KBOW Flight Activity (Flightaware)

Listeners: 0 out of 1550 total

Bartow Tower: 121.200

KBPK CTAF (Archives)
Mountain Home, Arkansas, United States

Feed Status: UP
Listen in your browser - HTML5 player(in browser, HTML5)
Click here to listen with your own player(launches your MP3 player)

KBPK 012353Z AUTO 00000KT 10SM FEW120 M02/M10 A3030 RMK AO2 SLP269 60000 T10171100 11006 21028 58001

KBPK Airport Info (Airnav.com)

KBPK Flight Activity (Flightaware)

Listeners: 0 out of 1550 total

Baxter County CTAF: 123.000

KBTL/KAZO Gnd/Twr/App (Archives)
Battle Creek, Michigan, United States

Feed Status: UP
Listen in your browser - HTML5 player(in browser, HTML5)
Click here to listen with your own player(launches your MP3 player)

KBTL Airport Info (Airnav.com)

KBTL Flight Activity (Flightaware)

Listeners: 0 out of 1550 total

Battle Creek Ground: 121.700
Battle Creek Tower: 126.825
Kalamazoo Approach/Departure: 119.200
Kalamazoo Ground: 121.900
Kalamazoo Tower: 118.300

KWHP/KVNY/KBUR App/Dep (Archives)
Burbank, California, United States

Feed Status: UP
Listen in your browser - HTML5 player(in browser, HTML5)
Click here to listen with your own player(launches your MP3 player)

KWHP 012353Z 10005KT 10SM SKC 19/M11 A3015

KWHP Airport Info (Airnav.com)

KWHP Flight Activity (Flightaware)

Listeners: 1 out of 1550 total

SOCAL App (Glendale Sector): 135.050
SOCAL App (Valley Sector): 124.600
SOCAL Approach (Fillmore Sector): 120.400
SOCAL Approach (Moorpark Sector): 128.750
SOCAL Approach (Woodland Sector): 134.200

3CK/KBUU CTAF
Burlington, Wisconsin, United States

Feed Status: DOWN
Offline since: 2022-08-25 16:52:15 UTC

K3CK Airport Info (Airnav.com)

Lake in the Hills CTAF: 123.050

KBUY CTAF (Archives)
Burlington, North Carolina, United States

Feed Status: UP
Listen in your browser - HTML5 player(in browser, HTML5)
Click here to listen with your own player(launches your MP3 player)

KBUY 020000Z AUTO 06005KT 10SM BKN014 OVC040 04/02 A3027 RMK AO2 T00440022

KBUY Airport Info (Airnav.com)

KBUY Flight Activity (Flightaware)

Listeners: 0 out of 1550 total

Burlington CTAF: 122.975

KBVI ATIS (Archives)
Beaver Falls, Pennsylvania, United States

Feed Status: UP
Listen in your browser - HTML5 player(in browser, HTML5)
Click here to listen with your own player(launches your MP3 player)

KBVI 020015Z AUTO 26004KT 10SM CLR M04/M14 A3028 RMK AO2 T10421137

KBVI Airport Info (Airnav.com)

KBVI Flight Activity (Flightaware)

Listeners: 0 out of 1550 total

Beaver County ATIS: 118.350

KBVI Ground (Archives)
Beaver Falls, Pennsylvania, United States

Feed Status: UP
Listen in your browser - HTML5 player(in browser, HTML5)
Click here to listen with your own player(launches your MP3 player)

KBVI 020015Z AUTO 26004KT 10SM CLR M04/M14 A3028 RMK AO2 T10421137

KBVI Airport Info (Airnav.com)

KBVI Flight Activity (Flightaware)

Listeners: 0 out of 1550 total

Beaver County Clearance (when Tower closed): 124.850
Beaver County Ground: 121.800

KBVI Ground/Tower (Archives)
Beaver Falls, Pennsylvania, United States

Feed Status: UP
Listen in your browser - HTML5 player(in browser, HTML5)
Click here to listen with your own player(launches your MP3 player)

KBVI 020015Z AUTO 26004KT 10SM CLR M04/M14 A3028 RMK AO2 T10421137

KBVI Airport Info (Airnav.com)

KBVI Flight Activity (Flightaware)

Listeners: 0 out of 1550 total

Beaver County Clearance (when Tower closed): 124.850
Beaver County Ground: 121.800
Beaver County Tower: 120.300

KBVI Tower #1 (Archives)
Beaver Falls, Pennsylvania, United States

Feed Status: UP
Listen in your browser - HTML5 player(in browser, HTML5)
Click here to listen with your own player(launches your MP3 player)

KBVI 020015Z AUTO 26004KT 10SM CLR M04/M14 A3028 RMK AO2 T10421137

KBVI Airport Info (Airnav.com)

KBVI Flight Activity (Flightaware)

Listeners: 0 out of 1550 total

Beaver County Tower: 120.300

KBVI Tower #1 (Archives)
Beaver Falls, Pennsylvania, United States

Feed Status: UP
Listen in your browser - HTML5 player(in browser, HTML5)
Click here to listen with your own player(launches your MP3 player)

KBVI 020015Z AUTO 26004KT 10SM CLR M04/M14 A3028 RMK AO2 T10421137

KBVI Airport Info (Airnav.com)

KBVI Flight Activity (Flightaware)

Listeners: 0 out of 1550 total

Beaver County Tower: 120.300

KBVI Tower #2 (Archives)
Beaver Falls, Pennsylvania, United States

Feed Status: UP
Listen in your browser - HTML5 player(in browser, HTML5)
Click here to listen with your own player(launches your MP3 player)

KBVI 020015Z AUTO 26004KT 10SM CLR M04/M14 A3028 RMK AO2 T10421137

KBVI Airport Info (Airnav.com)

KBVI Flight Activity (Flightaware)

Listeners: 0 out of 1550 total

Beaver County Tower: 120.300

KBVY Ground (Archives)
Beverly, Massachusetts, United States

Feed Status: UP
Listen in your browser - HTML5 player(in browser, HTML5)
Click here to listen with your own player(launches your MP3 player)

KBVY 012353Z 00000KT 10SM CLR M06/M13 A3022 RMK AO2 SLP233 T10561128 11011 21061 51013

KBVY Airport Info (Airnav.com)

KBVY Flight Activity (Flightaware)

Listeners: 0 out of 1550 total

Beverly Ground: 121.600

KBVY Tower #1 (Archives)
Beverly, Massachusetts, United States

Feed Status: UP
Listen in your browser - HTML5 player(in browser, HTML5)
Click here to listen with your own player(launches your MP3 player)

KBVY 012353Z 00000KT 10SM CLR M06/M13 A3022 RMK AO2 SLP233 T10561128 11011 21061 51013

KBVY Airport Info (Airnav.com)

KBVY Flight Activity (Flightaware)

Listeners: 0 out of 1550 total

Beverly Tower: 125.200

KBVY Tower #2 (Archives)
Beverly, Massachusetts, United States

Feed Status: UP
Listen in your browser - HTML5 player(in browser, HTML5)
Click here to listen with your own player(launches your MP3 player)

KBVY 012353Z 00000KT 10SM CLR M06/M13 A3022 RMK AO2 SLP233 T10561128 11011 21061 51013

KBVY Airport Info (Airnav.com)

KBVY Flight Activity (Flightaware)

Listeners: 0 out of 1550 total

Beverly Tower: 125.200

KBXK CTAF (Archives)
Buckeye, Arizona, United States

Feed Status: UP
Listen in your browser - HTML5 player(in browser, HTML5)
Click here to listen with your own player(launches your MP3 player)

KBXK 020015Z AUTO 27009KT 10SM CLR 17/00 A3008 RMK A01

KBXK Airport Info (Airnav.com)

KBXK Flight Activity (Flightaware)

Listeners: 0 out of 1550 total

Buckeye CTAF: 122.975

KBXM CTAF/AWOS (Archives)
Brunswick, Maine, United States

Feed Status: UP
Listen in your browser - HTML5 player(in browser, HTML5)
Click here to listen with your own player(launches your MP3 player)

KBXM Airport Info (Airnav.com)

KBXM Flight Activity (Flightaware)

Listeners: 0 out of 1550 total

Brunswick CTAF/UNICOM: 122.725
KBXM AWOS: 134.875

KBZN App/Dep (Archives)
Bozeman, Montana, United States

Feed Status: UP
Listen in your browser - HTML5 player(in browser, HTML5)
Click here to listen with your own player(launches your MP3 player)

KBZN 012356Z 00000KT 10SM FEW060 OVC085 M01/M06 A3009 RMK AO2 SLP241 T10061056 10006 21056 53005

KBZN Airport Info (Airnav.com)

KBZN Flight Activity (Flightaware)

Listeners: 0 out of 1550 total

Big Sky Approach/Departure: 118.975

KBZN Ground (Archives)
Bozeman, Montana, United States

Feed Status: UP
Listen in your browser - HTML5 player(in browser, HTML5)
Click here to listen with your own player(launches your MP3 player)

KBZN 012356Z 00000KT 10SM FEW060 OVC085 M01/M06 A3009 RMK AO2 SLP241 T10061056 10006 21056 53005

KBZN Airport Info (Airnav.com)

KBZN Flight Activity (Flightaware)

Listeners: 0 out of 1550 total

Bozeman Ground: 121.800

KBZN Tower (Archives)
Bozeman, Montana, United States

Feed Status: UP
Listen in your browser - HTML5 player(in browser, HTML5)
Click here to listen with your own player(launches your MP3 player)

KBZN 012356Z 00000KT 10SM FEW060 OVC085 M01/M06 A3009 RMK AO2 SLP241 T10061056 10006 21056 53005

KBZN Airport Info (Airnav.com)

KBZN Flight Activity (Flightaware)

Listeners: 0 out of 1550 total

Bozeman Tower/CTAF: 118.200

KCCB CTAF
Upland, California, United States

Feed Status: DOWN
Offline since: 2023-01-26 16:00:04 UTC

KCCB 020015Z AUTO 28006KT 10SM CLR 18/M14 A3014 RMK AO2

KCCB Airport Info (Airnav.com)

Upland CTAF: 123.000

KATL Approach (South Sat) (Archives)
Atlanta, Georgia, United States

Feed Status: UP
Listen in your browser - HTML5 player(in browser, HTML5)
Click here to listen with your own player(launches your MP3 player)

KCCO 020015Z AUTO 00000KT 10SM OVC014 14/11 A3021 RMK AO2 T01360106

KCCO Airport Info (Airnav.com)

KCCO Flight Activity (Flightaware)

Listeners: 0 out of 1550 total

Atlanta Approach (SW Satellite): 119.800

KCCO Area Air-to-Air (Archives)
Atlanta, Georgia, United States

Feed Status: UP
Listen in your browser - HTML5 player(in browser, HTML5)
Click here to listen with your own player(launches your MP3 player)

KCCO 020015Z AUTO 00000KT 10SM OVC014 14/11 A3021 RMK AO2 T01360106

KCCO Airport Info (Airnav.com)

KCCO Flight Activity (Flightaware)

Listeners: 0 out of 1550 total

Newnan Area Air to Air: 123.450

KCCO AWOS (Archives)
Atlanta, Georgia, United States

Feed Status: UP
Listen in your browser - HTML5 player(in browser, HTML5)
Click here to listen with your own player(launches your MP3 player)

KCCO 020015Z AUTO 00000KT 10SM OVC014 14/11 A3021 RMK AO2 T01360106

KCCO Airport Info (Airnav.com)

KCCO Flight Activity (Flightaware)

Listeners: 0 out of 1550 total

Newnan AWOS: 118.975

KCCO CTAF (Archives)
Atlanta, Georgia, United States

Feed Status: UP
Listen in your browser - HTML5 player(in browser, HTML5)
Click here to listen with your own player(launches your MP3 player)

KCCO 020015Z AUTO 00000KT 10SM OVC014 14/11 A3021 RMK AO2 T01360106

KCCO Airport Info (Airnav.com)

KCCO Flight Activity (Flightaware)

Listeners: 0 out of 1550 total

Emergency/Guard: 121.500
Flight School Company Channel: 123.300
Newnan CTAF: 122.700

KCCO Emergency/Guard (Archives)
Atlanta, Georgia, United States

Feed Status: UP
Listen in your browser - HTML5 player(in browser, HTML5)
Click here to listen with your own player(launches your MP3 player)

KCCO 020015Z AUTO 00000KT 10SM OVC014 14/11 A3021 RMK AO2 T01360106

KCCO Airport Info (Airnav.com)

KCCO Flight Activity (Flightaware)

Listeners: 0 out of 1550 total

Emergency/Guard: 121.500

KCCR Gnd/Twr (Archives)
Concord, California, United States

Feed Status: UP
Listen in your browser - HTML5 player(in browser, HTML5)
Click here to listen with your own player(launches your MP3 player)

KCCR 012353Z 05006KT 10SM CLR 13/03 A3019 RMK AO2 SLP210 T01280028 10133 20067 56007

KCCR Airport Info (Airnav.com)

KCCR Flight Activity (Flightaware)

Listeners: 0 out of 1550 total

Concord Ground: 121.900
Concord Tower: 119.700

KCDC ASOS (Archives)
Cedar City, Utah, United States

Feed Status: UP
Listen in your browser - HTML5 player(in browser, HTML5)
Click here to listen with your own player(launches your MP3 player)

KCDC 012353Z AUTO 35004KT 10SM CLR M01/M11 A3026 RMK AO2 SLP297 T10111111 11006 21078 53004

KCDC Airport Info (Airnav.com)

KCDC Flight Activity (Flightaware)

Listeners: 0 out of 1550 total

Cedar City ASOS: 119.025

KCDC CTAF #1 (Archives)
Cedar City, Utah, United States

Feed Status: UP
Listen in your browser - HTML5 player(in browser, HTML5)
Click here to listen with your own player(launches your MP3 player)

KCDC 012353Z AUTO 35004KT 10SM CLR M01/M11 A3026 RMK AO2 SLP297 T10111111 11006 21078 53004

KCDC Airport Info (Airnav.com)

KCDC Flight Activity (Flightaware)

Listeners: 0 out of 1550 total

Cedar City CTAF: 123.000

KCDC Guard (Archives)
Cedar City, Utah, United States

Feed Status: UP
Listen in your browser - HTML5 player(in browser, HTML5)
Click here to listen with your own player(launches your MP3 player)

KCDC 012353Z AUTO 35004KT 10SM CLR M01/M11 A3026 RMK AO2 SLP297 T10111111 11006 21078 53004

KCDC Airport Info (Airnav.com)

KCDC Flight Activity (Flightaware)

Listeners: 0 out of 1550 total

Emergency/Guard: 121.500

KCDC T-Bird Dispatch (Archives)
Cedar City, Utah, United States

Feed Status: UP
Listen in your browser - HTML5 player(in browser, HTML5)
Click here to listen with your own player(launches your MP3 player)

KCDC 012353Z AUTO 35004KT 10SM CLR M01/M11 A3026 RMK AO2 SLP297 T10111111 11006 21078 53004

KCDC Airport Info (Airnav.com)

KCDC Flight Activity (Flightaware)

Listeners: 0 out of 1550 total

SUU Aviation T-Bird Traffic (Dispatch): 123.500

KCDW Del/Gnd/Twr (Archives)
Caldwell, New Jersey, United States

Feed Status: UP
Listen in your browser - HTML5 player(in browser, HTML5)
Click here to listen with your own player(launches your MP3 player)

KCDW 012353Z 34004KT 10SM CLR 00/M15 A3027 RMK AO2 SLP258 T00001150 10033 20000 53017

KCDW Airport Info (Airnav.com)

KCDW Flight Activity (Flightaware)

Listeners: 1 out of 1550 total

Caldwell Clearance: 121.100
Caldwell Ground: 121.900
Caldwell Tower: 119.800

KBOK/KCEC CTAF (Archives)
Crescent City, California, United States

Feed Status: UP
Listen in your browser - HTML5 player(in browser, HTML5)
Click here to listen with your own player(launches your MP3 player)

KBOK 012356Z AUTO 16009KT 10SM CLR 10/06 A3015 RMK AO2 SLP214 T01000061 10117 20083 55003

KBOK Airport Info (Airnav.com)

KBOK Flight Activity (Flightaware)

Listeners: 0 out of 1550 total

Brookings/Crescent City CTAF: 122.800

KCEU CTAF/App
Clemson, South Carolina, United States

Feed Status: DOWN
Offline since: 2019-10-13 21:53:39 UTC

KCEU Airport Info (Airnav.com)

CTAF: 122.700
Greer Approach/Departure: 118.800

KCEZ CTAF/ZDV
Cortez, Colorado, United States

Feed Status: DOWN
Offline since: 2023-02-01 07:01:05 UTC

KCEZ 012353Z AUTO 29005KT 10SM CLR 01/M12 A3019 RMK AO2 SLP267 T00061117 10011 21061 53003

KCEZ Airport Info (Airnav.com)

Cortez CTAF: 122.800
Denver Center (Sector 36 Farmington Low): 118.575
Emergency/Guard: 121.500

KCFD CTAF/App
Bryan, Texas, United States

Feed Status: DOWN
Offline since: 2023-01-24 21:58:05 UTC

KCFD 020015Z AUTO 33008G14KT 5SM BR OVC005 01/01 A3030 RMK AO2 T00060005

KCFD Airport Info (Airnav.com)

Bryan CTAF/UNICOM: 123.000
Houston Approach/Departure: 134.300

KCFJ CTAF (Archives)
Crawfordsville, Indiana, United States

Feed Status: UP
Listen in your browser - HTML5 player(in browser, HTML5)
Click here to listen with your own player(launches your MP3 player)

KCFJ 020015Z AUTO 21005KT 10SM M05/M14 A3032 RMK AO2 T10501143

KCFJ Airport Info (Airnav.com)

KCFJ Flight Activity (Flightaware)

Listeners: 0 out of 1550 total

Crawfordsville CTAF: 122.800

KCFJ Emergency/Guard (Archives)
Crawfordsville, Indiana, United States

Feed Status: UP
Listen in your browser - HTML5 player(in browser, HTML5)
Click here to listen with your own player(launches your MP3 player)

KCFJ 020015Z AUTO 21005KT 10SM M05/M14 A3032 RMK AO2 T10501143

KCFJ Airport Info (Airnav.com)

KCFJ Flight Activity (Flightaware)

Listeners: 0 out of 1550 total

Emergency/Guard: 121.500

KCFO/KEIK/KBDU/KLMO/Misc (Archives)
Denver, Colorado, United States

Feed Status: UP
Listen in your browser - HTML5 player(in browser, HTML5)
Click here to listen with your own player(launches your MP3 player)

KDEN 012353Z 17010KT 10SM FEW100 FEW150 M02/M09 A3007 RMK AO2 SLP218 T10221094 10050 21022 51010

KDEN Airport Info (Airnav.com)

KDEN Flight Activity (Flightaware)

Listeners: 0 out of 1550 total

Air-to-Air Fixed Wing: 122.750
Air-to-Air Informal: 123.450
Boulder CTAF: 122.725
Erie CTAF: 123.000
Front Range Tower: 120.200
KBKF Tower: 121.000
Longmont CTAF: 122.975
MULTICOM: 122.900
UNICOM: 122.950

KCGZ AWOS (Archives)
Casa Grande, Arizona, United States

Feed Status: UP
Listen in your browser - HTML5 player(in browser, HTML5)
Click here to listen with your own player(launches your MP3 player)

KCGZ 012356Z AUTO 27010KT 10SM CLR 17/01 A3006 RMK AO2 SLP181 6//// T01670006 10172 20072 53004

KCGZ Airport Info (Airnav.com)

KCGZ Flight Activity (Flightaware)

Listeners: 0 out of 1550 total

Casa Grande AWOS: 132.175

KCGZ CTAF (Archives)
Casa Grande, Arizona, United States

Feed Status: UP
Listen in your browser - HTML5 player(in browser, HTML5)
Click here to listen with your own player(launches your MP3 player)

KCGZ 012356Z AUTO 27010KT 10SM CLR 17/01 A3006 RMK AO2 SLP181 6//// T01670006 10172 20072 53004

KCGZ Airport Info (Airnav.com)

KCGZ Flight Activity (Flightaware)

Listeners: 0 out of 1550 total

Casa Grande CTAF: 122.700

KCGZ SE/SW Practice Area (Archives)
Casa Grande, Arizona, United States

Feed Status: UP
Listen in your browser - HTML5 player(in browser, HTML5)
Click here to listen with your own player(launches your MP3 player)

KCGZ 012356Z AUTO 27010KT 10SM CLR 17/01 A3006 RMK AO2 SLP181 6//// T01670006 10172 20072 53004

KCGZ Airport Info (Airnav.com)

KCGZ Flight Activity (Flightaware)

Listeners: 0 out of 1550 total

Casa Grande SE Practice Area: 122.850

KCHD Tower (North) (Archives)
Chandler, Arizona, United States

Feed Status: UP
Listen in your browser - HTML5 player(in browser, HTML5)
Click here to listen with your own player(launches your MP3 player)

KCHD 012357Z 27008G13KT 10SM CLR 19/M03 A3005

KCHD Airport Info (Airnav.com)

KCHD Flight Activity (Flightaware)

Listeners: 0 out of 1550 total

Chandler Tower (North): 126.100

KCHD Tower (South) (Archives)
Chandler, Arizona, United States

Feed Status: UP
Listen in your browser - HTML5 player(in browser, HTML5)
Click here to listen with your own player(launches your MP3 player)

KCHD 012357Z 27008G13KT 10SM CLR 19/M03 A3005

KCHD Airport Info (Airnav.com)

KCHD Flight Activity (Flightaware)

Listeners: 2 out of 1550 total

Chandler Tower (South): 133.100

KCHK CTAF
Chickasha, Oklahoma, United States

Feed Status: DOWN
Offline since: 2022-06-08 19:17:05 UTC

KCHK 020015Z AUTO 00000KT 10SM SCT120 M02/M11 A3027 RMK AO2 T10161112

KCHK Airport Info (Airnav.com)

Chickasha CTAF: 123.000

KCHO Tower (Archives)
Charlottesville, Virginia, United States

Feed Status: UP
Listen in your browser - HTML5 player(in browser, HTML5)
Click here to listen with your own player(launches your MP3 player)

KCHO 012353Z 00000KT 9SM FEW011 01/M02 A3029 RMK AO2 SLP260 T00111022 10039 20011 53007

KCHO Airport Info (Airnav.com)

KCHO Flight Activity (Flightaware)

Listeners: 0 out of 1550 total

Charlottesville Tower: 124.500

KCHO Tower/App (Archives)
Charlottesville, Virginia, United States

Feed Status: UP
Listen in your browser - HTML5 player(in browser, HTML5)
Click here to listen with your own player(launches your MP3 player)

KCHO 012353Z 00000KT 9SM FEW011 01/M02 A3029 RMK AO2 SLP260 T00111022 10039 20011 53007

KCHO Airport Info (Airnav.com)

KCHO Flight Activity (Flightaware)

Listeners: 0 out of 1550 total

Charlottesville Tower: 124.500
Potomac Approach/Departure: 132.850

KCIC Tower/ZOA42 (Archives)
Chico, California, United States

Feed Status: UP
Listen in your browser - HTML5 player(in browser, HTML5)
Click here to listen with your own player(launches your MP3 player)

KCIC 012347Z 00000KT 10SM CLR 13/00 A3021

KCIC Airport Info (Airnav.com)

KCIC Flight Activity (Flightaware)

Listeners: 2 out of 1550 total

Chico CTAF/Tower: 121.000
Oakland Center (Sector 42 Low): 132.200

KCID Gnd/Twr/App/KIOW (Archives)
Cedar Rapids, Iowa, United States

Feed Status: UP
Listen in your browser - HTML5 player(in browser, HTML5)
Click here to listen with your own player(launches your MP3 player)

KCID 012352Z 18005KT 10SM CLR M03/M10 A3016 RMK AO2 SLP230 T10331100 11006 21050 58003

KCID Airport Info (Airnav.com)

KCID Flight Activity (Flightaware)

Listeners: 0 out of 1550 total

Cedar Rapids Approach (091-269): 119.700
Cedar Rapids Approach (270-090): 134.050
Cedar Rapids Clearance Delivery: 125.450
Cedar Rapids Ground (0500-2330): 121.600
Cedar Rapids Tower (0500-2330): 118.700
UNICOM C17 (Marion) and surrounding area: 122.700
UNICOM IA24 Green Castle: 122.900
UNICOM KIOW (Iowa City) and surrounding area: 122.800

KCIU CTAF (Air Race Classic)
Sault Ste Marie, Michigan, United States

Feed Status: DOWN
Offline since: 2019-06-24 17:12:02 UTC

Chippewa CTAF: 123.000

KCKB App/Dep (Archives)
Clarksburg, West Virginia, United States

Feed Status: UP
Listen in your browser - HTML5 player(in browser, HTML5)
Click here to listen with your own player(launches your MP3 player)

KCKB 012353Z AUTO 19005KT 10SM CLR M01/M08 A3029 RMK AO2 SLP268 T10111078 10011 21011 53002

KCKB Airport Info (Airnav.com)

KCKB Flight Activity (Flightaware)

Listeners: 0 out of 1550 total

Clarksburg Approach (East): 121.150
Clarksburg Approach (West): 119.600

KCKB App/Dep (East) (Archives)
Clarksburg, West Virginia, United States

Feed Status: UP
Listen in your browser - HTML5 player(in browser, HTML5)
Click here to listen with your own player(launches your MP3 player)

KCKB 012353Z AUTO 19005KT 10SM CLR M01/M08 A3029 RMK AO2 SLP268 T10111078 10011 21011 53002

KCKB Airport Info (Airnav.com)

KCKB Flight Activity (Flightaware)

Listeners: 0 out of 1550 total

Clarksburg Approach (East): 121.150

KCKB App/Dep (West) (Archives)
Clarksburg, West Virginia, United States

Feed Status: UP
Listen in your browser - HTML5 player(in browser, HTML5)
Click here to listen with your own player(launches your MP3 player)

KCKB 012353Z AUTO 19005KT 10SM CLR M01/M08 A3029 RMK AO2 SLP268 T10111078 10011 21011 53002

KCKB Airport Info (Airnav.com)

KCKB Flight Activity (Flightaware)

Listeners: 0 out of 1550 total

Clarksburg Approach (West): 119.600

KCKB Emergency/Guard (Archives)
Clarksburg, West Virginia, United States

Feed Status: UP
Listen in your browser - HTML5 player(in browser, HTML5)
Click here to listen with your own player(launches your MP3 player)

KCKB 012353Z AUTO 19005KT 10SM CLR M01/M08 A3029 RMK AO2 SLP268 T10111078 10011 21011 53002

KCKB Airport Info (Airnav.com)

KCKB Flight Activity (Flightaware)

Listeners: 0 out of 1550 total

Emergency/Guard: 121.500

KCKB Ground (Archives)
Clarksburg, West Virginia, United States

Feed Status: UP
Listen in your browser - HTML5 player(in browser, HTML5)
Click here to listen with your own player(launches your MP3 player)

KCKB 012353Z AUTO 19005KT 10SM CLR M01/M08 A3029 RMK AO2 SLP268 T10111078 10011 21011 53002

KCKB Airport Info (Airnav.com)

KCKB Flight Activity (Flightaware)

Listeners: 0 out of 1550 total

Clarksburg Ground: 121.900

KCKB Ground/Tower (Archives)
Clarksburg, West Virginia, United States

Feed Status: UP
Listen in your browser - HTML5 player(in browser, HTML5)
Click here to listen with your own player(launches your MP3 player)

KCKB 012353Z AUTO 19005KT 10SM CLR M01/M08 A3029 RMK AO2 SLP268 T10111078 10011 21011 53002

KCKB Airport Info (Airnav.com)

KCKB Flight Activity (Flightaware)

Listeners: 0 out of 1550 total

Clarksburg Ground: 121.900
Clarksburg Tower: 126.700

KCKB Tower (Archives)
Clarksburg, West Virginia, United States

Feed Status: UP
Listen in your browser - HTML5 player(in browser, HTML5)
Click here to listen with your own player(launches your MP3 player)

KCKB 012353Z AUTO 19005KT 10SM CLR M01/M08 A3029 RMK AO2 SLP268 T10111078 10011 21011 53002

KCKB Airport Info (Airnav.com)

KCKB Flight Activity (Flightaware)

Listeners: 0 out of 1550 total

Clarksburg Tower: 126.700

KCLM Del/CTAF/App
Port Angeles, Washington, United States

Feed Status: DOWN
Offline since: 2022-08-12 03:55:05 UTC

KCLM 012353Z AUTO 33004KT 10SM CLR 07/01 A3014 RMK AO2 SLP209 T00670006 10072 20039 53003

KCLM Airport Info (Airnav.com)

Clearance Delivery: 124.150
Fairchild CTAF: 122.975
Seattle Radio (Port Angeles RCO): 122.600
Whidbey Approach: 118.200

KCMA App/Dep (Mugu App) (Archives)
Camarillo, California, United States

Feed Status: UP
Listen in your browser - HTML5 player(in browser, HTML5)
Click here to listen with your own player(launches your MP3 player)

KCMA 012355Z 27011KT 10SM CLR 17/02 A3014 RMK AO2 SLP215 T01670022 10217 20167 53005

KCMA Airport Info (Airnav.com)

KCMA Flight Activity (Flightaware)

Listeners: 0 out of 1550 total

Point Mugu Approach: 123.750
Point Mugu Approach: 124.700

KCMA ATIS (Archives)
Camarillo, California, United States

Feed Status: UP
Listen in your browser - HTML5 player(in browser, HTML5)
Click here to listen with your own player(launches your MP3 player)

KCMA 012355Z 27011KT 10SM CLR 17/02 A3014 RMK AO2 SLP215 T01670022 10217 20167 53005

KCMA Airport Info (Airnav.com)

KCMA Flight Activity (Flightaware)

Listeners: 0 out of 1550 total

Camarillo ATIS: 126.025

KCMA Ground/Tower (Archives)
Camarillo, California, United States

Feed Status: UP
Listen in your browser - HTML5 player(in browser, HTML5)
Click here to listen with your own player(launches your MP3 player)

KCMA 012355Z 27011KT 10SM CLR 17/02 A3014 RMK AO2 SLP215 T01670022 10217 20167 53005

KCMA Airport Info (Airnav.com)

KCMA Flight Activity (Flightaware)

Listeners: 2 out of 1550 total

Camarillo Ground: 121.800
Camarillo Tower: 128.200

KWDR/KCVC/KCNI CTAF (Archives)
Canton, Georgia, United States

Feed Status: UP
Listen in your browser - HTML5 player(in browser, HTML5)
Click here to listen with your own player(launches your MP3 player)

KWDR 020015Z AUTO 00000KT 10SM OVC023 13/08 A3022 RMK AO2

KWDR Airport Info (Airnav.com)

KWDR Flight Activity (Flightaware)

Listeners: 0 out of 1550 total

KWDR/KCVC/KCNI CTAF: 123.000

KCNO Ground (Archives)
Chino, California, United States

Feed Status: UP
Listen in your browser - HTML5 player(in browser, HTML5)
Click here to listen with your own player(launches your MP3 player)

KCNO 012353Z 22006KT 10SM FEW100 18/M07 A3014 RMK AO2 SLP205 T01831067 10200 20133 53002

KCNO Airport Info (Airnav.com)

KCNO Flight Activity (Flightaware)

Listeners: 0 out of 1550 total

Chino Ground: 121.600

KCNO Ground/Tower (Archives)
Chino, California, United States

Feed Status: UP
Listen in your browser - HTML5 player(in browser, HTML5)
Click here to listen with your own player(launches your MP3 player)

KCNO 012353Z 22006KT 10SM FEW100 18/M07 A3014 RMK AO2 SLP205 T01831067 10200 20133 53002

KCNO Airport Info (Airnav.com)

KCNO Flight Activity (Flightaware)

Listeners: 0 out of 1550 total

Chino Ground: 121.600
Chino Tower: 118.500

KCNO Tower (Archives)
Chino, California, United States

Feed Status: UP
Listen in your browser - HTML5 player(in browser, HTML5)
Click here to listen with your own player(launches your MP3 player)

KCNO 012353Z 22006KT 10SM FEW100 18/M07 A3014 RMK AO2 SLP205 T01831067 10200 20133 53002

KCNO Airport Info (Airnav.com)

KCNO Flight Activity (Flightaware)

Listeners: 0 out of 1550 total

Chino Tower: 118.500

KCOE CTAF (Archives)
Coeur d'Alene, Idaho, United States

Feed Status: UP
Listen in your browser - HTML5 player(in browser, HTML5)
Click here to listen with your own player(launches your MP3 player)

KCOE 012356Z AUTO 05005KT 10SM CLR 00/M04 A3014 RMK AO2 SLP252 6//// T00001039 10022 21033 53001 FZRANO PNO $

KCOE Airport Info (Airnav.com)

KCOE Flight Activity (Flightaware)

Listeners: 0 out of 1550 total

Coeur d'Alene CTAF: 122.800

KCOE FSS (Archives)
Coeur d'Alene, Idaho, United States

Feed Status: UP
Listen in your browser - HTML5 player(in browser, HTML5)
Click here to listen with your own player(launches your MP3 player)

KCOE 012356Z AUTO 05005KT 10SM CLR 00/M04 A3014 RMK AO2 SLP252 6//// T00001039 10022 21033 53001 FZRANO PNO $

KCOE Airport Info (Airnav.com)

KCOE Flight Activity (Flightaware)

Listeners: 0 out of 1550 total

Flight Service: 122.550
Flight Service: 122.650
Flight Service: 122.000
Flight Service: 122.050

KCON/KDAW/KFIT CTAF (Archives)
Concord, New Hampshire, United States

Feed Status: UP
Listen in your browser - HTML5 player(in browser, HTML5)
Click here to listen with your own player(launches your MP3 player)

KMHT 012353Z 29007KT 10SM CLR M03/M15 A3021 RMK AO2 SLP252 4/002 T10281150 11011 21033 53016

KMHT Airport Info (Airnav.com)

KMHT Flight Activity (Flightaware)

Listeners: 0 out of 1550 total

NH/MA Area CTAF: 122.700

MA/NH/RI/CT Area CTAF (Archives)
Concord, New Hampshire, United States

Feed Status: UP
Listen in your browser - HTML5 player(in browser, HTML5)
Click here to listen with your own player(launches your MP3 player)

KBOS 012354Z 30006KT 10SM CLR M01/M16 A3024 RMK AO2 SLP240 T10111156 11011 21028 51014

KBOS Airport Info (Airnav.com)

KBOS Flight Activity (Flightaware)

Listeners: 0 out of 1550 total

Air-to-Air: 122.750
Bridgeport Flight Service: 122.200
CTAF: 122.700
CTAF: 122.800
CTAF: 122.900
CTAF: 123.000
Emergency/Guard: 121.500

MA/NH/RI/CT Area CTAF (Archives)
Concord, New Hampshire, United States

Feed Status: UP
Listen in your browser - HTML5 player(in browser, HTML5)
Click here to listen with your own player(launches your MP3 player)

KBOS 012354Z 30006KT 10SM CLR M01/M16 A3024 RMK AO2 SLP240 T10111156 11011 21028 51014

KBOS Airport Info (Airnav.com)

KBOS Flight Activity (Flightaware)

Listeners: 0 out of 1550 total

Air-to-Air: 122.750
Bridgeport Flight Service: 122.200
CTAF: 122.700
CTAF: 122.800
CTAF: 122.900
CTAF: 123.000
Emergency/Guard: 121.500

MA/NH/RI/CT Area CTAF (Archives)
Concord, New Hampshire, United States

Feed Status: UP
Listen in your browser - HTML5 player(in browser, HTML5)
Click here to listen with your own player(launches your MP3 player)

KBOS 012354Z 30006KT 10SM CLR M01/M16 A3024 RMK AO2 SLP240 T10111156 11011 21028 51014

KBOS Airport Info (Airnav.com)

KBOS Flight Activity (Flightaware)

Listeners: 0 out of 1550 total

Air-to-Air: 122.750
Bridgeport Flight Service: 122.200
CTAF: 122.700
CTAF: 122.800
CTAF: 122.900
CTAF: 123.000
Emergency/Guard: 121.500

KCOU CTAF/Gnd/App
Columbia, Missouri, United States

Feed Status: DOWN
Offline since: 2022-03-26 09:48:22 UTC

KCOU 012354Z 18005KT 10SM CLR M01/M12 A3028 RMK AO2 SLP267 T10111117 10022 21017 56006

KCOU Airport Info (Airnav.com)

Columbia CTAF: 119.300
Columbia Ground: 121.600
Columbia UNICOM: 122.950
Mizzou Approach/Departure: 124.375

KCPM CTAF (Archives)
Compton, California, United States

Feed Status: UP
Listen in your browser - HTML5 player(in browser, HTML5)
Click here to listen with your own player(launches your MP3 player)

KCPM Airport Info (Airnav.com)

KCPM Flight Activity (Flightaware)

Listeners: 0 out of 1550 total

Compton CTAF: 123.050

KCPR Tower/App
Casper, Wyoming, United States

Feed Status: DOWN
Offline since: 2022-12-21 22:36:22 UTC

KCPR 012353Z 22024G32KT 10SM CLR M05/M11 A3004 RMK AO2 PK WND 21032/2353 SLP224 T10501106 11039 21061 53001

KCPR Airport Info (Airnav.com)

Casper Approach: 120.650
Casper Tower: 118.300

KCPS Del/Gnd/Twr/App (Archives)
Cahokia/St Louis, Illinois, United States

Feed Status: UP
Listen in your browser - HTML5 player(in browser, HTML5)
Click here to listen with your own player(launches your MP3 player)

KCPS 012353Z 15004KT 10SM CLR M02/M10 A3033 RMK AO2 SLP276 T10221100 10000 21022 56005

KCPS Airport Info (Airnav.com)

KCPS Flight Activity (Flightaware)

Listeners: 0 out of 1550 total

Downtown Clearance Delivery: 118.275
Downtown Ground: 121.800
Downtown Tower: 119.925
St. Louis Approach/Departure: 123.700

KCQF CTAF/Misc (Archives)
Fairhope, Alabama, United States

Feed Status: UP
Listen in your browser - HTML5 player(in browser, HTML5)
Click here to listen with your own player(launches your MP3 player)

KCQF 020015Z AUTO 00000KT 10SM SCT025 BKN030 BKN041 13/11 A3019 RMK AO2

KCQF Airport Info (Airnav.com)

KCQF Flight Activity (Flightaware)

Listeners: 0 out of 1550 total

Emergency/Guard: 121.500
Fairhope CTAF: 123.000

5B6/KCQX/KPVC CTAF
Chatham, Massachusetts, United States

Feed Status: DOWN
Offline since: 2021-11-19 19:34:05 UTC

KHYA 012356Z 00000KT 10SM CLR M06/M09 A3022 RMK AO2 SLP235 T10561089 10000 21056 51017

KHYA Airport Info (Airnav.com)

Falmouth/Chatham/Provincetown CTAF: 122.800

KCRE ATIS (Archives)
North Myrtle Beach, South Carolina, United States

Feed Status: UP
Listen in your browser - HTML5 player(in browser, HTML5)
Click here to listen with your own player(launches your MP3 player)

KCRE 012353Z 04008KT 10SM OVC015 10/07 A3023 RMK AO1 SLP238 T01000067 10172 20100 51020

KCRE Airport Info (Airnav.com)

KCRE Flight Activity (Flightaware)

Listeners: 0 out of 1550 total

Strand ATIS: 119.625

KCRE Ground/Tower (Archives)
North Myrtle Beach, South Carolina, United States

Feed Status: UP
Listen in your browser - HTML5 player(in browser, HTML5)
Click here to listen with your own player(launches your MP3 player)

KCRE 012353Z 04008KT 10SM OVC015 10/07 A3023 RMK AO1 SLP238 T01000067 10172 20100 51020

KCRE Airport Info (Airnav.com)

KCRE Flight Activity (Flightaware)

Listeners: 0 out of 1550 total

Strand Ground: 121.800
Strand Tower: 124.600

KCRE Guard (Archives)
North Myrtle Beach, South Carolina, United States

Feed Status: UP
Listen in your browser - HTML5 player(in browser, HTML5)
Click here to listen with your own player(launches your MP3 player)

KCRE 012353Z 04008KT 10SM OVC015 10/07 A3023 RMK AO1 SLP238 T01000067 10172 20100 51020

KCRE Airport Info (Airnav.com)

KCRE Flight Activity (Flightaware)

Listeners: 0 out of 1550 total

Emergency/Guard: 121.500

KCRG Gnd/Twr/App (Archives)
Jacksonville, Florida, United States

Feed Status: UP
Listen in your browser - HTML5 player(in browser, HTML5)
Click here to listen with your own player(launches your MP3 player)

KCRG 012353Z 24004KT 10SM CLR 24/17 A3017 RMK AO2 SLP216 T02390172 10272 20239 51009

KCRG Airport Info (Airnav.com)

KCRG Flight Activity (Flightaware)

Listeners: 0 out of 1550 total

Craig Clearance: 118.350
Craig Ground: 121.800
Craig Tower: 132.100
Jacksonville Approach: 118.000
Jacksonville Approach: 124.900

KCRQ Tower (Archives)
Carlsbad, California, United States

Feed Status: UP
Listen in your browser - HTML5 player(in browser, HTML5)
Click here to listen with your own player(launches your MP3 player)

KCRQ 012353Z VRB05KT 10SM CLR 15/06 A3013 RMK AO2 SLP202 T01500061 10189 20150 53004

KCRQ Airport Info (Airnav.com)

KCRQ Flight Activity (Flightaware)

Listeners: 3 out of 1550 total

Palomar Tower: 118.600

KCTJ/KLGC CTAF (Archives)
Carrollton, Georgia, United States

Feed Status: UP
Listen in your browser - HTML5 player(in browser, HTML5)
Click here to listen with your own player(launches your MP3 player)

KCCO 020015Z AUTO 00000KT 10SM OVC014 14/11 A3021 RMK AO2 T01360106

KCCO Airport Info (Airnav.com)

KCCO Flight Activity (Flightaware)

Listeners: 0 out of 1550 total

KCTJ/KLGC CTAF: 122.975

51FL/KCDK/KCTY/X60 CTAF
Cross City, Florida, United States

Feed Status: DOWN
Offline since: 2022-01-17 21:16:04 UTC

Cedar Key CTAF: 122.900
Cross City CTAF: 122.800
Emergency/Guard: 121.500
Jacksonville Approach/Departure: 118.600
Jacksonville Center: 127.800
Williston CTAF: 122.975

KCUB CTAF (Archives)
Columbia, South Carolina, United States

Feed Status: UP
Listen in your browser - HTML5 player(in browser, HTML5)
Click here to listen with your own player(launches your MP3 player)

KCUB 012353Z AUTO VRB05KT 10SM BKN049 12/08 A3022 RMK AO2 SLP233 T01220083 10228 20122 51030

KCUB Airport Info (Airnav.com)

KCUB Flight Activity (Flightaware)

Listeners: 0 out of 1550 total

Columbia CTAF: 123.075

KWDR/KCVC/KCNI CTAF (Archives)
Atlanta, Georgia, United States

Feed Status: UP
Listen in your browser - HTML5 player(in browser, HTML5)
Click here to listen with your own player(launches your MP3 player)

KWDR 020015Z AUTO 00000KT 10SM OVC023 13/08 A3022 RMK AO2

KWDR Airport Info (Airnav.com)

KWDR Flight Activity (Flightaware)

Listeners: 0 out of 1550 total

KWDR/KCVC/KCNI CTAF: 123.000

KCVO CTAF/Misc (Archives)
Corvallis, Oregon, United States

Feed Status: UP
Listen in your browser - HTML5 player(in browser, HTML5)
Click here to listen with your own player(launches your MP3 player)

KCVO 012356Z AUTO 00000KT 10SM CLR 08/01 A3012 RMK AO2 SLP203 6//// T00780006 10083 20006 56010

KCVO Airport Info (Airnav.com)

KCVO Flight Activity (Flightaware)

Listeners: 1 out of 1550 total

Cascade Approach: 127.500
Cascade Approach: 119.600
Corvallis CTAF: 123.075
Seattle Center (Sector 6 Low): 125.800

Houston App/Dep (119.7)
Houston, Texas, United States

Feed Status: DOWN
Offline since: 2022-08-05 16:21:39 UTC

KCXO 012353Z 34007KT 3SM -RA BR OVC005 03/02 A3024 RMK AO2 RAB38 CIG 004V008 SLP241 P0001 60001 T00280022 10033 20022 51006

KCXO Airport Info (Airnav.com)

Houston Approach/Departure: 119.700

KCXO ATIS
Houston, Texas, United States

Feed Status: DOWN
Offline since: 2022-08-05 16:21:39 UTC

KCXO 012353Z 34007KT 3SM -RA BR OVC005 03/02 A3024 RMK AO2 RAB38 CIG 004V008 SLP241 P0001 60001 T00280022 10033 20022 51006

KCXO Airport Info (Airnav.com)

Conroe ATIS: 118.325

KCXO Ground
Houston, Texas, United States

Feed Status: DOWN
Offline since: 2022-08-05 16:21:39 UTC

KCXO 012353Z 34007KT 3SM -RA BR OVC005 03/02 A3024 RMK AO2 RAB38 CIG 004V008 SLP241 P0001 60001 T00280022 10033 20022 51006

KCXO Airport Info (Airnav.com)

Conroe Ground: 120.450

KCXO Ground/Tower
Houston, Texas, United States

Feed Status: DOWN
Offline since: 2022-08-05 16:21:39 UTC

KCXO 012353Z 34007KT 3SM -RA BR OVC005 03/02 A3024 RMK AO2 RAB38 CIG 004V008 SLP241 P0001 60001 T00280022 10033 20022 51006

KCXO Airport Info (Airnav.com)

Conroe Ground: 120.450
Conroe Tower: 124.125

KCXO Tower
Houston, Texas, United States

Feed Status: DOWN
Offline since: 2022-08-05 16:21:39 UTC

KCXO 012353Z 34007KT 3SM -RA BR OVC005 03/02 A3024 RMK AO2 RAB38 CIG 004V008 SLP241 P0001 60001 T00280022 10033 20022 51006

KCXO Airport Info (Airnav.com)

Conroe Tower: 124.125

KCXP CTAF (Archives)
Carson City, Nevada, United States

Feed Status: UP
Listen in your browser - HTML5 player(in browser, HTML5)
Click here to listen with your own player(launches your MP3 player)

KCXP 020015Z AUTO 09006KT 10SM CLR 01/M09 A3025 RMK AO2

KCXP Airport Info (Airnav.com)

KCXP Flight Activity (Flightaware)

Listeners: 0 out of 1550 total

Carson City CTAF: 123.000

KCXY Ground (Archives)
Harrisburg, Pennsylvania, United States

Feed Status: UP
Listen in your browser - HTML5 player(in browser, HTML5)
Click here to listen with your own player(launches your MP3 player)

KMDT 012356Z 26003KT 10SM FEW200 00/M12 A3029 RMK AO2 SLP262 T00001122 10017 21017 53008

KMDT Airport Info (Airnav.com)

KMDT Flight Activity (Flightaware)

Listeners: 0 out of 1550 total

Capital City Ground: 121.900

KCXY Ground/Tower (Archives)
Harrisburg, Pennsylvania, United States

Feed Status: UP
Listen in your browser - HTML5 player(in browser, HTML5)
Click here to listen with your own player(launches your MP3 player)

KMDT 012356Z 26003KT 10SM FEW200 00/M12 A3029 RMK AO2 SLP262 T00001122 10017 21017 53008

KMDT Airport Info (Airnav.com)

KMDT Flight Activity (Flightaware)

Listeners: 0 out of 1550 total

Capital City Ground: 121.900
Capital City Tower: 119.500

KCXY Tower (Archives)
Harrisburg, Pennsylvania, United States

Feed Status: UP
Listen in your browser - HTML5 player(in browser, HTML5)
Click here to listen with your own player(launches your MP3 player)

KMDT 012356Z 26003KT 10SM FEW200 00/M12 A3029 RMK AO2 SLP262 T00001122 10017 21017 53008

KMDT Airport Info (Airnav.com)

KMDT Flight Activity (Flightaware)

Listeners: 0 out of 1550 total

Capital City Tower: 119.500

KCYS Gnd/Twr/App/Center (Archives)
Cheyenne, Wyoming, United States

Feed Status: UP
Listen in your browser - HTML5 player(in browser, HTML5)
Click here to listen with your own player(launches your MP3 player)

KCYS 012353Z 28020G26KT 10SM CLR 00/M09 A3004 RMK AO2 PK WND 28026/2347 SLP206 T00001089 10017 21011 53003

KCYS Airport Info (Airnav.com)

KCYS Flight Activity (Flightaware)

Listeners: 2 out of 1550 total

Cheyenne Approach: 124.550
Cheyenne Ground: 121.900
Cheyenne Tower: 118.700
Denver Center (Sector 21 Cheyenne Low): 125.900
Emergency/Guard: 121.500

KDAA/KADW Tower (Archives)
Fort Belvoir, Virginia, United States

Feed Status: UP
Listen in your browser - HTML5 player(in browser, HTML5)
Click here to listen with your own player(launches your MP3 player)

KDAA 012355Z AUTO 00000KT 10SM CLR M01/M10 A3031 RMK AO2 SLP268 T10121096 10046 21013 50009 $

KDAA Airport Info (Airnav.com)

KDAA Flight Activity (Flightaware)

Listeners: 1 out of 1550 total

Andrews Tower: 118.400
Andrews Tower: 349.000
Davison Tower: 241.000
Davison Tower: 126.300
Davison Tower: 229.400

KCON/KDAW/KFIT CTAF (Archives)
Rochester, New Hampshire, United States

Feed Status: UP
Listen in your browser - HTML5 player(in browser, HTML5)
Click here to listen with your own player(launches your MP3 player)

KMHT 012353Z 29007KT 10SM CLR M03/M15 A3021 RMK AO2 SLP252 4/002 T10281150 11011 21033 53016

KMHT Airport Info (Airnav.com)

KMHT Flight Activity (Flightaware)

Listeners: 0 out of 1550 total

NH/MA Area CTAF: 122.700

KDBQ ATIS
Dubuque, Iowa, United States

Feed Status: DOWN
Offline since: 2023-01-30 21:24:38 UTC

KDBQ 012353Z 20008KT 10SM CLR M07/M12 A3016 RMK AO2 SLP237 T10721117 11039 21078 56003

KDBQ Airport Info (Airnav.com)

Dubuque ATIS: 127.250

KDBQ Ground
Dubuque, Iowa, United States

Feed Status: DOWN
Offline since: 2023-01-30 21:24:38 UTC

KDBQ 012353Z 20008KT 10SM CLR M07/M12 A3016 RMK AO2 SLP237 T10721117 11039 21078 56003

KDBQ Airport Info (Airnav.com)

Dubuque Ground: 121.800

KDBQ Ground/Tower
Dubuque, Iowa, United States

Feed Status: DOWN
Offline since: 2023-01-30 21:24:38 UTC

KDBQ 012353Z 20008KT 10SM CLR M07/M12 A3016 RMK AO2 SLP237 T10721117 11039 21078 56003

KDBQ Airport Info (Airnav.com)

Dubuque Ground: 121.800
Dubuque Tower: 119.500

KDBQ Guard
Dubuque, Iowa, United States

Feed Status: DOWN
Offline since: 2023-01-30 21:24:38 UTC

KDBQ 012353Z 20008KT 10SM CLR M07/M12 A3016 RMK AO2 SLP237 T10721117 11039 21078 56003

KDBQ Airport Info (Airnav.com)

Emergency/Guard: 121.500

KDBQ Tower
Dubuque, Iowa, United States

Feed Status: DOWN
Offline since: 2023-01-30 21:24:38 UTC

KDBQ 012353Z 20008KT 10SM CLR M07/M12 A3016 RMK AO2 SLP237 T10721117 11039 21078 56003

KDBQ Airport Info (Airnav.com)

Dubuque Tower: 119.500

KDED CTAF/Misc (Archives)
DeLand, Florida, United States

Feed Status: UP
Listen in your browser - HTML5 player(in browser, HTML5)
Click here to listen with your own player(launches your MP3 player)

KDED 020010Z AUTO 05005KT 10SM OVC060 22/16 A3019 RMK AO2 T02160161

KDED Airport Info (Airnav.com)

KDED Flight Activity (Flightaware)

Listeners: 0 out of 1550 total

DeLand CTAF/UNICOM: 123.075
Skydive DeLand: 122.850

KDED/1J6 CTAF/UNICOM (Archives)
DeLand, Florida, United States

Feed Status: UP
Listen in your browser - HTML5 player(in browser, HTML5)
Click here to listen with your own player(launches your MP3 player)

KDED 020010Z AUTO 05005KT 10SM OVC060 22/16 A3019 RMK AO2 T02160161

KDED Airport Info (Airnav.com)

KDED Flight Activity (Flightaware)

Listeners: 0 out of 1550 total

DeLand CTAF/UNICOM: 123.075

KDLH Gnd/Twr/App (Archives)
Duluth, Minnesota, United States

Feed Status: UP
Listen in your browser - HTML5 player(in browser, HTML5)
Click here to listen with your own player(launches your MP3 player)

KDLH 012355Z 21005KT 10SM OVC043 M11/M17 A2997 RMK AO2 SLP190 T11111167 11111 21144 55008

KDLH Airport Info (Airnav.com)

KDLH Flight Activity (Flightaware)

Listeners: 1 out of 1550 total

Duluth Approach/Departure: 125.450
Duluth Ground: 121.900
Duluth Tower: 118.300

KDMW AWOS (Archives)
Westminster, Maryland, United States

Feed Status: UP
Listen in your browser - HTML5 player(in browser, HTML5)
Click here to listen with your own player(launches your MP3 player)

KDMW 020005Z AUTO 28005KT 10SM CLR 00/M12 A3028 RMK AO2

KDMW Airport Info (Airnav.com)

KDMW Flight Activity (Flightaware)

Listeners: 0 out of 1550 total

Carroll County AWOS: 121.250

KDMW CTAF (Archives)
Westminster, Maryland, United States

Feed Status: UP
Listen in your browser - HTML5 player(in browser, HTML5)
Click here to listen with your own player(launches your MP3 player)

KDMW 020005Z AUTO 28005KT 10SM CLR 00/M12 A3028 RMK AO2

KDMW Airport Info (Airnav.com)

KDMW Flight Activity (Flightaware)

Listeners: 0 out of 1550 total

Carroll County CTAF: 122.700

KDMW Emergency/Guard (Archives)
Westminster, Maryland, United States

Feed Status: UP
Listen in your browser - HTML5 player(in browser, HTML5)
Click here to listen with your own player(launches your MP3 player)

KDMW 020005Z AUTO 28005KT 10SM CLR 00/M12 A3028 RMK AO2

KDMW Airport Info (Airnav.com)

KDMW Flight Activity (Flightaware)

Listeners: 0 out of 1550 total

Emergency/Guard: 121.500

KDOV App/Dep
Dover, Delaware, United States

Feed Status: DOWN
Offline since: 2023-01-26 14:35:39 UTC

KDOV 012355Z AUTO 30003KT 10SM CLR 00/M12 A3030 RMK AO2 SLP265 T00001123 10034 21005 53013 $

KDOV Airport Info (Airnav.com)

Dover Approach/Departure: 132.425

KDOV ATIS
Dover, Delaware, United States

Feed Status: DOWN
Offline since: 2022-10-26 22:13:39 UTC

KDOV 012355Z AUTO 30003KT 10SM CLR 00/M12 A3030 RMK AO2 SLP265 T00001123 10034 21005 53013 $

KDOV Airport Info (Airnav.com)

Dover ATIS: 127.825

KDOV Del/Gnd/Twr
Dover, Delaware, United States

Feed Status: DOWN
Offline since: 2023-01-26 05:32:39 UTC

KDOV 012355Z AUTO 30003KT 10SM CLR 00/M12 A3030 RMK AO2 SLP265 T00001123 10034 21005 53013 $

KDOV Airport Info (Airnav.com)

Dover Clearance Delivery: 118.050
Dover Clearance Delivery: 125.550
Dover Ground: 118.875
Dover Tower: 126.350

KDOV Gnd/App
Dover, Delaware, United States

Feed Status: DOWN
Offline since: 2022-10-26 22:13:39 UTC

KDOV 012355Z AUTO 30003KT 10SM CLR 00/M12 A3030 RMK AO2 SLP265 T00001123 10034 21005 53013 $

KDOV Airport Info (Airnav.com)

Dover Approach/Departure: 132.425
Dover Ground: 118.875

KDOV Tower
Dover, Delaware, United States

Feed Status: DOWN
Offline since: 2022-10-26 22:13:39 UTC

KDOV 012355Z AUTO 30003KT 10SM CLR 00/M12 A3030 RMK AO2 SLP265 T00001123 10034 21005 53013 $

KDOV Airport Info (Airnav.com)

Dover Tower: 126.350

KDPA ATIS (Archives)
Chicago, Illinois, United States

Feed Status: UP
Listen in your browser - HTML5 player(in browser, HTML5)
Click here to listen with your own player(launches your MP3 player)

KDPA 012352Z 20008KT 10SM CLR M05/M12 A3023 RMK AO2 SLP251 T10501122 11033 21061 56003

KDPA Airport Info (Airnav.com)

KDPA Flight Activity (Flightaware)

Listeners: 0 out of 1550 total

DuPage ATIS: 132.075

KDPA Chicago Approach (Archives)
Chicago, Illinois, United States

Feed Status: UP
Listen in your browser - HTML5 player(in browser, HTML5)
Click here to listen with your own player(launches your MP3 player)

KORD 012351Z 22008KT 10SM FEW250 M04/M12 A3023 RMK AO2 SLP251 4/003 T10391122 11028 21050 56002

KORD Airport Info (Airnav.com)

KORD Flight Activity (Flightaware)

Listeners: 0 out of 1550 total

Chicago Approach/Departure: 133.500

KDPA Del/Gnd/Twr/Misc (Archives)
Chicago, Illinois, United States

Feed Status: UP
Listen in your browser - HTML5 player(in browser, HTML5)
Click here to listen with your own player(launches your MP3 player)

KDPA 012352Z 20008KT 10SM CLR M05/M12 A3023 RMK AO2 SLP251 T10501122 11033 21061 56003

KDPA Airport Info (Airnav.com)

KDPA Flight Activity (Flightaware)

Listeners: 1 out of 1550 total

DuPage Clearance Delivery: 119.750
DuPage Flight Center (FBO): 464.375
DuPage Ground: 121.800
DuPage Ground Operations: 469.5875
DuPage Ground Operations: 453.225
DuPage Ground Operations (Airport Authority): 453.500
DuPage Tower: 120.900
DuPage UNICOM ("Flight Center"): 122.950
Flight Service Station (FSS) RCO: 122.550

KDTO ASOS (Archives)
Denton, Texas, United States

Feed Status: UP
Listen in your browser - HTML5 player(in browser, HTML5)
Click here to listen with your own player(launches your MP3 player)

KDTO 020021Z 02006KT 7SM -FZRA FEW033 SCT050 OVC080 M02/M03 A3032 RMK AO2 PRESFR P0003 I1001 T10171033

KDTO Airport Info (Airnav.com)

KDTO Flight Activity (Flightaware)

Listeners: 0 out of 1550 total

Denton ASOS: 119.325

KDTO Gnd/Twr (Archives)
Denton, Texas, United States

Feed Status: UP
Listen in your browser - HTML5 player(in browser, HTML5)
Click here to listen with your own player(launches your MP3 player)

KDTO 020021Z 02006KT 7SM -FZRA FEW033 SCT050 OVC080 M02/M03 A3032 RMK AO2 PRESFR P0003 I1001 T10171033

KDTO Airport Info (Airnav.com)

KDTO Flight Activity (Flightaware)

Listeners: 0 out of 1550 total

Denton Ground: 123.950
Denton Tower: 119.950

KDTO Tower (Archives)
Denton, Texas, United States

Feed Status: UP
Listen in your browser - HTML5 player(in browser, HTML5)
Click here to listen with your own player(launches your MP3 player)

KDTO 020021Z 02006KT 7SM -FZRA FEW033 SCT050 OVC080 M02/M03 A3032 RMK AO2 PRESFR P0003 I1001 T10171033

KDTO Airport Info (Airnav.com)

KDTO Flight Activity (Flightaware)

Listeners: 0 out of 1550 total

Denton Tower: 119.950

KDVO CTAF (Archives)
Novato, California, United States

Feed Status: UP
Listen in your browser - HTML5 player(in browser, HTML5)
Click here to listen with your own player(launches your MP3 player)

KDVO 020015Z AUTO 14005KT 10SM CLR 13/03 A3020 RMK AO2

KDVO Airport Info (Airnav.com)

KDVO Flight Activity (Flightaware)

Listeners: 0 out of 1550 total

Novato CTAF: 123.075

KDVT ATIS (Archives)
Phoenix, Arizona, United States

Feed Status: UP
Listen in your browser - HTML5 player(in browser, HTML5)
Click here to listen with your own player(launches your MP3 player)

KDVT 012353Z 30010KT 10SM CLR 18/M02 A3005 RMK AO2 SLP167 T01831017 10194 20150 53006

KDVT Airport Info (Airnav.com)

KDVT Flight Activity (Flightaware)

Listeners: 0 out of 1550 total

Deer Valley ATIS: 126.500

KDVT Clearance Delivery (Archives)
Phoenix, Arizona, United States

Feed Status: UP
Listen in your browser - HTML5 player(in browser, HTML5)
Click here to listen with your own player(launches your MP3 player)

KDVT 012353Z 30010KT 10SM CLR 18/M02 A3005 RMK AO2 SLP167 T01831017 10194 20150 53006

KDVT Airport Info (Airnav.com)

KDVT Flight Activity (Flightaware)

Listeners: 0 out of 1550 total

Deer Valley Clearance Delivery: 123.900

KDVT Delivery/Ground (Archives)
Phoenix, Arizona, United States

Feed Status: UP
Listen in your browser - HTML5 player(in browser, HTML5)
Click here to listen with your own player(launches your MP3 player)

KDVT 012353Z 30010KT 10SM CLR 18/M02 A3005 RMK AO2 SLP167 T01831017 10194 20150 53006

KDVT Airport Info (Airnav.com)

KDVT Flight Activity (Flightaware)

Listeners: 0 out of 1550 total

Deer Valley Clearance Delivery: 123.900
Deer Valley Ground: 121.800

KDVT Ground (Archives)
Phoenix, Arizona, United States

Feed Status: UP
Listen in your browser - HTML5 player(in browser, HTML5)
Click here to listen with your own player(launches your MP3 player)

KDVT 012353Z 30010KT 10SM CLR 18/M02 A3005 RMK AO2 SLP167 T01831017 10194 20150 53006

KDVT Airport Info (Airnav.com)

KDVT Flight Activity (Flightaware)

Listeners: 1 out of 1550 total

Deer Valley Ground: 121.800

KDVT Tower (Both) (Archives)
Phoenix, Arizona, United States

Feed Status: UP
Listen in your browser - HTML5 player(in browser, HTML5)
Click here to listen with your own player(launches your MP3 player)

KDVT 012353Z 30010KT 10SM CLR 18/M02 A3005 RMK AO2 SLP167 T01831017 10194 20150 53006

KDVT Airport Info (Airnav.com)

KDVT Flight Activity (Flightaware)

Listeners: 0 out of 1550 total

Deer Valley Tower (North): 120.200
Deer Valley Tower (South): 118.400

KDVT Tower (North) (Archives)
Phoenix, Arizona, United States

Feed Status: UP
Listen in your browser - HTML5 player(in browser, HTML5)
Click here to listen with your own player(launches your MP3 player)

KDVT 012353Z 30010KT 10SM CLR 18/M02 A3005 RMK AO2 SLP167 T01831017 10194 20150 53006

KDVT Airport Info (Airnav.com)

KDVT Flight Activity (Flightaware)

Listeners: 0 out of 1550 total

Deer Valley Tower (North): 120.200

KDVT Tower (South) (Archives)
Phoenix, Arizona, United States

Feed Status: UP
Listen in your browser - HTML5 player(in browser, HTML5)
Click here to listen with your own player(launches your MP3 player)

KDVT 012353Z 30010KT 10SM CLR 18/M02 A3005 RMK AO2 SLP167 T01831017 10194 20150 53006

KDVT Airport Info (Airnav.com)

KDVT Flight Activity (Flightaware)

Listeners: 0 out of 1550 total

Deer Valley Tower (South): 118.400

KDWH Del/ Gnd/Twr (Archives)
Houston, Texas, United States

Feed Status: UP
Listen in your browser - HTML5 player(in browser, HTML5)
Click here to listen with your own player(launches your MP3 player)

KDWH 020018Z 34006KT 4SM BR OVC005 03/02 A3024 RMK AO2 CIG 004V008 T00330022

KDWH Airport Info (Airnav.com)

KDWH Flight Activity (Flightaware)

Listeners: 2 out of 1550 total

Hooks Clearance Delivery: 119.450
Hooks Ground: 121.800
Hooks Tower (E): 127.400
Hooks Tower (W): 118.400
Hooks UNICOM: 122.950

KDXR ATIS (Archives)
Danbury, Connecticut, United States

Feed Status: UP
Listen in your browser - HTML5 player(in browser, HTML5)
Click here to listen with your own player(launches your MP3 player)

KDXR 012353Z 00000KT 10SM CLR M01/M14 A3024 RMK AO2 SLP244 T10061139 10022 21006 51015

KDXR Airport Info (Airnav.com)

KDXR Flight Activity (Flightaware)

Listeners: 0 out of 1550 total

Danbury ATIS: 127.750

KDXR Ground/Tower (Archives)
Danbury, Connecticut, United States

Feed Status: UP
Listen in your browser - HTML5 player(in browser, HTML5)
Click here to listen with your own player(launches your MP3 player)

KDXR 012353Z 00000KT 10SM CLR M01/M14 A3024 RMK AO2 SLP244 T10061139 10022 21006 51015

KDXR Airport Info (Airnav.com)

KDXR Flight Activity (Flightaware)

Listeners: 0 out of 1550 total

Danbury Ground: 121.600
Danbury Tower: 119.400

KDYB CTAF (Archives)
Summerville, South Carolina, United States

Feed Status: UP
Listen in your browser - HTML5 player(in browser, HTML5)
Click here to listen with your own player(launches your MP3 player)

KDYB 020015Z AUTO VRB05KT 10SM SCT046 BKN060 OVC070 17/13 A3018 RMK AO2

KDYB Airport Info (Airnav.com)

KDYB Flight Activity (Flightaware)

Listeners: 0 out of 1550 total

Summerville CTAF: 123.000

KDYL CTAF #1 (Archives)
Doylestown, Pennsylvania, United States

Feed Status: UP
Listen in your browser - HTML5 player(in browser, HTML5)
Click here to listen with your own player(launches your MP3 player)

KDYL 012354Z AUTO 29004KT 10SM CLR M01/M13 A3026 RMK AO2 SLP257 T10061128 10033 21006 53013

KDYL Airport Info (Airnav.com)

KDYL Flight Activity (Flightaware)

Listeners: 0 out of 1550 total

Doylestown CTAF/UNICOM: 122.975

KDYL CTAF #2 (Archives)
Doylestown, Pennsylvania, United States

Feed Status: UP
Listen in your browser - HTML5 player(in browser, HTML5)
Click here to listen with your own player(launches your MP3 player)

KDYL 012354Z AUTO 29004KT 10SM CLR M01/M13 A3026 RMK AO2 SLP257 T10061128 10033 21006 53013

KDYL Airport Info (Airnav.com)

KDYL Flight Activity (Flightaware)

Listeners: 0 out of 1550 total

Doylestown CTAF/UNICOM: 122.975

KEAR AWOS (Archives)
Kearney, Nebraska, United States

Feed Status: UP
Listen in your browser - HTML5 player(in browser, HTML5)
Click here to listen with your own player(launches your MP3 player)

KEAR 012356Z AUTO 26005KT 10SM CLR M03/M08 A3015 RMK AO2 SLP241 60000 T10331083 11022 21050 51005 FZRANO

KEAR Airport Info (Airnav.com)

KEAR Flight Activity (Flightaware)

Listeners: 0 out of 1550 total

Kearney AWOS: 123.875

KEAR Columbus Radio (Archives)
Kearney, Nebraska, United States

Feed Status: UP
Listen in your browser - HTML5 player(in browser, HTML5)
Click here to listen with your own player(launches your MP3 player)

KEAR 012356Z AUTO 26005KT 10SM CLR M03/M08 A3015 RMK AO2 SLP241 60000 T10331083 11022 21050 51005 FZRANO

KEAR Airport Info (Airnav.com)

KEAR Flight Activity (Flightaware)

Listeners: 1 out of 1550 total

Columbus Radio: 122.550

KEAR CTAF (Archives)
Kearney, Nebraska, United States

Feed Status: UP
Listen in your browser - HTML5 player(in browser, HTML5)
Click here to listen with your own player(launches your MP3 player)

KEAR 012356Z AUTO 26005KT 10SM CLR M03/M08 A3015 RMK AO2 SLP241 60000 T10331083 11022 21050 51005 FZRANO

KEAR Airport Info (Airnav.com)

KEAR Flight Activity (Flightaware)

Listeners: 0 out of 1550 total

Kearney CTAF: 123.000

KEAU Tower (Archives)
Eau Claire, Wisconsin, United States

Feed Status: UP
Listen in your browser - HTML5 player(in browser, HTML5)
Click here to listen with your own player(launches your MP3 player)

KEAU 012356Z 18006KT 10SM FEW090 M09/M16 A3009 RMK AO2 SLP212 T10891156 11067 21111 56007

KEAU Airport Info (Airnav.com)

KEAU Flight Activity (Flightaware)

Listeners: 0 out of 1550 total

Eau Claire Tower: 118.575

KEDC ATIS (Archives)
Austin, Texas, United States

Feed Status: UP
Listen in your browser - HTML5 player(in browser, HTML5)
Click here to listen with your own player(launches your MP3 player)

KEDC 020015Z AUTO 00000KT 00/00 A3025 RMK AO2 PWINO

KEDC Airport Info (Airnav.com)

KEDC Flight Activity (Flightaware)

Listeners: 0 out of 1550 total

Executive ATIS/AWOS: 118.825

KEDC Austin App/Dep (Archives)
Austin, Texas, United States

Feed Status: UP
Listen in your browser - HTML5 player(in browser, HTML5)
Click here to listen with your own player(launches your MP3 player)

KEDC 020015Z AUTO 00000KT 00/00 A3025 RMK AO2 PWINO

KEDC Airport Info (Airnav.com)

KEDC Flight Activity (Flightaware)

Listeners: 0 out of 1550 total

Auston Approach/Departure: 127.225

KEDC Clearance Delivery (Archives)
Austin, Texas, United States

Feed Status: UP
Listen in your browser - HTML5 player(in browser, HTML5)
Click here to listen with your own player(launches your MP3 player)

KEDC 020015Z AUTO 00000KT 00/00 A3025 RMK AO2 PWINO

KEDC Airport Info (Airnav.com)

KEDC Flight Activity (Flightaware)

Listeners: 0 out of 1550 total

Executive Clearance Delivery (when Tower is closed): 126.025

KEDC Clearance/Ground (Archives)
Austin, Texas, United States

Feed Status: UP
Listen in your browser - HTML5 player(in browser, HTML5)
Click here to listen with your own player(launches your MP3 player)

KEDC 020015Z AUTO 00000KT 00/00 A3025 RMK AO2 PWINO

KEDC Airport Info (Airnav.com)

KEDC Flight Activity (Flightaware)

Listeners: 0 out of 1550 total

Executive Clearance Delivery (when Tower is closed): 126.025
Executive Ground: 119.450

KEDC Del/Gnd/Twr (Archives)
Austin, Texas, United States

Feed Status: UP
Listen in your browser - HTML5 player(in browser, HTML5)
Click here to listen with your own player(launches your MP3 player)

KEDC 020015Z AUTO 00000KT 00/00 A3025 RMK AO2 PWINO

KEDC Airport Info (Airnav.com)

KEDC Flight Activity (Flightaware)

Listeners: 0 out of 1550 total

Executive Ground: 119.450
Executive Tower: 120.300

KEDC Ground (Archives)
Austin, Texas, United States

Feed Status: UP
Listen in your browser - HTML5 player(in browser, HTML5)
Click here to listen with your own player(launches your MP3 player)

KEDC 020015Z AUTO 00000KT 00/00 A3025 RMK AO2 PWINO

KEDC Airport Info (Airnav.com)

KEDC Flight Activity (Flightaware)

Listeners: 0 out of 1550 total

Executive Ground: 119.450

KEDC Ground/Tower (Archives)
Austin, Texas, United States

Feed Status: UP
Listen in your browser - HTML5 player(in browser, HTML5)
Click here to listen with your own player(launches your MP3 player)

KEDC 020015Z AUTO 00000KT 00/00 A3025 RMK AO2 PWINO

KEDC Airport Info (Airnav.com)

KEDC Flight Activity (Flightaware)

Listeners: 0 out of 1550 total

Executive Ground: 119.450
Executive Tower: 120.300

KEDC Tower (Archives)
Austin, Texas, United States

Feed Status: UP
Listen in your browser - HTML5 player(in browser, HTML5)
Click here to listen with your own player(launches your MP3 player)

KEDC 020015Z AUTO 00000KT 00/00 A3025 RMK AO2 PWINO

KEDC Airport Info (Airnav.com)

KEDC Flight Activity (Flightaware)

Listeners: 0 out of 1550 total

Executive Tower: 120.300

KEDU CTAF (Archives)
Davis, California, United States

Feed Status: UP
Listen in your browser - HTML5 player(in browser, HTML5)
Click here to listen with your own player(launches your MP3 player)



KEDU Airport Info (Airnav.com)

KEDU Flight Activity (Flightaware)

Listeners: 0 out of 1550 total

University CTAF: 123.075

KEEN CTAF (Archives)
Keene, New Hampshire, United States

Feed Status: UP
Listen in your browser - HTML5 player(in browser, HTML5)
Click here to listen with your own player(launches your MP3 player)

KMHT 012353Z 29007KT 10SM CLR M03/M15 A3021 RMK AO2 SLP252 4/002 T10281150 11011 21033 53016

KMHT Airport Info (Airnav.com)

KMHT Flight Activity (Flightaware)

Listeners: 0 out of 1550 total

Keene CTAF: 123.000

MA/NH/RI/CT Area CTAF (Archives)
Keene, New Hampshire, United States

Feed Status: UP
Listen in your browser - HTML5 player(in browser, HTML5)
Click here to listen with your own player(launches your MP3 player)

KBOS 012354Z 30006KT 10SM CLR M01/M16 A3024 RMK AO2 SLP240 T10111156 11011 21028 51014

KBOS Airport Info (Airnav.com)

KBOS Flight Activity (Flightaware)

Listeners: 0 out of 1550 total

Air-to-Air: 122.750
Bridgeport Flight Service: 122.200
CTAF: 122.700
CTAF: 122.800
CTAF: 122.900
CTAF: 123.000
Emergency/Guard: 121.500

MA/NH/RI/CT Area CTAF (Archives)
Keene, New Hampshire, United States

Feed Status: UP
Listen in your browser - HTML5 player(in browser, HTML5)
Click here to listen with your own player(launches your MP3 player)

KBOS 012354Z 30006KT 10SM CLR M01/M16 A3024 RMK AO2 SLP240 T10111156 11011 21028 51014

KBOS Airport Info (Airnav.com)

KBOS Flight Activity (Flightaware)

Listeners: 0 out of 1550 total

Air-to-Air: 122.750
Bridgeport Flight Service: 122.200
CTAF: 122.700
CTAF: 122.800
CTAF: 122.900
CTAF: 123.000
Emergency/Guard: 121.500

MA/NH/RI/CT Area CTAF (Archives)
Keene, New Hampshire, United States

Feed Status: UP
Listen in your browser - HTML5 player(in browser, HTML5)
Click here to listen with your own player(launches your MP3 player)

KBOS 012354Z 30006KT 10SM CLR M01/M16 A3024 RMK AO2 SLP240 T10111156 11011 21028 51014

KBOS Airport Info (Airnav.com)

KBOS Flight Activity (Flightaware)

Listeners: 0 out of 1550 total

Air-to-Air: 122.750
Bridgeport Flight Service: 122.200
CTAF: 122.700
CTAF: 122.800
CTAF: 122.900
CTAF: 123.000
Emergency/Guard: 121.500

KEFD Tower (Archives)
Houston, Texas, United States

Feed Status: UP
Listen in your browser - HTML5 player(in browser, HTML5)
Click here to listen with your own player(launches your MP3 player)

KEFD 012354Z 32010KT 3SM BR OVC005 05/04 A3021

KEFD Airport Info (Airnav.com)

KEFD Flight Activity (Flightaware)

Listeners: 1 out of 1550 total

Ellington Tower: 126.050

KFTG/KEIK/KBDU/KLMO/Misc (Archives)
Erie, Colorado, United States

Feed Status: UP
Listen in your browser - HTML5 player(in browser, HTML5)
Click here to listen with your own player(launches your MP3 player)

KDEN 012353Z 17010KT 10SM FEW100 FEW150 M02/M09 A3007 RMK AO2 SLP218 T10221094 10050 21022 51010

KDEN Airport Info (Airnav.com)

KDEN Flight Activity (Flightaware)

Listeners: 0 out of 1550 total

Air-to-Air Fixed Wing: 122.750
Air-to-Air Informal: 123.450
Boulder CTAF: 122.725
Erie CTAF: 123.000
Front Range Tower: 120.200
KBKF Tower: 121.000
Longmont CTAF: 122.975
MULTICOM: 122.900
UNICOM: 122.950

KELM App/Dep (Archives)
Elmira, New York, United States

Feed Status: UP
Listen in your browser - HTML5 player(in browser, HTML5)
Click here to listen with your own player(launches your MP3 player)

KELM 012353Z AUTO 29003KT 10SM CLR M06/M13 A3025 RMK AO2 SLP260 T10561133 11022 21056 53009

KELM Airport Info (Airnav.com)

KELM Flight Activity (Flightaware)

Listeners: 0 out of 1550 total

Elmira Approach/Departure: 128.425
Elmira Approach/Departure (Backup): 118.150
Elmira Approach/Departure (Ithica): 124.300

KELM ATIS (Archives)
Elmira, New York, United States

Feed Status: UP
Listen in your browser - HTML5 player(in browser, HTML5)
Click here to listen with your own player(launches your MP3 player)

KELM 012353Z AUTO 29003KT 10SM CLR M06/M13 A3025 RMK AO2 SLP260 T10561133 11022 21056 53009

KELM Airport Info (Airnav.com)

KELM Flight Activity (Flightaware)

Listeners: 0 out of 1550 total

Elmira ATIS: 125.475

KELM Del/Gnd/Twr/App (Archives)
Elmira, New York, United States

Feed Status: UP
Listen in your browser - HTML5 player(in browser, HTML5)
Click here to listen with your own player(launches your MP3 player)

KELM 012353Z AUTO 29003KT 10SM CLR M06/M13 A3025 RMK AO2 SLP260 T10561133 11022 21056 53009

KELM Airport Info (Airnav.com)

KELM Flight Activity (Flightaware)

Listeners: 0 out of 1550 total

Elmira Approach/Departure: 128.425
Elmira Approach/Departure (Backup): 118.150
Elmira Approach/Departure (Ithica): 124.300
Elmira Clearance Delivery/Ground: 121.900
Elmira Tower: 121.100

KELM Del/Ground (Archives)
Elmira, New York, United States

Feed Status: UP
Listen in your browser - HTML5 player(in browser, HTML5)
Click here to listen with your own player(launches your MP3 player)

KELM 012353Z AUTO 29003KT 10SM CLR M06/M13 A3025 RMK AO2 SLP260 T10561133 11022 21056 53009

KELM Airport Info (Airnav.com)

KELM Flight Activity (Flightaware)

Listeners: 0 out of 1550 total

Elmira Clearance Delivery/Ground: 121.900

KELM Emergency/Guard (Archives)
Elmira, New York, United States

Feed Status: UP
Listen in your browser - HTML5 player(in browser, HTML5)
Click here to listen with your own player(launches your MP3 player)

KELM 012353Z AUTO 29003KT 10SM CLR M06/M13 A3025 RMK AO2 SLP260 T10561133 11022 21056 53009

KELM Airport Info (Airnav.com)

KELM Flight Activity (Flightaware)

Listeners: 0 out of 1550 total

Emergency/Guard: 121.500

KELM Tower (Archives)
Elmira, New York, United States

Feed Status: UP
Listen in your browser - HTML5 player(in browser, HTML5)
Click here to listen with your own player(launches your MP3 player)

KELM 012353Z AUTO 29003KT 10SM CLR M06/M13 A3025 RMK AO2 SLP260 T10561133 11022 21056 53009

KELM Airport Info (Airnav.com)

KELM Flight Activity (Flightaware)

Listeners: 0 out of 1550 total

Elmira Tower: 121.100

KEMT Gnd/Twr (Archives)
El Monte, California, United States

Feed Status: UP
Listen in your browser - HTML5 player(in browser, HTML5)
Click here to listen with your own player(launches your MP3 player)

KEMT 012345Z 00000KT 10SM CLR 19/M09 A3013

KEMT Airport Info (Airnav.com)

KEMT Flight Activity (Flightaware)

Listeners: 0 out of 1550 total

El Monte Ground: 125.900
El Monte Tower: 121.200
Santa Fe Dam Practice Area: 123.300

KENW Ground/Tower (Archives)
Kenosha, Wisconsin, United States

Feed Status: UP
Listen in your browser - HTML5 player(in browser, HTML5)
Click here to listen with your own player(launches your MP3 player)

KENW 012353Z 24009KT 10SM CLR M05/M13 A3020 RMK AO2 SLP240 T10501128 11028 21056 58001

KENW Airport Info (Airnav.com)

KENW Flight Activity (Flightaware)

Listeners: 0 out of 1550 total

Kenosha Ground: 121.875
Kenosha Tower: 118.600

KEST CTAF (Archives)
Estherville, Iowa, United States

Feed Status: UP
Listen in your browser - HTML5 player(in browser, HTML5)
Click here to listen with your own player(launches your MP3 player)

KEST 012352Z AUTO 24012KT 10SM CLR M09/M14 A3010 RMK AO2 SLP221 T10941139 11072 21100 53005

KEST Airport Info (Airnav.com)

KEST Flight Activity (Flightaware)

Listeners: 0 out of 1550 total

Estherville CTAF: 122.975

KMAN/KEUL CTAF
Nampa, Idaho, United States

Feed Status: DOWN
Offline since: 2022-04-28 00:26:04 UTC

KMAN 020015Z AUTO 00000KT 10SM M01/M09 A3036 RMK A01

KMAN Airport Info (Airnav.com)

Nampa/Caldwell CTAF/UNICOM: 122.700

KEVB ATIS (Archives)
New Smyrna Beach, Florida, United States

Feed Status: UP
Listen in your browser - HTML5 player(in browser, HTML5)
Click here to listen with your own player(launches your MP3 player)

KEVB 012350Z 03003KT 10SM SCT050 20/19 A3018

KEVB Airport Info (Airnav.com)

KEVB Flight Activity (Flightaware)

Listeners: 0 out of 1550 total

New Smyrna ATIS: 124.625

KEVB Gnd/Twr (Archives)
New Smyrna Beach, Florida, United States

Feed Status: UP
Listen in your browser - HTML5 player(in browser, HTML5)
Click here to listen with your own player(launches your MP3 player)

KEVB 012350Z 03003KT 10SM SCT050 20/19 A3018

KEVB Airport Info (Airnav.com)

KEVB Flight Activity (Flightaware)

Listeners: 0 out of 1550 total

New Smyrna Ground: 121.325
New Smyrna Tower: 119.675

KEVB Ground (Archives)
New Smyrna Beach, Florida, United States

Feed Status: UP
Listen in your browser - HTML5 player(in browser, HTML5)
Click here to listen with your own player(launches your MP3 player)

KEVB 012350Z 03003KT 10SM SCT050 20/19 A3018

KEVB Airport Info (Airnav.com)

KEVB Flight Activity (Flightaware)

Listeners: 0 out of 1550 total

New Smyrna Ground: 121.325

KEVB Tower (Archives)
New Smyrna Beach, Florida, United States

Feed Status: UP
Listen in your browser - HTML5 player(in browser, HTML5)
Click here to listen with your own player(launches your MP3 player)

KEVB 012350Z 03003KT 10SM SCT050 20/19 A3018

KEVB Airport Info (Airnav.com)

KEVB Flight Activity (Flightaware)

Listeners: 0 out of 1550 total

New Smyrna Tower: 119.675

KFAR Tower (Archives)
Fargo, North Dakota, United States

Feed Status: UP
Listen in your browser - HTML5 player(in browser, HTML5)
Click here to listen with your own player(launches your MP3 player)

KFAR 012353Z 25006KT 10SM CLR M14/M17 A3004 RMK AO2 SLP197 T11391167 11106 21144 53007

KFAR Airport Info (Airnav.com)

KFAR Flight Activity (Flightaware)

Listeners: 0 out of 1550 total

Fargo Tower: 133.800

KFCM Tower (Archives)
Minneapolis, Minnesota, United States

Feed Status: UP
Listen in your browser - HTML5 player(in browser, HTML5)
Click here to listen with your own player(launches your MP3 player)

KFCM 012353Z 20010KT 10SM CLR M09/M15 A3007 RMK AO2 SLP206 T10941150 11078 21111 55004

KFCM Airport Info (Airnav.com)

KFCM Flight Activity (Flightaware)

Listeners: 1 out of 1550 total

Flying Cloud Tower: 119.150

KFDK ATIS (Archives)
Frederick, Maryland, United States

Feed Status: UP
Listen in your browser - HTML5 player(in browser, HTML5)
Click here to listen with your own player(launches your MP3 player)

KFDK 012347Z 00000KT 10SM CLR 00/M08 A3031

KFDK Airport Info (Airnav.com)

KFDK Flight Activity (Flightaware)

Listeners: 0 out of 1550 total

Frederick ATIS: 124.875

KFDK Del/Gnd/Twr/CTAF #1 (Archives)
Frederick, Maryland, United States

Feed Status: UP
Listen in your browser - HTML5 player(in browser, HTML5)
Click here to listen with your own player(launches your MP3 player)

KFDK 012347Z 00000KT 10SM CLR 00/M08 A3031

KFDK Airport Info (Airnav.com)

KFDK Flight Activity (Flightaware)

Listeners: 1 out of 1550 total

Clearance Delivery (Potomac Approach): 126.900
Frederick Ground: 121.975
Frederick Tower/CTAF: 132.400

KFFC CTAF (Archives)
Atlanta, Georgia, United States

Feed Status: UP
Listen in your browser - HTML5 player(in browser, HTML5)
Click here to listen with your own player(launches your MP3 player)

KCCO 020015Z AUTO 00000KT 10SM OVC014 14/11 A3021 RMK AO2 T01360106

KCCO Airport Info (Airnav.com)

KCCO Flight Activity (Flightaware)

Listeners: 0 out of 1550 total

Falcon CTAF: 123.050

KFFZ ATIS (Archives)
Mesa, Arizona, United States

Feed Status: UP
Listen in your browser - HTML5 player(in browser, HTML5)
Click here to listen with your own player(launches your MP3 player)

KFFZ Airport Info (Airnav.com)

KFFZ Flight Activity (Flightaware)

Listeners: 0 out of 1550 total

Falcon ATIS: 118.250

KFFZ Ground (Archives)
Mesa, Arizona, United States

Feed Status: UP
Listen in your browser - HTML5 player(in browser, HTML5)
Click here to listen with your own player(launches your MP3 player)

KFFZ Airport Info (Airnav.com)

KFFZ Flight Activity (Flightaware)

Listeners: 0 out of 1550 total

Falcon Ground: 121.300

KFFZ Twr #1 (Archives)
Mesa, Arizona, United States

Feed Status: UP
Listen in your browser - HTML5 player(in browser, HTML5)
Click here to listen with your own player(launches your MP3 player)

KFFZ Airport Info (Airnav.com)

KFFZ Flight Activity (Flightaware)

Listeners: 2 out of 1550 total

Falcon Tower (North, 4L/22R): 119.700
Falcon Tower (South)/CTAF: 124.600

KFFZ Twr #2
Mesa, Arizona, United States

Feed Status: DOWN
Offline since: 2022-12-09 18:48:05 UTC

KFFZ Airport Info (Airnav.com)

Falcon Tower (North, 4L/22R): 119.700
Falcon Tower (South)/CTAF: 124.600

KFFZ Twr (North) (Archives)
Mesa, Arizona, United States

Feed Status: UP
Listen in your browser - HTML5 player(in browser, HTML5)
Click here to listen with your own player(launches your MP3 player)

KFFZ Airport Info (Airnav.com)

KFFZ Flight Activity (Flightaware)

Listeners: 1 out of 1550 total

Falcon Tower (North, 4L/22R): 119.700

KFFZ Twr (South)/CTAF (Archives)
Mesa, Arizona, United States

Feed Status: UP
Listen in your browser - HTML5 player(in browser, HTML5)
Click here to listen with your own player(launches your MP3 player)

KFFZ Airport Info (Airnav.com)

KFFZ Flight Activity (Flightaware)

Listeners: 1 out of 1550 total

Falcon Tower (South)/CTAF: 124.600

KFHU Gnd/Twr/Radar (Archives)
Fort Huachuca/Sierra Vista, Arizona, United States

Feed Status: UP
Listen in your browser - HTML5 player(in browser, HTML5)
Click here to listen with your own player(launches your MP3 player)

KFHU 020014Z AUTO 28008KT 10SM FEW070 10/M01 A3007 RMK AO2 PRESRR SLP180

KFHU Airport Info (Airnav.com)

KFHU Flight Activity (Flightaware)

Listeners: 0 out of 1550 total

Libby AAF GCA Radar: 127.050
Libby AAF GCA Radar: 254.350
Libby Ground: 121.700
Libby Ground: 268.700
Libby Tower: 124.950
Libby Tower: 284.750

KCON/KDAW/KFIT CTAF (Archives)
Fitchburg, Massachusetts, United States

Feed Status: UP
Listen in your browser - HTML5 player(in browser, HTML5)
Click here to listen with your own player(launches your MP3 player)

KMHT 012353Z 29007KT 10SM CLR M03/M15 A3021 RMK AO2 SLP252 4/002 T10281150 11011 21033 53016

KMHT Airport Info (Airnav.com)

KMHT Flight Activity (Flightaware)

Listeners: 0 out of 1550 total

NH/MA Area CTAF: 122.700

KFIT CTAF (Archives)
Fitchburg, Massachusetts, United States

Feed Status: UP
Listen in your browser - HTML5 player(in browser, HTML5)
Click here to listen with your own player(launches your MP3 player)

KFIT 012352Z AUTO 31005KT 10SM CLR M04/M16 A3023 RMK AO2 SLP242 T10441156 11006 21044 51016

KFIT Airport Info (Airnav.com)

KFIT Flight Activity (Flightaware)

Listeners: 0 out of 1550 total

Fitchburg CTAF/UNICOM: 122.700

KFIT CTAF/FSS RCO (Archives)
Fitchburg, Massachusetts, United States

Feed Status: UP
Listen in your browser - HTML5 player(in browser, HTML5)
Click here to listen with your own player(launches your MP3 player)

KFIT 012352Z AUTO 31005KT 10SM CLR M04/M16 A3023 RMK AO2 SLP242 T10441156 11006 21044 51016

KFIT Airport Info (Airnav.com)

KFIT Flight Activity (Flightaware)

Listeners: 0 out of 1550 total

Bridgeport Radio (FSS via RCO): 119.025
Emergency/Guard: 121.500
Fitchburg CTAF/UNICOM: 122.700

MA/NH/RI/CT Area CTAF (Archives)
Fitchburg, Massachusetts, United States

Feed Status: UP
Listen in your browser - HTML5 player(in browser, HTML5)
Click here to listen with your own player(launches your MP3 player)

KBOS 012354Z 30006KT 10SM CLR M01/M16 A3024 RMK AO2 SLP240 T10111156 11011 21028 51014

KBOS Airport Info (Airnav.com)

KBOS Flight Activity (Flightaware)

Listeners: 0 out of 1550 total

Air-to-Air: 122.750
Bridgeport Flight Service: 122.200
CTAF: 122.700
CTAF: 122.800
CTAF: 122.900
CTAF: 123.000
Emergency/Guard: 121.500

MA/NH/RI/CT Area CTAF (Archives)
Fitchburg, Massachusetts, United States

Feed Status: UP
Listen in your browser - HTML5 player(in browser, HTML5)
Click here to listen with your own player(launches your MP3 player)

KBOS 012354Z 30006KT 10SM CLR M01/M16 A3024 RMK AO2 SLP240 T10111156 11011 21028 51014

KBOS Airport Info (Airnav.com)

KBOS Flight Activity (Flightaware)

Listeners: 0 out of 1550 total

Air-to-Air: 122.750
Bridgeport Flight Service: 122.200
CTAF: 122.700
CTAF: 122.800
CTAF: 122.900
CTAF: 123.000
Emergency/Guard: 121.500

MA/NH/RI/CT Area CTAF (Archives)
Fitchburg, Massachusetts, United States

Feed Status: UP
Listen in your browser - HTML5 player(in browser, HTML5)
Click here to listen with your own player(launches your MP3 player)

KBOS 012354Z 30006KT 10SM CLR M01/M16 A3024 RMK AO2 SLP240 T10111156 11011 21028 51014

KBOS Airport Info (Airnav.com)

KBOS Flight Activity (Flightaware)

Listeners: 0 out of 1550 total

Air-to-Air: 122.750
Bridgeport Flight Service: 122.200
CTAF: 122.700
CTAF: 122.800
CTAF: 122.900
CTAF: 123.000
Emergency/Guard: 121.500

KFKA CTAF (Archives)
Preston, Minnesota, United States

Feed Status: UP
Listen in your browser - HTML5 player(in browser, HTML5)
Click here to listen with your own player(launches your MP3 player)

KFKA 020015Z AUTO 21009KT 10SM SCT095 M09/M13 A3012 RMK AO2 T10871130

KFKA Airport Info (Airnav.com)

KFKA Flight Activity (Flightaware)

Listeners: 0 out of 1550 total

Preston CTAF: 122.900

KFLG Ground/Tower (Archives)
Flagstaff, Arizona, United States

Feed Status: UP
Listen in your browser - HTML5 player(in browser, HTML5)
Click here to listen with your own player(launches your MP3 player)

KFLG 012357Z AUTO 05005KT 10SM CLR 01/M10 A3016 RMK AO2 SLP227 T00111100 10022 21006 53005

KFLG Airport Info (Airnav.com)

KFLG Flight Activity (Flightaware)

Listeners: 0 out of 1550 total

Flagstaff Ground: 121.900
Flagstaff Tower: 134.550

KFLO App/Dep (Archives)
Florence, South Carolina, United States

Feed Status: UP
Listen in your browser - HTML5 player(in browser, HTML5)
Click here to listen with your own player(launches your MP3 player)

KFLO 012353Z 06007KT 10SM OVC021 09/06 A3025 RMK AO2 SLP241 T00940056 10128 20094 51020

KFLO Airport Info (Airnav.com)

KFLO Flight Activity (Flightaware)

Listeners: 0 out of 1550 total

Florence Approach: 135.250
Florence Approach: 118.600

KFLO ATIS (Archives)
Florence, South Carolina, United States

Feed Status: UP
Listen in your browser - HTML5 player(in browser, HTML5)
Click here to listen with your own player(launches your MP3 player)

KFLO 012353Z 06007KT 10SM OVC021 09/06 A3025 RMK AO2 SLP241 T00940056 10128 20094 51020

KFLO Airport Info (Airnav.com)

KFLO Flight Activity (Flightaware)

Listeners: 0 out of 1550 total

Florence ATIS: 123.625

KFLO Emergency/Guard (Archives)
Florence, South Carolina, United States

Feed Status: UP
Listen in your browser - HTML5 player(in browser, HTML5)
Click here to listen with your own player(launches your MP3 player)

KFLO 012353Z 06007KT 10SM OVC021 09/06 A3025 RMK AO2 SLP241 T00940056 10128 20094 51020

KFLO Airport Info (Airnav.com)

KFLO Flight Activity (Flightaware)

Listeners: 0 out of 1550 total

Emergency/Guard: 121.500

KFLO Gnd/Twr/App
Florence, South Carolina, United States

Feed Status: DOWN
Offline since: 2023-01-29 17:16:39 UTC

KFLO 012353Z 06007KT 10SM OVC021 09/06 A3025 RMK AO2 SLP241 T00940056 10128 20094 51020

KFLO Airport Info (Airnav.com)

Florence Approach: 118.600
Florence Approach: 135.250
Florence Ground: 121.900
Florence Tower: 125.100

KFLO Ground (Archives)
Florence, South Carolina, United States

Feed Status: UP
Listen in your browser - HTML5 player(in browser, HTML5)
Click here to listen with your own player(launches your MP3 player)

KFLO 012353Z 06007KT 10SM OVC021 09/06 A3025 RMK AO2 SLP241 T00940056 10128 20094 51020

KFLO Airport Info (Airnav.com)

KFLO Flight Activity (Flightaware)

Listeners: 0 out of 1550 total

Florence Ground: 121.900

KFLO Tower (Archives)
Florence, South Carolina, United States

Feed Status: UP
Listen in your browser - HTML5 player(in browser, HTML5)
Click here to listen with your own player(launches your MP3 player)

KFLO 012353Z 06007KT 10SM OVC021 09/06 A3025 RMK AO2 SLP241 T00940056 10128 20094 51020

KFLO Airport Info (Airnav.com)

KFLO Flight Activity (Flightaware)

Listeners: 0 out of 1550 total

Florence Tower: 125.100

Boston Approach (Cape North)
Falmouth, Massachusetts, United States

Feed Status: DOWN
Offline since: 2023-01-18 15:21:21 UTC

KFMH 012345Z 00000KT 10SM CLR M06/M09 A3023

KFMH Airport Info (Airnav.com)

Boston Approach (Cape North Arrival): 118.200

Boston Approach (OTIS Arrival)
Falmouth, Massachusetts, United States

Feed Status: DOWN
Offline since: 2023-01-18 15:21:21 UTC

KFMH 012345Z 00000KT 10SM CLR M06/M09 A3023

KFMH Airport Info (Airnav.com)

Boston Approach (OTIS Arrival): 126.300

KFMH ATIS
Falmouth, Massachusetts, United States

Feed Status: DOWN
Offline since: 2023-01-18 15:21:21 UTC

KFMH 012345Z 00000KT 10SM CLR M06/M09 A3023

KFMH Airport Info (Airnav.com)

Coast Guard ATIS: 120.475

KFMH Ground
Falmouth, Massachusetts, United States

Feed Status: DOWN
Offline since: 2023-01-18 15:21:21 UTC

KFMH 012345Z 00000KT 10SM CLR M06/M09 A3023

KFMH Airport Info (Airnav.com)

Coast Guard Ground: 124.150

KFMH Tower
Falmouth, Massachusetts, United States

Feed Status: DOWN
Offline since: 2023-01-18 15:21:21 UTC

KFMH 012345Z 00000KT 10SM CLR M06/M09 A3023

KFMH Airport Info (Airnav.com)

Coast Guard Tower: 128.425

KFMN Gnd/Twr/App (Archives)
Farmington, New Mexico, United States

Feed Status: UP
Listen in your browser - HTML5 player(in browser, HTML5)
Click here to listen with your own player(launches your MP3 player)

KFMN 012353Z 26007KT 10SM CLR 02/M16 A3016 RMK AO2 SLP247 T00221161 10033 21022 55003

KFMN Airport Info (Airnav.com)

KFMN Flight Activity (Flightaware)

Listeners: 0 out of 1550 total

Denver Center (Sector 36 Farmington Low): 118.575
Emergency/Guard: 121.500
Farmington Ground: 121.700
Farmington Tower: 118.900

KFMY ATIS (Archives)
Fort Myers, Florida, United States

Feed Status: UP
Listen in your browser - HTML5 player(in browser, HTML5)
Click here to listen with your own player(launches your MP3 player)

KFMY 012353Z AUTO 23003KT 10SM CLR 24/19 A3017 RMK AO2 SLP218 T02440194 10289 20244 53012

KFMY Airport Info (Airnav.com)

KFMY Flight Activity (Flightaware)

Listeners: 0 out of 1550 total

Page ATIS: 123.725

KFMY Del/Gnd/Twr (Archives)
Fort Myers, Florida, United States

Feed Status: UP
Listen in your browser - HTML5 player(in browser, HTML5)
Click here to listen with your own player(launches your MP3 player)

KFMY 012353Z AUTO 23003KT 10SM CLR 24/19 A3017 RMK AO2 SLP218 T02440194 10289 20244 53012

KFMY Airport Info (Airnav.com)

KFMY Flight Activity (Flightaware)

Listeners: 0 out of 1550 total

Page Clearance/Ground: 121.700
Page Tower: 119.000

KFNL ASRI (FBO) (Archives)
Fort Collins/Loveland, Colorado, United States

Feed Status: UP
Listen in your browser - HTML5 player(in browser, HTML5)
Click here to listen with your own player(launches your MP3 player)

KFNL 012356Z 00000KT 10SM CLR M01/M09 A3010 RMK AO2 SLP245 T10111094 10022 21061 53014 FZRANO

KFNL Airport Info (Airnav.com)

KFNL Flight Activity (Flightaware)

Listeners: 0 out of 1550 total

Fort Collins ASRI (FBO): 130.575

KFNL Ground (Archives)
Fort Collins/Loveland, Colorado, United States

Feed Status: UP
Listen in your browser - HTML5 player(in browser, HTML5)
Click here to listen with your own player(launches your MP3 player)

KFNL 012356Z 00000KT 10SM CLR M01/M09 A3010 RMK AO2 SLP245 T10111094 10022 21061 53014 FZRANO

KFNL Airport Info (Airnav.com)

KFNL Flight Activity (Flightaware)

Listeners: 0 out of 1550 total

Fort Collins Ground: 121.650

KFNL Tower/CTAF (Archives)
Fort Collins/Loveland, Colorado, United States

Feed Status: UP
Listen in your browser - HTML5 player(in browser, HTML5)
Click here to listen with your own player(launches your MP3 player)

KFNL 012356Z 00000KT 10SM CLR M01/M09 A3010 RMK AO2 SLP245 T10111094 10022 21061 53014 FZRANO

KFNL Airport Info (Airnav.com)

KFNL Flight Activity (Flightaware)

Listeners: 1 out of 1550 total

Fort Collins Tower/CTAF: 118.400

KFPR ATIS #1 (Archives)
Fort Pierce, Florida, United States

Feed Status: UP
Listen in your browser - HTML5 player(in browser, HTML5)
Click here to listen with your own player(launches your MP3 player)

KFPR 012353Z 10004KT 10SM CLR 22/20 A3018 RMK AO2 SLP218 T02220200 10294 20222 53009

KFPR Airport Info (Airnav.com)

KFPR Flight Activity (Flightaware)

Listeners: 0 out of 1550 total

Fort Pierce ATIS: 134.825

KFPR Gnd/Twr #1 (Archives)
Fort Pierce, Florida, United States

Feed Status: UP
Listen in your browser - HTML5 player(in browser, HTML5)
Click here to listen with your own player(launches your MP3 player)

KFPR 012353Z 10004KT 10SM CLR 22/20 A3018 RMK AO2 SLP218 T02220200 10294 20222 53009

KFPR Airport Info (Airnav.com)

KFPR Flight Activity (Flightaware)

Listeners: 0 out of 1550 total

Ft Pierce Ground: 119.550
Ft Pierce Tower: 128.200

KFPR Ground (Archives)
Fort Pierce, Florida, United States

Feed Status: UP
Listen in your browser - HTML5 player(in browser, HTML5)
Click here to listen with your own player(launches your MP3 player)

KFPR 012353Z 10004KT 10SM CLR 22/20 A3018 RMK AO2 SLP218 T02220200 10294 20222 53009

KFPR Airport Info (Airnav.com)

KFPR Flight Activity (Flightaware)

Listeners: 0 out of 1550 total

Ft Pierce Ground: 119.550

KFPR Tower (Archives)
Fort Pierce, Florida, United States

Feed Status: UP
Listen in your browser - HTML5 player(in browser, HTML5)
Click here to listen with your own player(launches your MP3 player)

KFPR 012353Z 10004KT 10SM CLR 22/20 A3018 RMK AO2 SLP218 T02220200 10294 20222 53009

KFPR Airport Info (Airnav.com)

KFPR Flight Activity (Flightaware)

Listeners: 0 out of 1550 total

Ft Pierce Tower: 128.200

Palm Beach App/Dep (Archives)
Fort Pierce, Florida, United States

Feed Status: UP
Listen in your browser - HTML5 player(in browser, HTML5)
Click here to listen with your own player(launches your MP3 player)

KFPR 012353Z 10004KT 10SM CLR 22/20 A3018 RMK AO2 SLP218 T02220200 10294 20222 53009

KFPR Airport Info (Airnav.com)

KFPR Flight Activity (Flightaware)

Listeners: 0 out of 1550 total

Palm Beach Approach/Departure: 123.625

KFRG ATIS (Archives)
Farmingdale, New York, United States

Feed Status: UP
Listen in your browser - HTML5 player(in browser, HTML5)
Click here to listen with your own player(launches your MP3 player)

KFRG 012353Z AUTO 00000KT 10SM CLR 01/M08 A3025 RMK AO2 SLP244 T00061078 10028 20006 53012

KFRG Airport Info (Airnav.com)

KFRG Flight Activity (Flightaware)

Listeners: 0 out of 1550 total

Republic ATIS: 126.650

KFRG Delivery/Ground (Archives)
Farmingdale, New York, United States

Feed Status: UP
Listen in your browser - HTML5 player(in browser, HTML5)
Click here to listen with your own player(launches your MP3 player)

KFRG 012353Z AUTO 00000KT 10SM CLR 01/M08 A3025 RMK AO2 SLP244 T00061078 10028 20006 53012

KFRG Airport Info (Airnav.com)

KFRG Flight Activity (Flightaware)

Listeners: 0 out of 1550 total

Emergency/Guard: 121.500
Republic Clearance Delivery: 128.250
Republic Ground: 121.600

KFRG Tower (Archives)
Farmingdale, New York, United States

Feed Status: UP
Listen in your browser - HTML5 player(in browser, HTML5)
Click here to listen with your own player(launches your MP3 player)

KFRG 012353Z AUTO 00000KT 10SM CLR 01/M08 A3025 RMK AO2 SLP244 T00061078 10028 20006 53012

KFRG Airport Info (Airnav.com)

KFRG Flight Activity (Flightaware)

Listeners: 0 out of 1550 total

Republic Tower: 118.800

KFRM CTAF (Air Race Classic)
Fairmont, Minnesota, United States

Feed Status: DOWN
Offline since: 2019-06-25 18:58:03 UTC

Fairmont CTAF: 122.800

KFSD Twr/App/Dep/ZMP (Archives)
Sioux Falls, South Dakota, United States

Feed Status: UP
Listen in your browser - HTML5 player(in browser, HTML5)
Click here to listen with your own player(launches your MP3 player)

KFSD 012356Z 00000KT 10SM FEW100 M09/M15 A3010 RMK AO2 SLP229 4/017 T10941150 11067 21094 53007

KFSD Airport Info (Airnav.com)

KFSD Flight Activity (Flightaware)

Listeners: 1 out of 1550 total

Minneapolis Center (Sector 33 PIR Low): 132.050
Sioux Falls Approach/Departure: 125.800
Sioux Falls Tower: 118.300

KFTW Del/Gnd/Twr (Archives)
Fort Worth, Texas, United States

Feed Status: UP
Listen in your browser - HTML5 player(in browser, HTML5)
Click here to listen with your own player(launches your MP3 player)

KFTW 020017Z 02007KT 2SM BR SCT006 BKN011 OVC095 M02/M02 A3030 RMK AO2 UPB12E16FZRAE12 PRESFR I1000 T10171022 PNO $

KFTW Airport Info (Airnav.com)

KFTW Flight Activity (Flightaware)

Listeners: 1 out of 1550 total

Meacham Clearance Delivery: 124.650
Meacham Ground: 121.900
Meacham Tower: 118.300

KFTW Del/Ground (Archives)
Fort Worth, Texas, United States

Feed Status: UP
Listen in your browser - HTML5 player(in browser, HTML5)
Click here to listen with your own player(launches your MP3 player)

KFTW 020017Z 02007KT 2SM BR SCT006 BKN011 OVC095 M02/M02 A3030 RMK AO2 UPB12E16FZRAE12 PRESFR I1000 T10171022 PNO $

KFTW Airport Info (Airnav.com)

KFTW Flight Activity (Flightaware)

Listeners: 0 out of 1550 total

Meacham Clearance Delivery: 124.650
Meacham Ground: 121.900

KFTW Tower (Archives)
Fort Worth, Texas, United States

Feed Status: UP
Listen in your browser - HTML5 player(in browser, HTML5)
Click here to listen with your own player(launches your MP3 player)

KFTW 020017Z 02007KT 2SM BR SCT006 BKN011 OVC095 M02/M02 A3030 RMK AO2 UPB12E16FZRAE12 PRESFR I1000 T10171022 PNO $

KFTW Airport Info (Airnav.com)

KFTW Flight Activity (Flightaware)

Listeners: 0 out of 1550 total

Meacham Tower: 118.300

Regional App (Meacham North) (Archives)
Fort Worth, Texas, United States

Feed Status: UP
Listen in your browser - HTML5 player(in browser, HTML5)
Click here to listen with your own player(launches your MP3 player)

KFTW 020017Z 02007KT 2SM BR SCT006 BKN011 OVC095 M02/M02 A3030 RMK AO2 UPB12E16FZRAE12 PRESFR I1000 T10171022 PNO $

KFTW Airport Info (Airnav.com)

KFTW Flight Activity (Flightaware)

Listeners: 0 out of 1550 total

Regional Approach (Meacham North): 118.100

Regional App (Meacham South) (Archives)
Fort Worth, Texas, United States

Feed Status: UP
Listen in your browser - HTML5 player(in browser, HTML5)
Click here to listen with your own player(launches your MP3 player)

KDFW 020008Z 01008KT 2SM -FZRA SCT011 OVC075 M01/M03 A3033 RMK AO2 SFC VIS 8 P0001 I1000 T10111033 $

KDFW Airport Info (Airnav.com)

KDFW Flight Activity (Flightaware)

Listeners: 0 out of 1550 total

Regional Approach (Meacham South): 135.975

Regional Approach (Meacham North/South) (Archives)
Fort Worth, Texas, United States

Feed Status: UP
Listen in your browser - HTML5 player(in browser, HTML5)
Click here to listen with your own player(launches your MP3 player)

KFTW 020017Z 02007KT 2SM BR SCT006 BKN011 OVC095 M02/M02 A3030 RMK AO2 UPB12E16FZRAE12 PRESFR I1000 T10171022 PNO $

KFTW Airport Info (Airnav.com)

KFTW Flight Activity (Flightaware)

Listeners: 0 out of 1550 total

Regional Approach (Meacham North): 118.100
Regional Approach (Meacham South): 135.975

Atlanta Approach (N. Sat) (Archives)
Atlanta, Georgia, United States

Feed Status: UP
Listen in your browser - HTML5 player(in browser, HTML5)
Click here to listen with your own player(launches your MP3 player)

KRYY 012350Z 00000KT 10SM OVC014 08/06 A3024 RMK AO2 SLP238 T00830056 10117 20083 51019 $

KRYY Airport Info (Airnav.com)

KRYY Flight Activity (Flightaware)

Listeners: 0 out of 1550 total

Atlanta Approach (North Satellite): 121.000

KFTY Ground/Tower (Archives)
Atlanta, Georgia, United States

Feed Status: UP
Listen in your browser - HTML5 player(in browser, HTML5)
Click here to listen with your own player(launches your MP3 player)

KFTY 012353Z 02005KT 10SM OVC018 11/07 A3021 RMK AO2 SLP230 T01110072 10139 20111 51016

KFTY Airport Info (Airnav.com)

KFTY Flight Activity (Flightaware)

Listeners: 0 out of 1550 total

County Ground: 121.700
County Tower: 118.450

KFUL Ground/Tower (Archives)
Fullerton, California, United States

Feed Status: UP
Listen in your browser - HTML5 player(in browser, HTML5)
Click here to listen with your own player(launches your MP3 player)

KFUL 012353Z 22006KT 10SM CLR 21/M07 A3012 RMK AO2 SLP201 T02061067 10222 20178 53004

KFUL Airport Info (Airnav.com)

KFUL Flight Activity (Flightaware)

Listeners: 0 out of 1550 total

Fullerton Ground: 121.800
Fullerton Tower: 119.100

KFWS Ground/Tower (Archives)
Fort Worth, Texas, United States

Feed Status: UP
Listen in your browser - HTML5 player(in browser, HTML5)
Click here to listen with your own player(launches your MP3 player)

KFWS 012355Z 36006KT 3SM -SN BKN005 OVC019 M01/M02 A3033

KFWS Airport Info (Airnav.com)

KFWS Flight Activity (Flightaware)

Listeners: 0 out of 1550 total

Spinks Ground: 119.475
Spinks Tower/CTAF: 124.625

KFXE ATIS (Archives)
Fort Lauderdale, Florida, United States

Feed Status: UP
Listen in your browser - HTML5 player(in browser, HTML5)
Click here to listen with your own player(launches your MP3 player)

KFXE 012353Z 13006KT 10SM CLR 25/21 A3018 RMK AO2 SLP221 6//// T02500206 10289 20250 53010 PNO $

KFXE Airport Info (Airnav.com)

KFXE Flight Activity (Flightaware)

Listeners: 0 out of 1550 total

Executive ATIS: 119.850

KFXE Ground (Archives)
Fort Lauderdale, Florida, United States

Feed Status: UP
Listen in your browser - HTML5 player(in browser, HTML5)
Click here to listen with your own player(launches your MP3 player)

KFXE 012353Z 13006KT 10SM CLR 25/21 A3018 RMK AO2 SLP221 6//// T02500206 10289 20250 53010 PNO $

KFXE Airport Info (Airnav.com)

KFXE Flight Activity (Flightaware)

Listeners: 2 out of 1550 total

Executive Ground: 121.750

KFXE Practice Area (Archives)
Fort Lauderdale, Florida, United States

Feed Status: UP
Listen in your browser - HTML5 player(in browser, HTML5)
Click here to listen with your own player(launches your MP3 player)

KFXE 012353Z 13006KT 10SM CLR 25/21 A3018 RMK AO2 SLP221 6//// T02500206 10289 20250 53010 PNO $

KFXE Airport Info (Airnav.com)

KFXE Flight Activity (Flightaware)

Listeners: 0 out of 1550 total

Coral Springs/Everglades Practice Area: 123.450

KFXE Tower #1 (Archives)
Fort Lauderdale, Florida, United States

Feed Status: UP
Listen in your browser - HTML5 player(in browser, HTML5)
Click here to listen with your own player(launches your MP3 player)

KFXE 012353Z 13006KT 10SM CLR 25/21 A3018 RMK AO2 SLP221 6//// T02500206 10289 20250 53010 PNO $

KFXE Airport Info (Airnav.com)

KFXE Flight Activity (Flightaware)

Listeners: 1 out of 1550 total

Ft. Lauderdale Exec Tower: 120.900

KFYV Gnd/Twr/App/ZME (Archives)
Fayetteville, Arkansas, United States

Feed Status: UP
Listen in your browser - HTML5 player(in browser, HTML5)
Click here to listen with your own player(launches your MP3 player)

KFYV 012353Z 27003KT 10SM OVC016 M01/M04 A3031 RMK AO2 SLP276 T10061039 10000 21017 53008

KFYV Airport Info (Airnav.com)

KFYV Flight Activity (Flightaware)

Listeners: 1 out of 1550 total

Drake Ground: 121.800
Drake Tower: 128.000
Jonesboro Flight Service Station (FSS): 122.300
Memphis Center (High): 132.550
Memphis Center (High): 353.800
Razorback Approach: 121.000

KGAI CTAF/UNICOM (Archives)
Gaithersburg, Maryland, United States

Feed Status: UP
Listen in your browser - HTML5 player(in browser, HTML5)
Click here to listen with your own player(launches your MP3 player)

KGAI 012356Z AUTO 00000KT 10SM CLR M02/M07 A3030 RMK AO2 SLP281 T10221072 10022 21022 51008 FZRANO

KGAI Airport Info (Airnav.com)

KGAI Flight Activity (Flightaware)

Listeners: 0 out of 1550 total

Gaithersburg CTAF: 123.075

KGBG CTAF (Archives)
Galesburg, Illinois, United States

Feed Status: UP
Listen in your browser - HTML5 player(in browser, HTML5)
Click here to listen with your own player(launches your MP3 player)

KGBG 020015Z AUTO 19007KT 10SM CLR M02/M09 A3025 RMK AO2 T10231086

KGBG Airport Info (Airnav.com)

KGBG Flight Activity (Flightaware)

Listeners: 0 out of 1550 total

Emergency/Guard: 121.500
Galesburg CTAF: 123.000

KGBR/20N CTAF
Great Barrington, Massachusetts, United States

Feed Status: DOWN
Offline since: 2020-11-21 13:08:39 UTC

KGBR Airport Info (Airnav.com)

Great Barrington CTAF: 122.800

KGDM/KORE CTAF (Archives)
Gardner, Massachusetts, United States

Feed Status: UP
Listen in your browser - HTML5 player(in browser, HTML5)
Click here to listen with your own player(launches your MP3 player)

KGDM Airport Info (Airnav.com)

KGDM Flight Activity (Flightaware)

Listeners: 0 out of 1550 total

Gardner CTAF: 122.800

KGED ASOS (Archives)
Georgetown, Delaware, United States

Feed Status: UP
Listen in your browser - HTML5 player(in browser, HTML5)
Click here to listen with your own player(launches your MP3 player)

KGED 012354Z AUTO 00000KT 10SM CLR 02/M09 A3031 RMK AO2 SLP264 T00171094 10050 20011 53014 $

KGED Airport Info (Airnav.com)

KGED Flight Activity (Flightaware)

Listeners: 0 out of 1550 total

Georgetown ASOS: 118.375

KGED Clearance Delivery (Archives)
Georgetown, Delaware, United States

Feed Status: UP
Listen in your browser - HTML5 player(in browser, HTML5)
Click here to listen with your own player(launches your MP3 player)

KGED 012354Z AUTO 00000KT 10SM CLR 02/M09 A3031 RMK AO2 SLP264 T00171094 10050 20011 53014 $

KGED Airport Info (Airnav.com)

KGED Flight Activity (Flightaware)

Listeners: 0 out of 1550 total

Georgetown Clearance Delivery (Dover Approach): 125.550

KGED CTAF (Archives)
Georgetown, Delaware, United States

Feed Status: UP
Listen in your browser - HTML5 player(in browser, HTML5)
Click here to listen with your own player(launches your MP3 player)

KGED 012354Z AUTO 00000KT 10SM CLR 02/M09 A3031 RMK AO2 SLP264 T00171094 10050 20011 53014 $

KGED Airport Info (Airnav.com)

KGED Flight Activity (Flightaware)

Listeners: 0 out of 1550 total

Georgetown CTAF: 123.000

KGED Emergency/Guard (Archives)
Georgetown, Delaware, United States

Feed Status: UP
Listen in your browser - HTML5 player(in browser, HTML5)
Click here to listen with your own player(launches your MP3 player)

KGED 012354Z AUTO 00000KT 10SM CLR 02/M09 A3031 RMK AO2 SLP264 T00171094 10050 20011 53014 $

KGED Airport Info (Airnav.com)

KGED Flight Activity (Flightaware)

Listeners: 0 out of 1550 total

Emergency/Guard: 121.500

KGEU App/Dep (Archives)
Glendale, Arizona, United States

Feed Status: UP
Listen in your browser - HTML5 player(in browser, HTML5)
Click here to listen with your own player(launches your MP3 player)

KGEU 012350Z 25007KT 10SM SKC 19/M03 A3004

KGEU Airport Info (Airnav.com)

KGEU Flight Activity (Flightaware)

Listeners: 0 out of 1550 total

Luke Approach/Departure: 118.150

KGEU ATIS (Archives)
Glendale, Arizona, United States

Feed Status: UP
Listen in your browser - HTML5 player(in browser, HTML5)
Click here to listen with your own player(launches your MP3 player)

KGEU 012350Z 25007KT 10SM SKC 19/M03 A3004

KGEU Airport Info (Airnav.com)

KGEU Flight Activity (Flightaware)

Listeners: 0 out of 1550 total

Glendale ATIS: 119.425

KGEU Ground (Archives)
Glendale, Arizona, United States

Feed Status: UP
Listen in your browser - HTML5 player(in browser, HTML5)
Click here to listen with your own player(launches your MP3 player)

KGEU 012350Z 25007KT 10SM SKC 19/M03 A3004

KGEU Airport Info (Airnav.com)

KGEU Flight Activity (Flightaware)

Listeners: 0 out of 1550 total

Glendale Ground: 118.000

KGEU Tower (Archives)
Glendale, Arizona, United States

Feed Status: UP
Listen in your browser - HTML5 player(in browser, HTML5)
Click here to listen with your own player(launches your MP3 player)

KGEU 012350Z 25007KT 10SM SKC 19/M03 A3004

KGEU Airport Info (Airnav.com)

KGEU Flight Activity (Flightaware)

Listeners: 0 out of 1550 total

Glendale Tower: 121.000

KGFK Approach (Archives)
Grand Forks, North Dakota, United States

Feed Status: UP
Listen in your browser - HTML5 player(in browser, HTML5)
Click here to listen with your own player(launches your MP3 player)

KGFK 012353Z 19003KT 10SM FEW130 M17/M21 A3000 RMK AO2 SLP186 4/013 T11721211 11133 21178 50000

KGFK Airport Info (Airnav.com)

KGFK Flight Activity (Flightaware)

Listeners: 0 out of 1550 total

Grand Forks Approach: 118.100
Grand Forks Approach (VFR): 132.300

KGFK ATIS (Archives)
Grand Forks, North Dakota, United States

Feed Status: UP
Listen in your browser - HTML5 player(in browser, HTML5)
Click here to listen with your own player(launches your MP3 player)

KGFK 012353Z 19003KT 10SM FEW130 M17/M21 A3000 RMK AO2 SLP186 4/013 T11721211 11133 21178 50000

KGFK Airport Info (Airnav.com)

KGFK Flight Activity (Flightaware)

Listeners: 0 out of 1550 total

Grand Forks ATIS: 119.400

KGFK Ground (Archives)
Grand Forks, North Dakota, United States

Feed Status: UP
Listen in your browser - HTML5 player(in browser, HTML5)
Click here to listen with your own player(launches your MP3 player)

KGFK 012353Z 19003KT 10SM FEW130 M17/M21 A3000 RMK AO2 SLP186 4/013 T11721211 11133 21178 50000

KGFK Airport Info (Airnav.com)

KGFK Flight Activity (Flightaware)

Listeners: 0 out of 1550 total

Grand Forks Ground: 124.575

KGFK Tower 1 (118.4/IFR/VFR) (Archives)
Grand Forks, North Dakota, United States

Feed Status: UP
Listen in your browser - HTML5 player(in browser, HTML5)
Click here to listen with your own player(launches your MP3 player)

KGFK 012353Z 19003KT 10SM FEW130 M17/M21 A3000 RMK AO2 SLP186 4/013 T11721211 11133 21178 50000

KGFK Airport Info (Airnav.com)

KGFK Flight Activity (Flightaware)

Listeners: 0 out of 1550 total

Grand Forks Tower (IFR/VFR): 118.400

KGFK Tower 2 (120.55/VFR) (Archives)
Grand Forks, North Dakota, United States

Feed Status: UP
Listen in your browser - HTML5 player(in browser, HTML5)
Click here to listen with your own player(launches your MP3 player)

KGFK 012353Z 19003KT 10SM FEW130 M17/M21 A3000 RMK AO2 SLP186 4/013 T11721211 11133 21178 50000

KGFK Airport Info (Airnav.com)

KGFK Flight Activity (Flightaware)

Listeners: 0 out of 1550 total

Grand Forks Tower (VFR): 120.550

KGFL CTAF/App (Archives)
Glens Falls, New York, United States

Feed Status: UP
Listen in your browser - HTML5 player(in browser, HTML5)
Click here to listen with your own player(launches your MP3 player)

KGFL 012353Z AUTO 21007KT 10SM OVC055 M06/M14 A3024 RMK AO2 SLP253 T10561144 11028 21056 51013

KGFL Airport Info (Airnav.com)

KGFL Flight Activity (Flightaware)

Listeners: 0 out of 1550 total

Albany Approach: 118.050
Albany Approach: 132.825
Glens Falls Unicom: 123.000
Unicom (Granville, Schroon Lake, Argyle, Heber Air: 122.900
Unicom (Saratoga Co., Rutland, Ticonderoga, Round : 122.800

KGIF ASOS (Archives)
Winter Haven, Florida, United States

Feed Status: UP
Listen in your browser - HTML5 player(in browser, HTML5)
Click here to listen with your own player(launches your MP3 player)

KGIF 012353Z AUTO 32004KT 10SM BKN050 OVC060 24/17 A3019 RMK AO2 SLP220 T02390167 10283 20239 53010

KGIF Airport Info (Airnav.com)

KGIF Flight Activity (Flightaware)

Listeners: 0 out of 1550 total

Winter Haven ASOS: 133.675

KGIF CTAF/GCO/Guard (Archives)
Winter Haven, Florida, United States

Feed Status: UP
Listen in your browser - HTML5 player(in browser, HTML5)
Click here to listen with your own player(launches your MP3 player)

KGIF 012353Z AUTO 32004KT 10SM BKN050 OVC060 24/17 A3019 RMK AO2 SLP220 T02390167 10283 20239 53010

KGIF Airport Info (Airnav.com)

KGIF Flight Activity (Flightaware)

Listeners: 0 out of 1550 total

Emergency/Guard: 121.500
Winter Haven CTAF: 123.050
Winter Haven GCO (Clearance Delivery): 121.725

KGIF GCO/Guard (Archives)
Winter Haven, Florida, United States

Feed Status: UP
Listen in your browser - HTML5 player(in browser, HTML5)
Click here to listen with your own player(launches your MP3 player)

KGIF 012353Z AUTO 32004KT 10SM BKN050 OVC060 24/17 A3019 RMK AO2 SLP220 T02390167 10283 20239 53010

KGIF Airport Info (Airnav.com)

KGIF Flight Activity (Flightaware)

Listeners: 0 out of 1550 total

Emergency/Guard: 121.500
Winter Haven GCO (Clearance Delivery): 121.725

KGIF/F57 CTAF (Archives)
Winter Haven, Florida, United States

Feed Status: UP
Listen in your browser - HTML5 player(in browser, HTML5)
Click here to listen with your own player(launches your MP3 player)

KGIF 012353Z AUTO 32004KT 10SM BKN050 OVC060 24/17 A3019 RMK AO2 SLP220 T02390167 10283 20239 53010

KGIF Airport Info (Airnav.com)

KGIF Flight Activity (Flightaware)

Listeners: 0 out of 1550 total

Winter Haven CTAF: 123.050

KGJT Gnd/Twr/App/ZDV (Archives)
Grand Junction, Colorado, United States

Feed Status: UP
Listen in your browser - HTML5 player(in browser, HTML5)
Click here to listen with your own player(launches your MP3 player)

KGJT 012353Z AUTO 30005KT 10SM CLR 01/M11 A3026 RMK AO2 SLP280 T00061106 10022 21039 53002

KGJT Airport Info (Airnav.com)

KGJT Flight Activity (Flightaware)

Listeners: 2 out of 1550 total

Denver Approach: 119.700
Denver Center (Sector 11 Grand Junction Low): 134.500
Grand Junction Ground: 121.700
Grand Junction Tower: 118.100

KGKT CTAF (Archives)
Sevierville, Tennessee, United States

Feed Status: UP
Listen in your browser - HTML5 player(in browser, HTML5)
Click here to listen with your own player(launches your MP3 player)

KGKT 020015Z AUTO 00000KT 9SM OVC005 05/05 A3024 RMK A01

KGKT Airport Info (Airnav.com)

KGKT Flight Activity (Flightaware)

Listeners: 0 out of 1550 total

Gatlinburg CTAF: 123.000

KGKY Ground/Tower (Archives)
Arlington, Texas, United States

Feed Status: UP
Listen in your browser - HTML5 player(in browser, HTML5)
Click here to listen with your own player(launches your MP3 player)

KGKY 020018Z 35010KT 5SM -FZRA BR SCT008 BKN047 OVC065 M01/M03 A3032 RMK AO2 UPB05E14FZRAE05B14 P0002 I1001 T10111033

KGKY Airport Info (Airnav.com)

KGKY Flight Activity (Flightaware)

Listeners: 0 out of 1550 total

Arlington Ground: 121.875
Arlington Tower: 128.625

KGMU ATIS (Archives)
Greenville, South Carolina, United States

Feed Status: UP
Listen in your browser - HTML5 player(in browser, HTML5)
Click here to listen with your own player(launches your MP3 player)

KGMU 012353Z 08009KT 10SM OVC006 09/07 A3022 RMK AO2 SLP234 T00890067 10183 20089 52028

KGMU Airport Info (Airnav.com)

KGMU Flight Activity (Flightaware)

Listeners: 0 out of 1550 total

Greenville ATIS: 127.075

KGMU Ground (Archives)
Greenville, South Carolina, United States

Feed Status: UP
Listen in your browser - HTML5 player(in browser, HTML5)
Click here to listen with your own player(launches your MP3 player)

KGMU 012353Z 08009KT 10SM OVC006 09/07 A3022 RMK AO2 SLP234 T00890067 10183 20089 52028

KGMU Airport Info (Airnav.com)

KGMU Flight Activity (Flightaware)

Listeners: 0 out of 1550 total

Greenville Ground: 121.250

KGMU Ground/Tower (Archives)
Greenville, South Carolina, United States

Feed Status: UP
Listen in your browser - HTML5 player(in browser, HTML5)
Click here to listen with your own player(launches your MP3 player)

KGMU 012353Z 08009KT 10SM OVC006 09/07 A3022 RMK AO2 SLP234 T00890067 10183 20089 52028

KGMU Airport Info (Airnav.com)

KGMU Flight Activity (Flightaware)

Listeners: 1 out of 1550 total

Greenville Ground: 121.250
Greenville Tower: 119.900

KGMU Tower (Archives)
Greenville, South Carolina, United States

Feed Status: UP
Listen in your browser - HTML5 player(in browser, HTML5)
Click here to listen with your own player(launches your MP3 player)

KGMU 012353Z 08009KT 10SM OVC006 09/07 A3022 RMK AO2 SLP234 T00890067 10183 20089 52028

KGMU Airport Info (Airnav.com)

KGMU Flight Activity (Flightaware)

Listeners: 0 out of 1550 total

Greenville Tower: 119.900

KGNV Ground/Tower (Archives)
Gainesville, Florida, United States

Feed Status: UP
Listen in your browser - HTML5 player(in browser, HTML5)
Click here to listen with your own player(launches your MP3 player)

KGNV 012353Z 00000KT 10SM CLR 19/17 A3021 RMK AO2 SLP228 T01940167 10261 20194 53010

KGNV Airport Info (Airnav.com)

KGNV Flight Activity (Flightaware)

Listeners: 0 out of 1550 total

Gainesville Ground: 121.700
Gainesville Tower: 119.550

KGPM Tower (Archives)
Grand Prairie, Texas, United States

Feed Status: UP
Listen in your browser - HTML5 player(in browser, HTML5)
Click here to listen with your own player(launches your MP3 player)

KGPM 020015Z AUTO 01006KT 4SM BKN007 OVC048 M01/M01 A3034 RMK AO2 T10131013

KGPM Airport Info (Airnav.com)

KGPM Flight Activity (Flightaware)

Listeners: 0 out of 1550 total

Grand Prairie Tower: 128.550

KGPT Gnd/Twr/App (Archives)
Gulfport, Mississippi, United States

Feed Status: UP
Listen in your browser - HTML5 player(in browser, HTML5)
Click here to listen with your own player(launches your MP3 player)

KGPT 020007Z 02006KT 10SM OVC009 16/13 A3018 RMK AO2 T01610128

KGPT Airport Info (Airnav.com)

KGPT Flight Activity (Flightaware)

Listeners: 0 out of 1550 total

Gulfport Approach/Departure (East): 124.600
Gulfport Approach/Departure (East/UHF): 254.250
Gulfport Approach/Departure (West): 127.500
Gulfport Approach/Departure (West/UHF): 351.400
Gulfport Ground: 120.400
Gulfport Tower: 123.700
Gulfport Tower (UHF): 339.800

KGQQ CTAF/Del/App (Archives)
Galion, Ohio, United States

Feed Status: UP
Listen in your browser - HTML5 player(in browser, HTML5)
Click here to listen with your own player(launches your MP3 player)

KGQQ Airport Info (Airnav.com)

KGQQ Flight Activity (Flightaware)

Listeners: 0 out of 1550 total

Galion Clearance Delivery: 126.800
Galion CTAF/UNICOM: 122.800
Mansfield Approach: 124.200

KGRK Twr/App
Fort Hood (Killeen), Texas, United States

Feed Status: DOWN
Offline since: 2019-11-24 15:09:39 UTC

KGRK 012355Z 35008KT 3SM -FZDZ BR OVC007 M02/M02 A3025 RMK AO2A SLP254 WND DATA ESTMD P0000 60000 T10181024 11014 21022 58004

KGRK Airport Info (Airnav.com)

Gray Tower: 120.750

KGTU Gnd/Twr (Archives)
Georgetown, Texas, United States

Feed Status: UP
Listen in your browser - HTML5 player(in browser, HTML5)
Click here to listen with your own player(launches your MP3 player)

KGTU 012356Z 34012KT BR OVC008 M01/M02 A3028 RMK AO2 SLP263 60009 T10111017 11006 21017 58005 $

KGTU Airport Info (Airnav.com)

KGTU Flight Activity (Flightaware)

Listeners: 0 out of 1550 total

Georgetown Ground: 119.125
Georgetown Tower: 120.225

KGVL AWOS (Archives)
Gainesville, Georgia, United States

Feed Status: UP
Listen in your browser - HTML5 player(in browser, HTML5)
Click here to listen with your own player(launches your MP3 player)

KGVL 012353Z AUTO 24008KT 10SM CLR 11/07 A3020 RMK AO2 SLP224 T01060067 10156 20106 51019

KGVL Airport Info (Airnav.com)

KGVL Flight Activity (Flightaware)

Listeners: 0 out of 1550 total

Gainesville AWOS: 126.475

KGVL CTAF/Clearance (Archives)
Gainesville, Georgia, United States

Feed Status: UP
Listen in your browser - HTML5 player(in browser, HTML5)
Click here to listen with your own player(launches your MP3 player)

KGVL 012353Z AUTO 24008KT 10SM CLR 11/07 A3020 RMK AO2 SLP224 T01060067 10156 20106 51019

KGVL Airport Info (Airnav.com)

KGVL Flight Activity (Flightaware)

Listeners: 5 out of 1550 total

Gainesville Clearance (Atlanta Center or TRACON): 134.800
Gainesville CTAF: 123.075

KGWB AWOS (Archives)
Auburn, Indiana, United States

Feed Status: UP
Listen in your browser - HTML5 player(in browser, HTML5)
Click here to listen with your own player(launches your MP3 player)

KGWB 020015Z AUTO 00000KT 10SM CLR M06/M13 A3030 RMK AO2

KGWB Airport Info (Airnav.com)

KGWB Flight Activity (Flightaware)

Listeners: 0 out of 1550 total

De Kalb AWOS: 124.150

KGWB Clearance Delivery
Auburn, Indiana, United States

Feed Status: DOWN
Offline since: 2022-05-24 13:54:39 UTC

KGWB 020015Z AUTO 00000KT 10SM CLR M06/M13 A3030 RMK AO2

KGWB Airport Info (Airnav.com)

De Kalb Clearance Delivery (Indy Approach): 126.600

KGWB CTAF (Archives)
Auburn, Indiana, United States

Feed Status: UP
Listen in your browser - HTML5 player(in browser, HTML5)
Click here to listen with your own player(launches your MP3 player)

KGWB 020015Z AUTO 00000KT 10SM CLR M06/M13 A3030 RMK AO2

KGWB Airport Info (Airnav.com)

KGWB Flight Activity (Flightaware)

Listeners: 0 out of 1550 total

De Kalb CTAF: 123.000

KGWS CTAF/Guard
Glenwood Springs, Colorado, United States

Feed Status: DOWN
Offline since: 2022-09-13 16:54:22 UTC

KGWS Airport Info (Airnav.com)

Emergency/Guard: 121.500
Glenwood Springs CTAF: 123.000

KGYH Tower (Archives)
Greenville, South Carolina, United States

Feed Status: UP
Listen in your browser - HTML5 player(in browser, HTML5)
Click here to listen with your own player(launches your MP3 player)

KGMU 012353Z 08009KT 10SM OVC006 09/07 A3022 RMK AO2 SLP234 T00890067 10183 20089 52028

KGMU Airport Info (Airnav.com)

KGMU Flight Activity (Flightaware)

Listeners: 0 out of 1550 total

Donaldson Tower: 133.325

KGYI Ground/Tower (Archives)
Sherman/Denison, Texas, United States

Feed Status: UP
Listen in your browser - HTML5 player(in browser, HTML5)
Click here to listen with your own player(launches your MP3 player)

KGYI 012350Z 35003KT 5SM UP SCT060 M01/M03 A3035

KGYI Airport Info (Airnav.com)

KGYI Flight Activity (Flightaware)

Listeners: 0 out of 1550 total

North Texas Ground: 124.125
North Texas Tower: 120.575

KGYI Tower
Sherman/Denison, Texas, United States

Feed Status: DOWN
Offline since: 2023-02-02 00:50:22 UTC

KGYI 012350Z 35003KT 5SM UP SCT060 M01/M03 A3035

KGYI Airport Info (Airnav.com)

North Texas Tower: 120.575

KGYR Ground (Archives)
Goodyear, Arizona, United States

Feed Status: UP
Listen in your browser - HTML5 player(in browser, HTML5)
Click here to listen with your own player(launches your MP3 player)

KGYR 012347Z 23011KT 10SM FEW100 18/02 A3006

KGYR Airport Info (Airnav.com)

KGYR Flight Activity (Flightaware)

Listeners: 0 out of 1550 total

Goodyear Ground: 121.700

KGYR Ground/Tower (Archives)
Goodyear, Arizona, United States

Feed Status: UP
Listen in your browser - HTML5 player(in browser, HTML5)
Click here to listen with your own player(launches your MP3 player)

KGYR 012347Z 23011KT 10SM FEW100 18/02 A3006

KGYR Airport Info (Airnav.com)

KGYR Flight Activity (Flightaware)

Listeners: 1 out of 1550 total

Goodyear Ground: 121.700
Goodyear Tower: 120.100

KGYR Tower (Archives)
Goodyear, Arizona, United States

Feed Status: UP
Listen in your browser - HTML5 player(in browser, HTML5)
Click here to listen with your own player(launches your MP3 player)

KGYR 012347Z 23011KT 10SM FEW100 18/02 A3006

KGYR Airport Info (Airnav.com)

KGYR Flight Activity (Flightaware)

Listeners: 0 out of 1550 total

Goodyear Tower: 120.100

KHAF CTAF (Archives)
Half Moon Bay, California, United States

Feed Status: UP
Listen in your browser - HTML5 player(in browser, HTML5)
Click here to listen with your own player(launches your MP3 player)

KHAF 020015Z AUTO 00000KT 6SM HZ CLR 12/04 A3019 RMK AO2

KHAF Airport Info (Airnav.com)

KHAF Flight Activity (Flightaware)

Listeners: 0 out of 1550 total

Half Moon Bay CTAF: 122.800

KHBG CTAF (Air Race Classic)
Hattiesburg, Mississippi, United States

Feed Status: DOWN
Offline since: 2019-07-19 17:38:22 UTC

Hattiesburg CTAF: 122.800

KHDC De/Gnd/Twr/App/ZHU (Archives)
Hammond, Louisiana, United States

Feed Status: UP
Listen in your browser - HTML5 player(in browser, HTML5)
Click here to listen with your own player(launches your MP3 player)

KHDC 020015Z AUTO 06003KT 10SM OVC008 11/10 A3019 RMK AO2 T01100096

KHDC Airport Info (Airnav.com)

KHDC Flight Activity (Flightaware)

Listeners: 0 out of 1550 total

Hammond CTAF: 122.700
Hammond Ground: 119.850
Hammond Tower: 120.575
Houston Center (Low): 126.350
New Orleans Approach (West): 125.500
New Orleans Clearance/Approach: 119.300

KHEF Del/Gnd/Twr (Archives)
Manassas, Virginia, United States

Feed Status: UP
Listen in your browser - HTML5 player(in browser, HTML5)
Click here to listen with your own player(launches your MP3 player)

KHEF 012356Z 18003KT 10SM BR CLR M02/M05 A3032 RMK AO2 SLP274 T10171050 10039 21017 51009 FZRANO

KHEF Airport Info (Airnav.com)

KHEF Flight Activity (Flightaware)

Listeners: 1 out of 1550 total

Manassas Clearance Delivery (after Tower closes): 120.200
Manassas Ground: 121.800
Manassas Tower: 133.100

KHFD Ground/Tower (Archives)
Hartford, Connecticut, United States

Feed Status: UP
Listen in your browser - HTML5 player(in browser, HTML5)
Click here to listen with your own player(launches your MP3 player)

KHFD 012353Z 34004KT 10SM CLR M01/M13 A3025 RMK AO2 SLP243 T10061128 10028 21006 51015

KHFD Airport Info (Airnav.com)

KHFD Flight Activity (Flightaware)

Listeners: 0 out of 1550 total

Brainard Ground: 121.600
Brainard Tower: 119.600

KHGR Ground/Tower
Hagerstown, Maryland, United States

Feed Status: DOWN
Offline since: 2023-01-12 19:01:22 UTC

KHGR 012353Z 34004KT 10SM CLR M01/M16 A3028 RMK AO2 SLP274 T10061156 10022 21006 53006

KHGR Airport Info (Airnav.com)

Hagerstown Ground: 120.800
Hagerstown Tower: 120.300

KHGR Tower (Archives)
Hagerstown, Maryland, United States

Feed Status: UP
Listen in your browser - HTML5 player(in browser, HTML5)
Click here to listen with your own player(launches your MP3 player)

KMRB 012353Z 00000KT 10SM CLR M01/M12 A3029 RMK AO2 SLP262 T10111117 10028 21017 53009

KMRB Airport Info (Airnav.com)

KMRB Flight Activity (Flightaware)

Listeners: 0 out of 1550 total

Hagerstown Tower: 120.300

KHIO Ground (Archives)
Portland, Oregon, United States

Feed Status: UP
Listen in your browser - HTML5 player(in browser, HTML5)
Click here to listen with your own player(launches your MP3 player)

KHIO 012353Z 32004KT 8SM CLR 08/M01 A3012 RMK AO2 SLP202 T00781011 10089 21006 56010

KHIO Airport Info (Airnav.com)

KHIO Flight Activity (Flightaware)

Listeners: 0 out of 1550 total

Hillsboro Ground: 121.700

KHIO Tower (Both) (Archives)
Portland, Oregon, United States

Feed Status: UP
Listen in your browser - HTML5 player(in browser, HTML5)
Click here to listen with your own player(launches your MP3 player)

KHIO 012353Z 32004KT 8SM CLR 08/M01 A3012 RMK AO2 SLP202 T00781011 10089 21006 56010

KHIO Airport Info (Airnav.com)

KHIO Flight Activity (Flightaware)

Listeners: 0 out of 1550 total

Hillsboro Tower: 119.300
Hillsboro Tower: 132.800

KHIO Tower (Primary) (Archives)
Portland, Oregon, United States

Feed Status: UP
Listen in your browser - HTML5 player(in browser, HTML5)
Click here to listen with your own player(launches your MP3 player)

KHIO 012353Z 32004KT 8SM CLR 08/M01 A3012 RMK AO2 SLP202 T00781011 10089 21006 56010

KHIO Airport Info (Airnav.com)

KHIO Flight Activity (Flightaware)

Listeners: 0 out of 1550 total

Hillsboro Tower: 119.300

KHKY ASOS (Archives)
Hickory, North Carolina, United States

Feed Status: UP
Listen in your browser - HTML5 player(in browser, HTML5)
Click here to listen with your own player(launches your MP3 player)

KHKY 012353Z AUTO VRB03KT 10SM OVC009 06/04 A3023 RMK AO2 SLP227 T00560039 10072 20056 50012

KHKY Airport Info (Airnav.com)

KHKY Flight Activity (Flightaware)

Listeners: 0 out of 1550 total

Hickory ASOS: 118.325

KHKY Clearance Delivery (ZTL) (Archives)
Hickory, North Carolina, United States

Feed Status: UP
Listen in your browser - HTML5 player(in browser, HTML5)
Click here to listen with your own player(launches your MP3 player)

KHKY 012353Z AUTO VRB03KT 10SM OVC009 06/04 A3023 RMK AO2 SLP227 T00560039 10072 20056 50012

KHKY Airport Info (Airnav.com)

KHKY Flight Activity (Flightaware)

Listeners: 0 out of 1550 total

Hickory Clearance Delivery (Atlanta Center): 124.250

KHKY Emergency/Guard (Archives)
Hickory, North Carolina, United States

Feed Status: UP
Listen in your browser - HTML5 player(in browser, HTML5)
Click here to listen with your own player(launches your MP3 player)

KHKY 012353Z AUTO VRB03KT 10SM OVC009 06/04 A3023 RMK AO2 SLP227 T00560039 10072 20056 50012

KHKY Airport Info (Airnav.com)

KHKY Flight Activity (Flightaware)

Listeners: 0 out of 1550 total

Emergency/Guard: 121.500

KHKY Ground (Archives)
Hickory, North Carolina, United States

Feed Status: UP
Listen in your browser - HTML5 player(in browser, HTML5)
Click here to listen with your own player(launches your MP3 player)

KHKY 012353Z AUTO VRB03KT 10SM OVC009 06/04 A3023 RMK AO2 SLP227 T00560039 10072 20056 50012

KHKY Airport Info (Airnav.com)

KHKY Flight Activity (Flightaware)

Listeners: 0 out of 1550 total

Hickory Ground: 121.700

KHKY Tower (Archives)
Hickory, North Carolina, United States

Feed Status: UP
Listen in your browser - HTML5 player(in browser, HTML5)
Click here to listen with your own player(launches your MP3 player)

KHKY 012353Z AUTO VRB03KT 10SM OVC009 06/04 A3023 RMK AO2 SLP227 T00560039 10072 20056 50012

KHKY Airport Info (Airnav.com)

KHKY Flight Activity (Flightaware)

Listeners: 0 out of 1550 total

Hickory Tower: 128.150

KHMT CTAF (Archives)
Hemet, California, United States

Feed Status: UP
Listen in your browser - HTML5 player(in browser, HTML5)
Click here to listen with your own player(launches your MP3 player)

KHMT 020015Z AUTO 29006KT CLR 16/M05 A3013 RMK AO2 T01611049

KHMT Airport Info (Airnav.com)

KHMT Flight Activity (Flightaware)

Listeners: 0 out of 1550 total

Hemet CTAF: 123.000

KHND ATIS (Archives)
Las Vegas, Nevada, United States

Feed Status: UP
Listen in your browser - HTML5 player(in browser, HTML5)
Click here to listen with your own player(launches your MP3 player)

KHND 012356Z 02005KT 10SM CLR 12/M08 A3022 RMK AO2 SLP262 T01221078 10122 20061 56007

KHND Airport Info (Airnav.com)

KHND Flight Activity (Flightaware)

Listeners: 0 out of 1550 total

Henderson ATIS: 120.775

KHND Ground/Tower (Archives)
Las Vegas, Nevada, United States

Feed Status: UP
Listen in your browser - HTML5 player(in browser, HTML5)
Click here to listen with your own player(launches your MP3 player)

KHND 012356Z 02005KT 10SM CLR 12/M08 A3022 RMK AO2 SLP262 T01221078 10122 20061 56007

KHND Airport Info (Airnav.com)

KHND Flight Activity (Flightaware)

Listeners: 1 out of 1550 total

Henderson Ground: 127.800
Henderson Tower: 125.100

KHPN ATIS (Archives)
White Plains, New York, United States

Feed Status: UP
Listen in your browser - HTML5 player(in browser, HTML5)
Click here to listen with your own player(launches your MP3 player)

KHPN 012356Z 30010KT 10SM CLR M01/M12 A3023 RMK AO2 SLP247 T10061122 10022 21006 53016

KHPN Airport Info (Airnav.com)

KHPN Flight Activity (Flightaware)

Listeners: 0 out of 1550 total

Westchester County ATIS: 133.800

KHPN Del/Gnd/Tower #1 (Archives)
White Plains, New York, United States

Feed Status: UP
Listen in your browser - HTML5 player(in browser, HTML5)
Click here to listen with your own player(launches your MP3 player)

KHPN 012356Z 30010KT 10SM CLR M01/M12 A3023 RMK AO2 SLP247 T10061122 10022 21006 53016

KHPN Airport Info (Airnav.com)

KHPN Flight Activity (Flightaware)

Listeners: 0 out of 1550 total

Westchester Clearance Delivery: 127.250
Westchester Ground: 121.825
Westchester Tower: 118.575

KHPN Delivery/Ground (Archives)
White Plains, New York, United States

Feed Status: UP
Listen in your browser - HTML5 player(in browser, HTML5)
Click here to listen with your own player(launches your MP3 player)

KHPN 012356Z 30010KT 10SM CLR M01/M12 A3023 RMK AO2 SLP247 T10061122 10022 21006 53016

KHPN Airport Info (Airnav.com)

KHPN Flight Activity (Flightaware)

Listeners: 0 out of 1550 total

Westchester Clearance Delivery: 127.250
Westchester Ground: 121.825

KHPN Tower (Archives)
New York, New York, United States

Feed Status: UP
Listen in your browser - HTML5 player(in browser, HTML5)
Click here to listen with your own player(launches your MP3 player)

KHPN 012356Z 30010KT 10SM CLR M01/M12 A3023 RMK AO2 SLP247 T10061122 10022 21006 53016

KHPN Airport Info (Airnav.com)

KHPN Flight Activity (Flightaware)

Listeners: 0 out of 1550 total

Westchester Tower: 118.575

KHPN Tower (Archives)
New York, New York, United States

Feed Status: UP
Listen in your browser - HTML5 player(in browser, HTML5)
Click here to listen with your own player(launches your MP3 player)

KHPN 012356Z 30010KT 10SM CLR M01/M12 A3023 RMK AO2 SLP247 T10061122 10022 21006 53016

KHPN Airport Info (Airnav.com)

KHPN Flight Activity (Flightaware)

Listeners: 0 out of 1550 total

Westchester Tower: 118.575

NY Approach (NOBBI/NYACK/HAARP) (Archives)
New York, New York, United States

Feed Status: UP
Listen in your browser - HTML5 player(in browser, HTML5)
Click here to listen with your own player(launches your MP3 player)

KHPN 012356Z 30010KT 10SM CLR M01/M12 A3023 RMK AO2 SLP247 T10061122 10022 21006 53016

KHPN Airport Info (Airnav.com)

KHPN Flight Activity (Flightaware)

Listeners: 0 out of 1550 total

New York Approach (HAARP Sector): 135.350
New York Approach (HAARP Sector): 120.800
New York Approach (NOBBI Sector): 126.400
New York Approach (NYACK Sector): 120.550

KHRL Gnd/Twr/App
Harlingen, Texas, United States

Feed Status: DOWN
Offline since: 2022-12-13 23:33:39 UTC

KHRL 012352Z 33010KT 2 1/2SM BR BKN006 OVC022 04/04 A3020 RMK AO2 SLP226 T00440044 10050 20039 55002 $

KHRL Airport Info (Airnav.com)

Harlingen Clearance/Ground: 121.700
Harlingen Tower: 119.300
Valley Approach: 120.700

KHRO CTAF/ZME/Misc (Archives)
Harrison, Arkansas, United States

Feed Status: UP
Listen in your browser - HTML5 player(in browser, HTML5)
Click here to listen with your own player(launches your MP3 player)

KHRO 012353Z AUTO 00000KT 10SM CLR M02/M07 A3030 RMK AO2 SLP275 T10221067 11017 21033 55001

KHRO Airport Info (Airnav.com)

KHRO Flight Activity (Flightaware)

Listeners: 2 out of 1550 total

Boone County CTAF: 123.000
Jonesboro FSS: 122.450
Jonesboro FSS: 255.400
KBBG Tower (aircraft only): 128.150
Memphis Center (Low): 126.850
Memphis Center (Low): 281.550
Memphis Center (Ultra-High): 133.025
Memphis Center (Ultra-High): 284.750
Springfield Approach (aircraft only): 126.350

KHSD CTAF (Archives)
Oklahoma City, Oklahoma, United States

Feed Status: UP
Listen in your browser - HTML5 player(in browser, HTML5)
Click here to listen with your own player(launches your MP3 player)

KHSD Airport Info (Airnav.com)

KHSD Flight Activity (Flightaware)

Listeners: 0 out of 1550 total

Sundance CTAF: 122.700

KHUF App/Dep (Archives)
Terre Haute, Indiana, United States

Feed Status: UP
Listen in your browser - HTML5 player(in browser, HTML5)
Click here to listen with your own player(launches your MP3 player)

KHUF 012353Z 19004KT 10SM CLR M03/M11 A3034 RMK AO2 SLP284 T10281106 11006 21039 55001

KHUF Airport Info (Airnav.com)

KHUF Flight Activity (Flightaware)

Listeners: 0 out of 1550 total

Hulman Approach: 125.450

KHUF Emergency/Guard (Archives)
Terre Haute, Indiana, United States

Feed Status: UP
Listen in your browser - HTML5 player(in browser, HTML5)
Click here to listen with your own player(launches your MP3 player)

KHUF 012353Z 19004KT 10SM CLR M03/M11 A3034 RMK AO2 SLP284 T10281106 11006 21039 55001

KHUF Airport Info (Airnav.com)

KHUF Flight Activity (Flightaware)

Listeners: 0 out of 1550 total

Emergency/Guard: 121.500

KHUF Gnd/Twr (Archives)
Terre Haute, Indiana, United States

Feed Status: UP
Listen in your browser - HTML5 player(in browser, HTML5)
Click here to listen with your own player(launches your MP3 player)

KHUF 012353Z 19004KT 10SM CLR M03/M11 A3034 RMK AO2 SLP284 T10281106 11006 21039 55001

KHUF Airport Info (Airnav.com)

KHUF Flight Activity (Flightaware)

Listeners: 0 out of 1550 total

Hulman Ground/Clearance: 121.600
Hulman Tower: 134.725

KHUF Gnd/Twr/App (Archives)
Terre Haute, Indiana, United States

Feed Status: UP
Listen in your browser - HTML5 player(in browser, HTML5)
Click here to listen with your own player(launches your MP3 player)

KHUF 012353Z 19004KT 10SM CLR M03/M11 A3034 RMK AO2 SLP284 T10281106 11006 21039 55001

KHUF Airport Info (Airnav.com)

KHUF Flight Activity (Flightaware)

Listeners: 0 out of 1550 total

Hulman Approach: 125.450
Hulman Ground/Clearance: 121.600
Hulman Tower: 134.725
Indianapolis Center (Sector 35 Terre Haute Low): 132.200
Indianapolis Center (Sector 80 King High): 134.175

KHUF Ground (Archives)
Terre Haute, Indiana, United States

Feed Status: UP
Listen in your browser - HTML5 player(in browser, HTML5)
Click here to listen with your own player(launches your MP3 player)

KHUF 012353Z 19004KT 10SM CLR M03/M11 A3034 RMK AO2 SLP284 T10281106 11006 21039 55001

KHUF Airport Info (Airnav.com)

KHUF Flight Activity (Flightaware)

Listeners: 0 out of 1550 total

Hulman Ground/Clearance: 121.600

KHUF Tower (Archives)
Terre Haute, Indiana, United States

Feed Status: UP
Listen in your browser - HTML5 player(in browser, HTML5)
Click here to listen with your own player(launches your MP3 player)

KHUF 012353Z 19004KT 10SM CLR M03/M11 A3034 RMK AO2 SLP284 T10281106 11006 21039 55001

KHUF Airport Info (Airnav.com)

KHUF Flight Activity (Flightaware)

Listeners: 0 out of 1550 total

Hulman Tower: 134.725

KHUL ASOS (Archives)
Houlton, Maine, United States

Feed Status: UP
Listen in your browser - HTML5 player(in browser, HTML5)
Click here to listen with your own player(launches your MP3 player)

KHUL 012353Z AUTO 19004KT 10SM CLR M16/M18 A3012 RMK AO2 SLP217 T11561183 11083 21161 53001

KHUL Airport Info (Airnav.com)

KHUL Flight Activity (Flightaware)

Listeners: 0 out of 1550 total

Houlton ASOS: 132.025

KHUL/KPQI/ZBW01/15 (Archives)
Houlton, Maine, United States

Feed Status: UP
Listen in your browser - HTML5 player(in browser, HTML5)
Click here to listen with your own player(launches your MP3 player)

KHUL 012353Z AUTO 19004KT 10SM CLR M16/M18 A3012 RMK AO2 SLP217 T11561183 11083 21161 53001

KHUL Airport Info (Airnav.com)

KHUL Flight Activity (Flightaware)

Listeners: 0 out of 1550 total

Boston Center (Sector 01 Millinocket High Sector): 128.050
Boston Center (Sector 01 Millinocket High Sector): 319.100
Boston Center (Surry 15 Low Sector): 120.250
Boston Center (Surry 15 Low Sector): 346.400
Boston Center (Surry 15 Low Sector): 124.750
Emergency/Guard: 121.500
Houlton CTAF/UNICOM: 122.800
Presque Isle CTAF/UNICOM: 122.800

KHUT Ground/Twr (Archives)
Hutchinson, Kansas, United States

Feed Status: UP
Listen in your browser - HTML5 player(in browser, HTML5)
Click here to listen with your own player(launches your MP3 player)

KHUT 012352Z 19007KT 10SM CLR M01/M11 A3025 RMK AO2 SLP260 T10061106 10033 21006 53007

KHUT Airport Info (Airnav.com)

KHUT Flight Activity (Flightaware)

Listeners: 0 out of 1550 total

Emergency/Guard: 121.500
Hutchinson Ground: 121.900
Hutchinson Tower: 118.500

KHVN Ground/Tower (Archives)
New Haven, Connecticut, United States

Feed Status: UP
Listen in your browser - HTML5 player(in browser, HTML5)
Click here to listen with your own player(launches your MP3 player)

KHVN 012353Z 30003KT 10SM CLR 02/M10 A3024 RMK AO2 SLP240 T00171100 10028 21011 51013

KHVN Airport Info (Airnav.com)

KHVN Flight Activity (Flightaware)

Listeners: 0 out of 1550 total

New Haven Ground: 121.700
New Haven Tower: 124.800

KHWD Ground/Tower (Archives)
Hayward, California, United States

Feed Status: UP
Listen in your browser - HTML5 player(in browser, HTML5)
Click here to listen with your own player(launches your MP3 player)

KHWD 012354Z 25004KT 10SM CLR 14/03 A3017 RMK AO2 SLP226 T01390028 10150 20089 56005

KHWD Airport Info (Airnav.com)

KHWD Flight Activity (Flightaware)

Listeners: 0 out of 1550 total

Hayward Ground: 121.400
Hayward Tower: 118.900
Hayward Tower: 120.200

KHWO ATIS (Archives)
Hollywood, Florida, United States

Feed Status: UP
Listen in your browser - HTML5 player(in browser, HTML5)
Click here to listen with your own player(launches your MP3 player)

KHWO 012353Z 14005KT 10SM CLR 24/19 A3019 RMK AO2 SLP223 T02440194 10289 20244 53012 $

KHWO Airport Info (Airnav.com)

KHWO Flight Activity (Flightaware)

Listeners: 0 out of 1550 total

North Perry ATIS: 135.475

KHWO Ground (Archives)
Hollywood, Florida, United States

Feed Status: UP
Listen in your browser - HTML5 player(in browser, HTML5)
Click here to listen with your own player(launches your MP3 player)

KHWO 012353Z 14005KT 10SM CLR 24/19 A3019 RMK AO2 SLP223 T02440194 10289 20244 53012 $

KHWO Airport Info (Airnav.com)

KHWO Flight Activity (Flightaware)

Listeners: 0 out of 1550 total

North Perry Ground: 120.450

KHWO Tower (Both) (Archives)
Hollywood, Florida, United States

Feed Status: UP
Listen in your browser - HTML5 player(in browser, HTML5)
Click here to listen with your own player(launches your MP3 player)

KHWO 012353Z 14005KT 10SM CLR 24/19 A3019 RMK AO2 SLP223 T02440194 10289 20244 53012 $

KHWO Airport Info (Airnav.com)

KHWO Flight Activity (Flightaware)

Listeners: 0 out of 1550 total

North Perry Tower (Primary): 132.100
North Perry Tower (Secondary): 134.300

KHWO Tower (Secondary) (Archives)
Hollywood, Florida, United States

Feed Status: UP
Listen in your browser - HTML5 player(in browser, HTML5)
Click here to listen with your own player(launches your MP3 player)

KHWO 012353Z 14005KT 10SM CLR 24/19 A3019 RMK AO2 SLP223 T02440194 10289 20244 53012 $

KHWO Airport Info (Airnav.com)

KHWO Flight Activity (Flightaware)

Listeners: 0 out of 1550 total

North Perry Tower (Secondary): 134.300

KHWV CTAF (Archives)
Shirley, New York, United States

Feed Status: UP
Listen in your browser - HTML5 player(in browser, HTML5)
Click here to listen with your own player(launches your MP3 player)

KHWV 012356Z AUTO 00000KT 10SM CLR M02/M09 A3025 RMK AO2 SLP246 T10221089 10022 21022 51011

KHWV Airport Info (Airnav.com)

KHWV Flight Activity (Flightaware)

Listeners: 1 out of 1550 total

Brookhaven CTAF: 122.800
Emergency/Guard: 121.500

KHXD Ground/Tower (Archives)
Hilton Head Island, South Carolina, United States

Feed Status: UP
Listen in your browser - HTML5 player(in browser, HTML5)
Click here to listen with your own player(launches your MP3 player)



KHXD Airport Info (Airnav.com)

KHXD Flight Activity (Flightaware)

Listeners: 0 out of 1550 total

Hilton Head Ground: 121.100
Hilton Head Tower: 118.975

Boston Approach (Cape North)
Hyannis, Massachusetts, United States

Feed Status: DOWN
Offline since: 2023-01-18 15:21:21 UTC

KFMH 012345Z 00000KT 10SM CLR M06/M09 A3023

KFMH Airport Info (Airnav.com)

Boston Approach (Cape North Arrival): 118.200

KHYI Gnd/Twr/Misc (Archives)
Austin, Texas, United States

Feed Status: UP
Listen in your browser - HTML5 player(in browser, HTML5)
Click here to listen with your own player(launches your MP3 player)

KHYI 020003Z 36008KT 3SM BR OVC007 01/01 A3027 RMK AO2 CIG 006V011 $

KHYI Airport Info (Airnav.com)

KHYI Flight Activity (Flightaware)

Listeners: 0 out of 1550 total

Redbird FBO ASRI: 130.850
San Marcos Ground: 120.125
San Marcos Tower: 126.825

KHYS CTAF (Archives)
Hays, Kansas, United States

Feed Status: UP
Listen in your browser - HTML5 player(in browser, HTML5)
Click here to listen with your own player(launches your MP3 player)

KHYS 012356Z AUTO 27005KT 10SM CLR M01/M08 A3021 RMK AO2 SLP262 6//// T10111078 10022 21011 FZRANO $

KHYS Airport Info (Airnav.com)

KHYS Flight Activity (Flightaware)

Listeners: 0 out of 1550 total

Hays CTAF: 122.800

KIAG Del/Gnd/Twr (Archives)
Niagara Falls, New York, United States

Feed Status: UP
Listen in your browser - HTML5 player(in browser, HTML5)
Click here to listen with your own player(launches your MP3 player)

KIAG 012353Z 23014G22KT 10SM CLR M04/M10 A3023 RMK AO2 SLP257 T10441100 11039 21056 56008 $

KIAG Airport Info (Airnav.com)

KIAG Flight Activity (Flightaware)

Listeners: 1 out of 1550 total

Niagara Clearance Delivery: 119.250
Niagara Emergency/Guard: 121.500
Niagara Ground: 121.700
Niagara Tower: 118.500
Niagara UNICOM: 122.950

KIKV Del/CTAF (Archives)
Ankeny, Iowa, United States

Feed Status: UP
Listen in your browser - HTML5 player(in browser, HTML5)
Click here to listen with your own player(launches your MP3 player)

KIKV 020015Z AUTO 00000KT 10SM CLR M03/M11 A3017 RMK AO2

KIKV Airport Info (Airnav.com)

KIKV Flight Activity (Flightaware)

Listeners: 0 out of 1550 total

Ankeny Clearance Delivery (Des Moines via RCO): 126.650
Ankeny CTAF: 122.900

KILM Gnd/Twr/App (Archives)
Wilmington, North Carolina, United States

Feed Status: UP
Listen in your browser - HTML5 player(in browser, HTML5)
Click here to listen with your own player(launches your MP3 player)

KILM 012353Z 05008KT 10SM BKN012 OVC017 08/06 A3027 RMK AO2 SLP248 T00830061 10111 20083 51017

KILM Airport Info (Airnav.com)

KILM Flight Activity (Flightaware)

Listeners: 0 out of 1550 total

Emergency/Guard: 121.500
Wilmington Approach: 118.250
Wilmington Approach: 135.750
Wilmington Approach: 317.425
Wilmington Approach: 284.650
Wilmington Ground: 121.900
Wilmington Ground: 348.600
Wilmington Tower: 119.900
Wilmington Tower: 239.300

KILM Gnd/Twr/App/ZDC (Archives)
Wilmington, North Carolina, United States

Feed Status: UP
Listen in your browser - HTML5 player(in browser, HTML5)
Click here to listen with your own player(launches your MP3 player)

KILM 012353Z 05008KT 10SM BKN012 OVC017 08/06 A3027 RMK AO2 SLP248 T00830061 10111 20083 51017

KILM Airport Info (Airnav.com)

KILM Flight Activity (Flightaware)

Listeners: 0 out of 1550 total

Emergency/Guard: 121.500
Washington Center (Sector 35 Wilmington High): 269.150
Washington Center (Sector 35 Wilmington High): 124.025
Wilmington Approach: 317.425
Wilmington Approach: 284.650
Wilmington Approach: 135.750
Wilmington Approach: 118.250
Wilmington Ground: 121.900
Wilmington Ground: 348.600
Wilmington Tower: 239.300
Wilmington Tower: 119.900

KIMS AWOS (Archives)
Madison, Indiana, United States

Feed Status: UP
Listen in your browser - HTML5 player(in browser, HTML5)
Click here to listen with your own player(launches your MP3 player)

KIMS 020015Z AUTO 00000KT 10SM CLR M02/M07 A3034 RMK AO2

KIMS Airport Info (Airnav.com)

KIMS Flight Activity (Flightaware)

Listeners: 0 out of 1550 total

Madison AWOS Weather: 119.175

KIMS CTAF (Archives)
Madison, Indiana, United States

Feed Status: UP
Listen in your browser - HTML5 player(in browser, HTML5)
Click here to listen with your own player(launches your MP3 player)

KIMS 020015Z AUTO 00000KT 10SM CLR M02/M07 A3034 RMK AO2

KIMS Airport Info (Airnav.com)

KIMS Flight Activity (Flightaware)

Listeners: 0 out of 1550 total

Madison CTAF: 123.000

KINF CTAF (Archives)
Inverness, Florida, United States

Feed Status: UP
Listen in your browser - HTML5 player(in browser, HTML5)
Click here to listen with your own player(launches your MP3 player)



KINF Airport Info (Airnav.com)

KINF Flight Activity (Flightaware)

Listeners: 0 out of 1550 total

Inverness CTAF: 122.725

KCID Gnd/Twr/App/KIOW (Archives)
Iowa City, Iowa, United States

Feed Status: UP
Listen in your browser - HTML5 player(in browser, HTML5)
Click here to listen with your own player(launches your MP3 player)

KCID 012352Z 18005KT 10SM CLR M03/M10 A3016 RMK AO2 SLP230 T10331100 11006 21050 58003

KCID Airport Info (Airnav.com)

KCID Flight Activity (Flightaware)

Listeners: 0 out of 1550 total

Cedar Rapids Approach (091-269): 119.700
Cedar Rapids Approach (270-090): 134.050
Cedar Rapids Clearance Delivery: 125.450
Cedar Rapids Ground (0500-2330): 121.600
Cedar Rapids Tower (0500-2330): 118.700
UNICOM C17 (Marion) and surrounding area: 122.700
UNICOM IA24 Green Castle: 122.900
UNICOM KIOW (Iowa City) and surrounding area: 122.800

KIPJ CTAF/Del (Archives)
Lincolnton, North Carolina, United States

Feed Status: UP
Listen in your browser - HTML5 player(in browser, HTML5)
Click here to listen with your own player(launches your MP3 player)

KIPJ 020015Z AUTO 00000KT 10SM DZ BKN006 OVC012 05/05 A3025 RMK AO2 T00530050

KIPJ Airport Info (Airnav.com)

KIPJ Flight Activity (Flightaware)

Listeners: 0 out of 1550 total

Lincolnton Clearance Delivery: 124.900
Lincolnton CTAF: 123.050

KIPT ASOS
Williamsport, Pennsylvania, United States

Feed Status: DOWN
Offline since: 2022-12-29 20:45:39 UTC

KIPT 012354Z 00000KT 10SM CLR M02/M12 A3025 RMK AO2 SLP252 T10221122 10011 21022 53005

KIPT Airport Info (Airnav.com)

Williamsport ASOS: 125.225

KIPT Gnd/Twr/UNICOM
Williamsport, Pennsylvania, United States

Feed Status: DOWN
Offline since: 2022-12-29 20:45:39 UTC

KIPT 012354Z 00000KT 10SM CLR M02/M12 A3025 RMK AO2 SLP252 T10221122 10011 21022 53005

KIPT Airport Info (Airnav.com)

Williamsport Ground: 121.900
Williamsport Tower: 119.100
Williamsport UNICOM: 122.950

KIPT Gnd/Twr/ZNY
Williamsport, Pennsylvania, United States

Feed Status: DOWN
Offline since: 2022-12-29 20:45:39 UTC

KIPT 012354Z 00000KT 10SM CLR M02/M12 A3025 RMK AO2 SLP252 T10221122 10011 21022 53005

KIPT Airport Info (Airnav.com)

Emergency/Guard: 121.500
Flight Service: 122.200
Williamsport Ground: 121.900
Williamsport Tower: 119.100

KISM Ground (Archives)
Orlando, Florida, United States

Feed Status: UP
Listen in your browser - HTML5 player(in browser, HTML5)
Click here to listen with your own player(launches your MP3 player)

KJSM Airport Info (Airnav.com)

KJSM Flight Activity (Flightaware)

Listeners: 1 out of 1550 total

Kissimmee Ground/Clearance Delivery: 121.700

KISM Ground/Tower (Archives)
Orlando, Florida, United States

Feed Status: UP
Listen in your browser - HTML5 player(in browser, HTML5)
Click here to listen with your own player(launches your MP3 player)

KJSM Airport Info (Airnav.com)

KJSM Flight Activity (Flightaware)

Listeners: 0 out of 1550 total

Kissimmee Ground/Clearance Delivery: 121.700
Kissimmee Tower/CTAF: 124.450

KISM Tower (Archives)
Orlando, Florida, United States

Feed Status: UP
Listen in your browser - HTML5 player(in browser, HTML5)
Click here to listen with your own player(launches your MP3 player)

KJSM Airport Info (Airnav.com)

KJSM Flight Activity (Flightaware)

Listeners: 0 out of 1550 total

Kissimmee Tower/CTAF: 124.450

KIUA CTAF (Archives)
Canandaigua, New York, United States

Feed Status: UP
Listen in your browser - HTML5 player(in browser, HTML5)
Click here to listen with your own player(launches your MP3 player)

KIUA 020015Z AUTO 25004KT 10SM CLR M08/M11 A3024 RMK AO2 T10781115

KIUA Airport Info (Airnav.com)

KIUA Flight Activity (Flightaware)

Listeners: 0 out of 1550 total

Canandaigua CTAF: 122.800

KIWA ATIS (Archives)
Phoenix, Arizona, United States

Feed Status: UP
Listen in your browser - HTML5 player(in browser, HTML5)
Click here to listen with your own player(launches your MP3 player)

KIWA 012352Z 28009KT 10SM CLR 18/M03 A3005

KIWA Airport Info (Airnav.com)

KIWA Flight Activity (Flightaware)

Listeners: 0 out of 1550 total

Gateway ATIS: 133.500

KIWA Clearance Delivery (Archives)
Phoenix, Arizona, United States

Feed Status: UP
Listen in your browser - HTML5 player(in browser, HTML5)
Click here to listen with your own player(launches your MP3 player)

KIWA 012352Z 28009KT 10SM CLR 18/M03 A3005

KIWA Airport Info (Airnav.com)

KIWA Flight Activity (Flightaware)

Listeners: 0 out of 1550 total

Gateway Clearance Delivery: 135.050

KIWA Ground (Archives)
Phoenix, Arizona, United States

Feed Status: UP
Listen in your browser - HTML5 player(in browser, HTML5)
Click here to listen with your own player(launches your MP3 player)

KIWA 012352Z 28009KT 10SM CLR 18/M03 A3005

KIWA Airport Info (Airnav.com)

KIWA Flight Activity (Flightaware)

Listeners: 0 out of 1550 total

Gateway Ground: 128.250

KIWA Tower (Archives)
Phoenix, Arizona, United States

Feed Status: UP
Listen in your browser - HTML5 player(in browser, HTML5)
Click here to listen with your own player(launches your MP3 player)

KIWA 012352Z 28009KT 10SM CLR 18/M03 A3005

KIWA Airport Info (Airnav.com)

KIWA Flight Activity (Flightaware)

Listeners: 5 out of 1550 total

Gateway Tower (East): 124.750
Gateway Tower (West): 120.600

KIWS CTAF (Archives)
Houston, Texas, United States

Feed Status: UP
Listen in your browser - HTML5 player(in browser, HTML5)
Click here to listen with your own player(launches your MP3 player)



KIWS Airport Info (Airnav.com)

KIWS Flight Activity (Flightaware)

Listeners: 0 out of 1550 total

West Houston CTAF: 123.050

KIXD ASOS/ATIS (Archives)
Olathe, Kansas, United States

Feed Status: UP
Listen in your browser - HTML5 player(in browser, HTML5)
Click here to listen with your own player(launches your MP3 player)

KIXD 012353Z 20007KT 10SM CLR 00/M09 A3026 RMK AO2 SLP262 T00001094 10033 20000 55002

KIXD Airport Info (Airnav.com)

KIXD Flight Activity (Flightaware)

Listeners: 0 out of 1550 total

New Century ATIS/ASOS: 135.325

KIXD Ground/Tower/K34 (Archives)
Olathe, Kansas, United States

Feed Status: UP
Listen in your browser - HTML5 player(in browser, HTML5)
Click here to listen with your own player(launches your MP3 player)

KIXD 012353Z 20007KT 10SM CLR 00/M09 A3026 RMK AO2 SLP262 T00001094 10033 20000 55002

KIXD Airport Info (Airnav.com)

KIXD Flight Activity (Flightaware)

Listeners: 0 out of 1550 total

K34 CTAF: 122.800
New Century Ground: 124.300
New Century Tower: 133.000

KJFX CTAF
Jasper, Alabama, United States

Feed Status: DOWN
Offline since: 2023-01-08 07:17:06 UTC

KJFX 020015Z AUTO 00000KT 8SM -RA FEW012 FEW035 OVC075 04/03 A3028 RMK AO2

KJFX Airport Info (Airnav.com)

Walker County CTAF: 122.700

KJKA Twr/CTAF
Gulf Shores, Alabama, United States

Feed Status: DOWN
Offline since: 2023-01-26 15:59:22 UTC

KPNS 020021Z 34008KT 10SM FEW030 SCT050 19/14 A3018 RMK AO2 T01890144

KPNS Airport Info (Airnav.com)

Jack Edwards Tower/CTAF: 118.650

KJLN ATIS (Archives)
Joplin, Missouri, United States

Feed Status: UP
Listen in your browser - HTML5 player(in browser, HTML5)
Click here to listen with your own player(launches your MP3 player)

KJLN 012353Z 26005KT 10SM OVC250 M01/M11 A3032 RMK AO2 SLP278 T10111106 10000 21022 55001

KJLN Airport Info (Airnav.com)

KJLN Flight Activity (Flightaware)

Listeners: 0 out of 1550 total

Joplin ATIS: 120.850

KJLN Ground (Archives)
Joplin, Missouri, United States

Feed Status: UP
Listen in your browser - HTML5 player(in browser, HTML5)
Click here to listen with your own player(launches your MP3 player)

KJLN 012353Z 26005KT 10SM OVC250 M01/M11 A3032 RMK AO2 SLP278 T10111106 10000 21022 55001

KJLN Airport Info (Airnav.com)

KJLN Flight Activity (Flightaware)

Listeners: 0 out of 1550 total

Joplin Ground: 121.600

KJLN Ground/Tower (Archives)
Joplin, Missouri, United States

Feed Status: UP
Listen in your browser - HTML5 player(in browser, HTML5)
Click here to listen with your own player(launches your MP3 player)

KJLN 012353Z 26005KT 10SM OVC250 M01/M11 A3032 RMK AO2 SLP278 T10111106 10000 21022 55001

KJLN Airport Info (Airnav.com)

KJLN Flight Activity (Flightaware)

Listeners: 0 out of 1550 total

Joplin Ground: 121.600
Joplin Tower: 119.800

KJLN Tower (Archives)
Joplin, Missouri, United States

Feed Status: UP
Listen in your browser - HTML5 player(in browser, HTML5)
Click here to listen with your own player(launches your MP3 player)

KJLN 012353Z 26005KT 10SM OVC250 M01/M11 A3032 RMK AO2 SLP278 T10111106 10000 21022 55001

KJLN Airport Info (Airnav.com)

KJLN Flight Activity (Flightaware)

Listeners: 0 out of 1550 total

Joplin Tower: 119.800

KJNX AWOS (Archives)
Smithfield, North Carolina, United States

Feed Status: UP
Listen in your browser - HTML5 player(in browser, HTML5)
Click here to listen with your own player(launches your MP3 player)

KJNX 020015Z AUTO 06004KT 10SM BKN010 OVC015 05/03 A3029 RMK AO2

KJNX Airport Info (Airnav.com)

KJNX Flight Activity (Flightaware)

Listeners: 0 out of 1550 total

Johnston AWOS: 120.225

KJNX CTAF (Archives)
Smithfield, North Carolina, United States

Feed Status: UP
Listen in your browser - HTML5 player(in browser, HTML5)
Click here to listen with your own player(launches your MP3 player)

KJNX 020015Z AUTO 06004KT 10SM BKN010 OVC015 05/03 A3029 RMK AO2

KJNX Airport Info (Airnav.com)

KJNX Flight Activity (Flightaware)

Listeners: 0 out of 1550 total

Johnston CTAF: 122.725

KJQF Ground/Tower (Archives)
Concord, North Carolina, United States

Feed Status: UP
Listen in your browser - HTML5 player(in browser, HTML5)
Click here to listen with your own player(launches your MP3 player)

KJQF 012350Z 09004KT 10SM OVC012 06/04 A3027

KJQF Airport Info (Airnav.com)

KJQF Flight Activity (Flightaware)

Listeners: 0 out of 1550 total

Concord Ground: 121.850
Concord Tower: 134.650

KJRA/KJRB CTAF #3 (Archives)
New York, New York, United States

Feed Status: UP
Listen in your browser - HTML5 player(in browser, HTML5)
Click here to listen with your own player(launches your MP3 player)


Listeners: 1 out of 1550 total

Hudson River/New York Harbor/KJRA West 30th Street Heliport: 123.050

KJWY/2TS6 CTAF/Unicom (Archives)
Midlothian/Waxahachie, Texas, United States

Feed Status: UP
Listen in your browser - HTML5 player(in browser, HTML5)
Click here to listen with your own player(launches your MP3 player)

KJWY 020015Z AUTO 00000KT 4SM -SN OVC007 M01/M02 A3033 RMK AO2 T10151018

KJWY Airport Info (Airnav.com)

KJWY Flight Activity (Flightaware)

Listeners: 0 out of 1550 total

Mid-Way CTAF/UNICOM: 122.975

Regional Approach (South/RBD)
Midlothian/Waxahachie, Texas, United States

Feed Status: DOWN
Offline since: 2020-03-29 19:10:05 UTC

KRBD 020021Z 36008KT 6SM UP BR OVC006 M02/M03 A3030 RMK AO2 UPB15FZRAE15 P0000 I1002 T10171028

KRBD Airport Info (Airnav.com)

Regional Approach (South): 125.200

KJYO AWOS (Archives)
Leesburg, Virginia, United States

Feed Status: UP
Listen in your browser - HTML5 player(in browser, HTML5)
Click here to listen with your own player(launches your MP3 player)

KJYO 020015Z AUTO 00000KT 10SM CLR 00/M07 A3031 RMK AO2

KJYO Airport Info (Airnav.com)

KJYO Flight Activity (Flightaware)

Listeners: 0 out of 1550 total

Leesburg AWOS: 125.225

KJYO CTAF/Tower (Archives)
Leesburg, Virginia, United States

Feed Status: UP
Listen in your browser - HTML5 player(in browser, HTML5)
Click here to listen with your own player(launches your MP3 player)

KJYO 020015Z AUTO 00000KT 10SM CLR 00/M07 A3031 RMK AO2

KJYO Airport Info (Airnav.com)

KJYO Flight Activity (Flightaware)

Listeners: 0 out of 1550 total

Leesburg Tower/CTAF: 127.500

KJYO Del/Gnd (Archives)
Leesburg, Virginia, United States

Feed Status: UP
Listen in your browser - HTML5 player(in browser, HTML5)
Click here to listen with your own player(launches your MP3 player)

KJYO 020015Z AUTO 00000KT 10SM CLR 00/M07 A3031 RMK AO2

KJYO Airport Info (Airnav.com)

KJYO Flight Activity (Flightaware)

Listeners: 0 out of 1550 total

Leesburg Clearance Delivery (Potomac TRACON): 118.550
Leesburg Ground: 120.500

KJYO Del/Gnd/Twr/CTAF (Archives)
Leesburg, Virginia, United States

Feed Status: UP
Listen in your browser - HTML5 player(in browser, HTML5)
Click here to listen with your own player(launches your MP3 player)

KJYO 020015Z AUTO 00000KT 10SM CLR 00/M07 A3031 RMK AO2

KJYO Airport Info (Airnav.com)

KJYO Flight Activity (Flightaware)

Listeners: 0 out of 1550 total

Leesburg Clearance Delivery (Potomac TRACON): 118.550
Leesburg Ground: 120.500
Leesburg Tower/CTAF: 127.500

ZDC Sectors 12/04 (Archives)
Leesburg, Virginia, United States

Feed Status: UP
Listen in your browser - HTML5 player(in browser, HTML5)
Click here to listen with your own player(launches your MP3 player)

KIAD 012352Z 00000KT 10SM FEW120 SCT250 M01/M10 A3031 RMK AO2 SLP265 T10061100 10044 21017 51008

KIAD Airport Info (Airnav.com)

KIAD Flight Activity (Flightaware)

Listeners: 1 out of 1550 total

Washington Center (Sector 04 Pinion High): 133.975
Washington Center (Sector 12 Brooke High): 126.875
Washington Center (ZDC Guard Dog Low (Shared w/Potomac TRACON): 135.525

KLAF App/Dep (Archives)
Lafayette, Indiana, United States

Feed Status: UP
Listen in your browser - HTML5 player(in browser, HTML5)
Click here to listen with your own player(launches your MP3 player)

KLAF 012354Z 21004KT 10SM CLR M03/M13 A3030 RMK AO2 SLP273 T10331133 11011 21044 58006

KLAF Airport Info (Airnav.com)

KLAF Flight Activity (Flightaware)

Listeners: 0 out of 1550 total

Grissom Approach: 123.850

KLAF ATIS (Archives)
Lafayette, Indiana, United States

Feed Status: UP
Listen in your browser - HTML5 player(in browser, HTML5)
Click here to listen with your own player(launches your MP3 player)

KLAF 012354Z 21004KT 10SM CLR M03/M13 A3030 RMK AO2 SLP273 T10331133 11011 21044 58006

KLAF Airport Info (Airnav.com)

KLAF Flight Activity (Flightaware)

Listeners: 0 out of 1550 total

Lafayette ATIS: 127.750

KLAF Ground (Archives)
Lafayette, Indiana, United States

Feed Status: UP
Listen in your browser - HTML5 player(in browser, HTML5)
Click here to listen with your own player(launches your MP3 player)

KLAF 012354Z 21004KT 10SM CLR M03/M13 A3030 RMK AO2 SLP273 T10331133 11011 21044 58006

KLAF Airport Info (Airnav.com)

KLAF Flight Activity (Flightaware)

Listeners: 1 out of 1550 total

Lafayette Ground: 121.900

KLAF Tower (Archives)
Lafayette, Indiana, United States

Feed Status: UP
Listen in your browser - HTML5 player(in browser, HTML5)
Click here to listen with your own player(launches your MP3 player)

KLAF 012354Z 21004KT 10SM CLR M03/M13 A3030 RMK AO2 SLP273 T10331133 11011 21044 58006

KLAF Airport Info (Airnav.com)

KLAF Flight Activity (Flightaware)

Listeners: 0 out of 1550 total

Lafayette Tower: 119.600

KLAL Arrival ATIS
Lakeland, Florida, United States

Feed Status: DOWN
Offline since: 2022-10-09 11:43:22 UTC

KLAL 020015Z AUTO 25003KT 10SM SCT050 BKN055 24/17 A3019 RMK AO2 T02350170

KLAL Airport Info (Airnav.com)

Lakeland Arrival ATIS (Sun 'n Fun): 128.575

KLAL ATIS (Departure during Sun 'n Fun) (Archives)
Lakeland, Florida, United States

Feed Status: UP
Listen in your browser - HTML5 player(in browser, HTML5)
Click here to listen with your own player(launches your MP3 player)

KLAL 020015Z AUTO 25003KT 10SM SCT050 BKN055 24/17 A3019 RMK AO2 T02350170

KLAL Airport Info (Airnav.com)

KLAL Flight Activity (Flightaware)

Listeners: 0 out of 1550 total

Lakeland ATIS: 118.025

KLAL Departure Mon (Rwy 10L/28R)
Lakeland, Florida, United States

Feed Status: DOWN
Offline since: 2022-10-09 11:43:22 UTC

KLAL 020015Z AUTO 25003KT 10SM SCT050 BKN055 24/17 A3019 RMK AO2 T02350170

KLAL Airport Info (Airnav.com)

Lakeland Departure Monitor (Rwy 10L/28R): 133.125

KLAL Departure Mon (Rwy 10R/28L)
Lakeland, Florida, United States

Feed Status: DOWN
Offline since: 2022-10-09 11:43:22 UTC

KLAL 020015Z AUTO 25003KT 10SM SCT050 BKN055 24/17 A3019 RMK AO2 T02350170

KLAL Airport Info (Airnav.com)

Lakeland Departure Monitor (Rwy 10R/28L): 127.850

KLAL Ground/Advisory (Archives)
Lakeland, Florida, United States

Feed Status: UP
Listen in your browser - HTML5 player(in browser, HTML5)
Click here to listen with your own player(launches your MP3 player)

KLAL 020015Z AUTO 25003KT 10SM SCT050 BKN055 24/17 A3019 RMK AO2 T02350170

KLAL Airport Info (Airnav.com)

KLAL Flight Activity (Flightaware)

Listeners: 0 out of 1550 total

Lakeland Ground: 121.400
Lakeland Helicopter: 123.025
Lakeland IFR Ground Control: 127.100
Paradise City Advisory: 123.625
Sun 'n Fun Ground Advisory: 126.075
Warbird Parking Advisory: 125.025

KLAL Lake Parker VFR Arrival
Lakeland, Florida, United States

Feed Status: DOWN
Offline since: 2022-04-12 21:46:05 UTC

KLAL 020015Z AUTO 25003KT 10SM SCT050 BKN055 24/17 A3019 RMK AO2 T02350170

KLAL Airport Info (Airnav.com)

Lake Parker Arrival (Sun 'n Fun): 124.500

KLAL Tower (Archives)
Lakeland, Florida, United States

Feed Status: UP
Listen in your browser - HTML5 player(in browser, HTML5)
Click here to listen with your own player(launches your MP3 player)

KLAL 020015Z AUTO 25003KT 10SM SCT050 BKN055 24/17 A3019 RMK AO2 T02350170

KLAL Airport Info (Airnav.com)

KLAL Flight Activity (Flightaware)

Listeners: 3 out of 1550 total

Lakeland Tower: 124.500

KLAL Tower (North) (Archives)
Lakeland, Florida, United States

Feed Status: UP
Listen in your browser - HTML5 player(in browser, HTML5)
Click here to listen with your own player(launches your MP3 player)

KLAL 020015Z AUTO 25003KT 10SM SCT050 BKN055 24/17 A3019 RMK AO2 T02350170

KLAL Airport Info (Airnav.com)

KLAL Flight Activity (Flightaware)

Listeners: 0 out of 1550 total

Lakeland Tower (North): 135.225

KLAL Tower (South) (Archives)
Lakeland, Florida, United States

Feed Status: UP
Listen in your browser - HTML5 player(in browser, HTML5)
Click here to listen with your own player(launches your MP3 player)

KLAL 020015Z AUTO 25003KT 10SM SCT050 BKN055 24/17 A3019 RMK AO2 T02350170

KLAL Airport Info (Airnav.com)

KLAL Flight Activity (Flightaware)

Listeners: 0 out of 1550 total

Lakeland Tower (South): 120.350

Sun 'n Fun Air Show/Dep/Misc (Archives)
Lakeland, Florida, United States

Feed Status: UP
Listen in your browser - HTML5 player(in browser, HTML5)
Click here to listen with your own player(launches your MP3 player)

KLAL 020015Z AUTO 25003KT 10SM SCT050 BKN055 24/17 A3019 RMK AO2 T02350170

KLAL Airport Info (Airnav.com)

KLAL Flight Activity (Flightaware)

Listeners: 0 out of 1550 total

Air Boss: Priv

Tampa App/Dep (LAL Area) (Archives)
Lakeland, Florida, United States

Feed Status: UP
Listen in your browser - HTML5 player(in browser, HTML5)
Click here to listen with your own player(launches your MP3 player)

KLAL 020015Z AUTO 25003KT 10SM SCT050 BKN055 24/17 A3019 RMK AO2 T02350170

KLAL Airport Info (Airnav.com)

KLAL Flight Activity (Flightaware)

Listeners: 0 out of 1550 total

Tampa Approach (Lakeland Area): 120.650

KLBE Ground/Tower (Archives)
Latrobe, Pennsylvania, United States

Feed Status: UP
Listen in your browser - HTML5 player(in browser, HTML5)
Click here to listen with your own player(launches your MP3 player)

KLBE 012347Z 00000KT 20SM CLR M06/M13 A3030

KLBE Airport Info (Airnav.com)

KLBE Flight Activity (Flightaware)

Listeners: 0 out of 1550 total

Latrobe Ground: 121.800
Latrobe Tower: 125.000

KLBX CTAF (Archives)
Angleton/Lake Jackson, Texas, United States

Feed Status: UP
Listen in your browser - HTML5 player(in browser, HTML5)
Click here to listen with your own player(launches your MP3 player)

KLBX 020015Z AUTO 35005KT 3SM BR OVC004 05/04 A3021 RMK AO2 T00500044

KLBX Airport Info (Airnav.com)

KLBX Flight Activity (Flightaware)

Listeners: 0 out of 1550 total

KLBX CTAF: 123.000

KLCI AWOS (Archives)
Laconia, New Hampshire, United States

Feed Status: UP
Listen in your browser - HTML5 player(in browser, HTML5)
Click here to listen with your own player(launches your MP3 player)

KLCI 012356Z AUTO 22003KT 10SM CLR M09/M16 A3019 RMK AO2 SLP235 T10891161 11017 21089 51011 FZRANO

KLCI Airport Info (Airnav.com)

KLCI Flight Activity (Flightaware)

Listeners: 0 out of 1550 total

Laconia AWOS: 133.525

KLCI Clearance Delivery (Archives)
Laconia, New Hampshire, United States

Feed Status: UP
Listen in your browser - HTML5 player(in browser, HTML5)
Click here to listen with your own player(launches your MP3 player)

KLCI 012356Z AUTO 22003KT 10SM CLR M09/M16 A3019 RMK AO2 SLP235 T10891161 11017 21089 51011 FZRANO

KLCI Airport Info (Airnav.com)

KLCI Flight Activity (Flightaware)

Listeners: 0 out of 1550 total

Laconia Clearance Delivery (Boston Approach): 119.850

KLCI Del/CTAF (Archives)
Laconia, New Hampshire, United States

Feed Status: UP
Listen in your browser - HTML5 player(in browser, HTML5)
Click here to listen with your own player(launches your MP3 player)

KLCI 012356Z AUTO 22003KT 10SM CLR M09/M16 A3019 RMK AO2 SLP235 T10891161 11017 21089 51011 FZRANO

KLCI Airport Info (Airnav.com)

KLCI Flight Activity (Flightaware)

Listeners: 0 out of 1550 total

Laconia CTAF: 123.000

KLCK ATIS/AWOS (Archives)
Columbus, Ohio, United States

Feed Status: UP
Listen in your browser - HTML5 player(in browser, HTML5)
Click here to listen with your own player(launches your MP3 player)

KLCK 012355Z AUTO 00000KT 10SM CLR M03/M12 A3032 RMK AO2 T10351118 11015 21041

KLCK Airport Info (Airnav.com)

KLCK Flight Activity (Flightaware)

Listeners: 1 out of 1550 total

Rick ATIS/AWOS: 132.750

KLCK Del/Gnd (Archives)
Columbus, Ohio, United States

Feed Status: UP
Listen in your browser - HTML5 player(in browser, HTML5)
Click here to listen with your own player(launches your MP3 player)

KLCK 012355Z AUTO 00000KT 10SM CLR M03/M12 A3032 RMK AO2 T10351118 11015 21041

KLCK Airport Info (Airnav.com)

KLCK Flight Activity (Flightaware)

Listeners: 1 out of 1550 total

Rick Clearance Delivery/Ground: 125.275

KLCK Del/Gnd (UHF) (Archives)
Columbus, Ohio, United States

Feed Status: UP
Listen in your browser - HTML5 player(in browser, HTML5)
Click here to listen with your own player(launches your MP3 player)

KLCK 012355Z AUTO 00000KT 10SM CLR M03/M12 A3032 RMK AO2 T10351118 11015 21041

KLCK Airport Info (Airnav.com)

KLCK Flight Activity (Flightaware)

Listeners: 0 out of 1550 total

Rick Clearance Delivery/Ground (UHF/Military): 275.800

KLCK Emergency/Guard (Archives)
Columbus, Ohio, United States

Feed Status: UP
Listen in your browser - HTML5 player(in browser, HTML5)
Click here to listen with your own player(launches your MP3 player)

KLCK 012355Z AUTO 00000KT 10SM CLR M03/M12 A3032 RMK AO2 T10351118 11015 21041

KLCK Airport Info (Airnav.com)

KLCK Flight Activity (Flightaware)

Listeners: 1 out of 1550 total

Emergency/Guard: 121.500

KLCK Tower (Archives)
Columbus, Ohio, United States

Feed Status: UP
Listen in your browser - HTML5 player(in browser, HTML5)
Click here to listen with your own player(launches your MP3 player)

KLCK 012355Z AUTO 00000KT 10SM CLR M03/M12 A3032 RMK AO2 T10351118 11015 21041

KLCK Airport Info (Airnav.com)

KLCK Flight Activity (Flightaware)

Listeners: 1 out of 1550 total

Rick Tower: 120.050

KLCK Tower (UHF) (Archives)
Columbus, Ohio, United States

Feed Status: UP
Listen in your browser - HTML5 player(in browser, HTML5)
Click here to listen with your own player(launches your MP3 player)

KLCK 012355Z AUTO 00000KT 10SM CLR M03/M12 A3032 RMK AO2 T10351118 11015 21041

KLCK Airport Info (Airnav.com)

KLCK Flight Activity (Flightaware)

Listeners: 0 out of 1550 total

Rick Tower (UHF/Military): 348.400

KLCK UNICOM (Archives)
Columbus, Ohio, United States

Feed Status: UP
Listen in your browser - HTML5 player(in browser, HTML5)
Click here to listen with your own player(launches your MP3 player)

KLCK 012355Z AUTO 00000KT 10SM CLR M03/M12 A3032 RMK AO2 T10351118 11015 21041

KLCK Airport Info (Airnav.com)

KLCK Flight Activity (Flightaware)

Listeners: 0 out of 1550 total

Rick UNICOM: 122.950

KLEE App/Dep (Archives)
Leesburg, Florida, United States

Feed Status: UP
Listen in your browser - HTML5 player(in browser, HTML5)
Click here to listen with your own player(launches your MP3 player)

KLEE 012353Z AUTO 31004KT 10SM OVC060 24/17 A3019 RMK AO2 SLP221 T02390167 10283 20239 53012

KLEE Airport Info (Airnav.com)

KLEE Flight Activity (Flightaware)

Listeners: 0 out of 1550 total

Orlando Approach: 135.300
Orlando Approach: 120.225

KLEE ASOS (Archives)
Leesburg, Florida, United States

Feed Status: UP
Listen in your browser - HTML5 player(in browser, HTML5)
Click here to listen with your own player(launches your MP3 player)

KLEE 012353Z AUTO 31004KT 10SM OVC060 24/17 A3019 RMK AO2 SLP221 T02390167 10283 20239 53012

KLEE Airport Info (Airnav.com)

KLEE Flight Activity (Flightaware)

Listeners: 0 out of 1550 total

Leesburg ASOS: 134.325

KLEE Ground (Archives)
Leesburg, Florida, United States

Feed Status: UP
Listen in your browser - HTML5 player(in browser, HTML5)
Click here to listen with your own player(launches your MP3 player)

KLEE 012353Z AUTO 31004KT 10SM OVC060 24/17 A3019 RMK AO2 SLP221 T02390167 10283 20239 53012

KLEE Airport Info (Airnav.com)

KLEE Flight Activity (Flightaware)

Listeners: 0 out of 1550 total

Leesburg Ground: 121.725

KLEE Tower (Archives)
Leesburg, Florida, United States

Feed Status: UP
Listen in your browser - HTML5 player(in browser, HTML5)
Click here to listen with your own player(launches your MP3 player)

KLEE 012353Z AUTO 31004KT 10SM OVC060 24/17 A3019 RMK AO2 SLP221 T02390167 10283 20239 53012

KLEE Airport Info (Airnav.com)

KLEE Flight Activity (Flightaware)

Listeners: 0 out of 1550 total

Leesburg Tower: 119.350

KLFI Del/Gnd/Twr (Archives)
Hampton, Virginia, United States

Feed Status: UP
Listen in your browser - HTML5 player(in browser, HTML5)
Click here to listen with your own player(launches your MP3 player)

KLFI 012355Z 00000KT 10SM FEW220 02/M04 A3032 RMK AO2A SLP274 T00231036 10059 20018 52016 $

KLFI Airport Info (Airnav.com)

KLFI Flight Activity (Flightaware)

Listeners: 0 out of 1550 total

Langley Clearance Delivery: 257.625
Langley Ground: 275.800
Langley Tower: 253.500
Langley Tower: 236.600

KLFK Emergency/Guard (Archives)
Lufkin, Texas, United States

Feed Status: UP
Listen in your browser - HTML5 player(in browser, HTML5)
Click here to listen with your own player(launches your MP3 player)

KLFK 020009Z AUTO 36004KT 4SM -RA BR OVC006 03/03 A3025 RMK AO2 CIG 004V012 P0001 T00330028

KLFK Airport Info (Airnav.com)

KLFK Flight Activity (Flightaware)

Listeners: 0 out of 1550 total

Emergency/Guard: 121.500

KLFK/KOCH CTAF (Archives)
Lufkin, Texas, United States

Feed Status: UP
Listen in your browser - HTML5 player(in browser, HTML5)
Click here to listen with your own player(launches your MP3 player)

KLFK 020009Z AUTO 36004KT 4SM -RA BR OVC006 03/03 A3025 RMK AO2 CIG 004V012 P0001 T00330028

KLFK Airport Info (Airnav.com)

KLFK Flight Activity (Flightaware)

Listeners: 0 out of 1550 total

Lufkin CTAF: 123.000

KLGB Clearance Delivery (Archives)
Long Beach, California, United States

Feed Status: UP
Listen in your browser - HTML5 player(in browser, HTML5)
Click here to listen with your own player(launches your MP3 player)

KLGB 012353Z 19005KT 10SM CLR 19/M07 A3013 RMK AO2 SLP203 T01941067 10211 20156 53004

KLGB Airport Info (Airnav.com)

KLGB Flight Activity (Flightaware)

Listeners: 0 out of 1550 total

Long Beach Clearance Delivery: 118.150

KLGB Ground (Archives)
Long Beach, California, United States

Feed Status: UP
Listen in your browser - HTML5 player(in browser, HTML5)
Click here to listen with your own player(launches your MP3 player)

KLGB 012353Z 19005KT 10SM CLR 19/M07 A3013 RMK AO2 SLP203 T01941067 10211 20156 53004

KLGB Airport Info (Airnav.com)

KLGB Flight Activity (Flightaware)

Listeners: 0 out of 1550 total

Long Beach Ground: 133.000

KLGB Tower (Archives)
Long Beach, California, United States

Feed Status: UP
Listen in your browser - HTML5 player(in browser, HTML5)
Click here to listen with your own player(launches your MP3 player)

KLGB 012353Z 19005KT 10SM CLR 19/M07 A3013 RMK AO2 SLP203 T01941067 10211 20156 53004

KLGB Airport Info (Airnav.com)

KLGB Flight Activity (Flightaware)

Listeners: 5 out of 1550 total

Long Beach Tower: 119.400

KCTJ/KLGC CTAF (Archives)
LaGrange, Georgia, United States

Feed Status: UP
Listen in your browser - HTML5 player(in browser, HTML5)
Click here to listen with your own player(launches your MP3 player)

KCCO 020015Z AUTO 00000KT 10SM OVC014 14/11 A3021 RMK AO2 T01360106

KCCO Airport Info (Airnav.com)

KCCO Flight Activity (Flightaware)

Listeners: 0 out of 1550 total

KCTJ/KLGC CTAF: 122.975

KLGC CTAF (Air Race Classic)
LaGrange, Georgia, United States

Feed Status: DOWN
Offline since: 2020-04-29 17:54:05 UTC

LaGrange CTAF: 122.975

KLGD CTAF (Archives)
La Grande, Oregon, United States

Feed Status: UP
Listen in your browser - HTML5 player(in browser, HTML5)
Click here to listen with your own player(launches your MP3 player)

KLGD 012356Z AUTO 18025G30KT 10SM CLR M01/M11 A3023 RMK AO2 PK WND 19032/2320 SLP268 T10111106 10000 21044 56002 FZRANO

KLGD Airport Info (Airnav.com)

KLGD Flight Activity (Flightaware)

Listeners: 0 out of 1550 total

La Grande CTAF: 122.800

KLGD Emergency/Guard (Archives)
La Grande, Oregon, United States

Feed Status: UP
Listen in your browser - HTML5 player(in browser, HTML5)
Click here to listen with your own player(launches your MP3 player)

KLGD 012356Z AUTO 18025G30KT 10SM CLR M01/M11 A3023 RMK AO2 PK WND 19032/2320 SLP268 T10111106 10000 21044 56002 FZRANO

KLGD Airport Info (Airnav.com)

KLGD Flight Activity (Flightaware)

Listeners: 0 out of 1550 total

Emergency/Guard: 121.500

KLHZ CTAF (Archives)
Louisburg, North Carolina, United States

Feed Status: UP
Listen in your browser - HTML5 player(in browser, HTML5)
Click here to listen with your own player(launches your MP3 player)

KLHZ 020015Z AUTO 05004KT 10SM OVC014 03/01 A3031 RMK AO2

KLHZ Airport Info (Airnav.com)

KLHZ Flight Activity (Flightaware)

Listeners: 0 out of 1550 total

Louisburg CTAF/UNICOM: 123.000
Louisburg GCO: 135.075
Raleigh Approach (East): 125.300

KFTG/KEIK/KBDU/KLMO/Misc (Archives)
Longmont, Colorado, United States

Feed Status: UP
Listen in your browser - HTML5 player(in browser, HTML5)
Click here to listen with your own player(launches your MP3 player)

KDEN 012353Z 17010KT 10SM FEW100 FEW150 M02/M09 A3007 RMK AO2 SLP218 T10221094 10050 21022 51010

KDEN Airport Info (Airnav.com)

KDEN Flight Activity (Flightaware)

Listeners: 0 out of 1550 total

Air-to-Air Fixed Wing: 122.750
Air-to-Air Informal: 123.450
Boulder CTAF: 122.725
Erie CTAF: 123.000
Front Range Tower: 120.200
KBKF Tower: 121.000
Longmont CTAF: 122.975
MULTICOM: 122.900
UNICOM: 122.950

KLMO CTAF (Archives)
Longmont, Colorado, United States

Feed Status: UP
Listen in your browser - HTML5 player(in browser, HTML5)
Click here to listen with your own player(launches your MP3 player)

KLMO 020015Z AUTO 00000KT 10SM CLR 00/M09 A3011 RMK AO2 T00011095

KLMO Airport Info (Airnav.com)

KLMO Flight Activity (Flightaware)

Listeners: 0 out of 1550 total

Fort Collins CTAF: 122.700
Longmont CTAF: 122.975

KLNA CTAF (Archives)
West Palm Beach, Florida, United States

Feed Status: UP
Listen in your browser - HTML5 player(in browser, HTML5)
Click here to listen with your own player(launches your MP3 player)

KPBI 012353Z 13005KT 10SM FEW035 24/19 A3018 RMK AO2 SLP220 T02440194 10272 20244 53009

KPBI Airport Info (Airnav.com)

KPBI Flight Activity (Flightaware)

Listeners: 0 out of 1550 total

Lantana CTAF: 122.700

KLNS Ground/Tower (Archives)
Lancaster, Pennsylvania, United States

Feed Status: UP
Listen in your browser - HTML5 player(in browser, HTML5)
Click here to listen with your own player(launches your MP3 player)

KLNS 012353Z 28005KT 10SM CLR M02/M12 A3029 RMK AO2 SLP261 T10171122 10022 21017 53008

KLNS Airport Info (Airnav.com)

KLNS Flight Activity (Flightaware)

Listeners: 1 out of 1550 total

Lancaster Ground: 121.800
Lancaster Tower: 120.900

KLNS Tower (Archives)
Lancaster, Pennsylvania, United States

Feed Status: UP
Listen in your browser - HTML5 player(in browser, HTML5)
Click here to listen with your own player(launches your MP3 player)

KLNS 012353Z 28005KT 10SM CLR M02/M12 A3029 RMK AO2 SLP261 T10171122 10022 21017 53008

KLNS Airport Info (Airnav.com)

KLNS Flight Activity (Flightaware)

Listeners: 0 out of 1550 total

Lancaster Tower: 120.900

KLOU ATIS (Archives)
Louisville, Kentucky, United States

Feed Status: UP
Listen in your browser - HTML5 player(in browser, HTML5)
Click here to listen with your own player(launches your MP3 player)

KLOU 012353Z 00000KT 10SM CLR M01/M08 A3034 RMK AO2 SLP279 T10061083 10011 21022 56001

KLOU Airport Info (Airnav.com)

KLOU Flight Activity (Flightaware)

Listeners: 0 out of 1550 total

Bowman ATIS: 124.150

KLOU Del/Gnd (Archives)
Louisville, Kentucky, United States

Feed Status: UP
Listen in your browser - HTML5 player(in browser, HTML5)
Click here to listen with your own player(launches your MP3 player)

KLOU 012353Z 00000KT 10SM CLR M01/M08 A3034 RMK AO2 SLP279 T10061083 10011 21022 56001

KLOU Airport Info (Airnav.com)

KLOU Flight Activity (Flightaware)

Listeners: 0 out of 1550 total

Bowman Clearance Delivery: 118.900
Bowman Ground: 121.800

KLOU Del/Gnd/Twr (Archives)
Louisville, Kentucky, United States

Feed Status: UP
Listen in your browser - HTML5 player(in browser, HTML5)
Click here to listen with your own player(launches your MP3 player)

KLOU 012353Z 00000KT 10SM CLR M01/M08 A3034 RMK AO2 SLP279 T10061083 10011 21022 56001

KLOU Airport Info (Airnav.com)

KLOU Flight Activity (Flightaware)

Listeners: 0 out of 1550 total

Bowman Clearance Delivery: 118.900
Bowman Ground: 121.800
Bowman Tower: 119.500

KLOU Tower (Archives)
Louisville, Kentucky, United States

Feed Status: UP
Listen in your browser - HTML5 player(in browser, HTML5)
Click here to listen with your own player(launches your MP3 player)

KLOU 012353Z 00000KT 10SM CLR M01/M08 A3034 RMK AO2 SLP279 T10061083 10011 21022 56001

KLOU Airport Info (Airnav.com)

KLOU Flight Activity (Flightaware)

Listeners: 0 out of 1550 total

Bowman Tower: 119.500

KLRD Ground/Tower (Archives)
Laredo, Texas, United States

Feed Status: UP
Listen in your browser - HTML5 player(in browser, HTML5)
Click here to listen with your own player(launches your MP3 player)

KLRD 020011Z 02007KT 9SM SCT007 BKN013 OVC024 04/03 A3023 RMK AO2

KLRD Airport Info (Airnav.com)

KLRD Flight Activity (Flightaware)

Listeners: 0 out of 1550 total

Laredo Ground: 121.800
Laredo Tower: 120.100
Laredo UNICOM: 122.950

KLUF App/Dep (Archives)
Glendale, Arizona, United States

Feed Status: UP
Listen in your browser - HTML5 player(in browser, HTML5)
Click here to listen with your own player(launches your MP3 player)

KPHX 012351Z 26011KT 10SM FEW090 19/01 A3003 RMK AO2 SLP164 T01890006 10200 20133 53002

KPHX Airport Info (Airnav.com)

KPHX Flight Activity (Flightaware)

Listeners: 0 out of 1550 total

Luke Approach/Departure: 118.150
Luke Approach/Departure: 125.450
Luke Approach/Departure: 263.125
Luke Approach/Departure: 363.125
Luke Arrival: 120.500

KLUF Del/Gnd/Twr/Misc (Archives)
Glendale, Arizona, United States

Feed Status: UP
Listen in your browser - HTML5 player(in browser, HTML5)
Click here to listen with your own player(launches your MP3 player)

KPHX 012351Z 26011KT 10SM FEW090 19/01 A3003 RMK AO2 SLP164 T01890006 10200 20133 53002

KPHX Airport Info (Airnav.com)

KPHX Flight Activity (Flightaware)

Listeners: 0 out of 1550 total

Command Post (Raymond-18) : 349.400
Emergency/Guard: 243.000
In-Flight Emergencies: 291.100
Luke Clearance Delivery: 126.250
Luke Clearance Delivery: 273.475
Luke Ground: 335.800
Luke Ground: 133.175
Luke Tower: 119.100
Luke Tower: 379.900
PMSV - Metro/Weather: 267.400
PTD: 372.200
SOF: 369.000
SOF: 149.400

KLUK Twr/App/Dep
Cincinnati, Ohio, United States

Feed Status: DOWN
Offline since: 2023-01-31 19:53:22 UTC

KLUK 012353Z 14003KT 10SM CLR M02/M10 A3035 RMK AO2 SLP283 T10171100 10006 21022 58002

KLUK Airport Info (Airnav.com)

Cincinnati Approach: 121.000
Cincinnati Departure: 128.700
Lunken Tower: 118.700

KLVJ CTAF (Archives)
Houston, Texas, United States

Feed Status: UP
Listen in your browser - HTML5 player(in browser, HTML5)
Click here to listen with your own player(launches your MP3 player)

KLVJ 020011Z AUTO 34009KT 3SM BR OVC004 06/04 A3023 RMK AO2 T00560044

KLVJ Airport Info (Airnav.com)

KLVJ Flight Activity (Flightaware)

Listeners: 0 out of 1550 total

Pearland CTAF: 122.725

KLWM Ground/Tower (Archives)
Lawrence, Massachusetts, United States

Feed Status: UP
Listen in your browser - HTML5 player(in browser, HTML5)
Click here to listen with your own player(launches your MP3 player)

KLWM 012354Z 00000KT 10SM CLR M05/M14 A3024 RMK AO2 SLP244 T10501139 11011 21050 53015

KLWM Airport Info (Airnav.com)

KLWM Flight Activity (Flightaware)

Listeners: 0 out of 1550 total

Eagle East Jet Service: 122.850
Emergency/Guard: 121.500
Four Star Aviation Jet Center: 123.300
Lawrence Clearance (after hours, Boston Approach): 126.150
Lawrence Ground: 124.300
Lawrence Tower: 119.250
Northeast Executive Jet: 130.600

KLWS Ground/Tower (Archives)
Lewiston, Idaho, United States

Feed Status: UP
Listen in your browser - HTML5 player(in browser, HTML5)
Click here to listen with your own player(launches your MP3 player)

KLWS 012356Z 15010KT 10SM CLR 04/M11 A3019 RMK AO2 SLP234 T00441106 10050 20028 53002

KLWS Airport Info (Airnav.com)

KLWS Flight Activity (Flightaware)

Listeners: 0 out of 1550 total

Lewiston Ground: 121.900
Lewiston Tower: 119.400

KLXT CTAF (Air Race Classic)
Lee's Summit, Missouri, United States

Feed Status: DOWN
Offline since: 2019-06-27 20:24:02 UTC

Lee's Summit CTAF: 122.800

KLYH Ground (Archives)
Lynchburg, Virginia, United States

Feed Status: UP
Listen in your browser - HTML5 player(in browser, HTML5)
Click here to listen with your own player(launches your MP3 player)

KLYH 020021Z 14005KT 10SM BKN010 OVC014 03/01 A3027 RMK AO2 CIG 007V012 T00280011

KLYH Airport Info (Airnav.com)

KLYH Flight Activity (Flightaware)

Listeners: 0 out of 1550 total

Lynchburg Ground: 121.900

KLYH Roanoke Approach (Archives)
Lynchburg, Virginia, United States

Feed Status: UP
Listen in your browser - HTML5 player(in browser, HTML5)
Click here to listen with your own player(launches your MP3 player)

KLYH 020021Z 14005KT 10SM BKN010 OVC014 03/01 A3027 RMK AO2 CIG 007V012 T00280011

KLYH Airport Info (Airnav.com)

KLYH Flight Activity (Flightaware)

Listeners: 0 out of 1550 total

Roanoke Approach: 135.000

KLYH Tower (Archives)
Lynchburg, Virginia, United States

Feed Status: UP
Listen in your browser - HTML5 player(in browser, HTML5)
Click here to listen with your own player(launches your MP3 player)

KLYH 020021Z 14005KT 10SM BKN010 OVC014 03/01 A3027 RMK AO2 CIG 007V012 T00280011

KLYH Airport Info (Airnav.com)

KLYH Flight Activity (Flightaware)

Listeners: 0 out of 1550 total

Lynchburg Tower: 127.650

Atlanta App/Dep (SAT-P) (Archives)
Lawrenceville, Georgia, United States

Feed Status: UP
Listen in your browser - HTML5 player(in browser, HTML5)
Click here to listen with your own player(launches your MP3 player)

KLZU 020022Z 28007KT 10SM SCT018 BKN031 11/08 A3021 RMK AO2

KLZU Airport Info (Airnav.com)

KLZU Flight Activity (Flightaware)

Listeners: 0 out of 1550 total

Atlanta Approach/Departure (SAT-P): 126.975

KLZU Tower (Archives)
Lawrenceville, Georgia, United States

Feed Status: UP
Listen in your browser - HTML5 player(in browser, HTML5)
Click here to listen with your own player(launches your MP3 player)

KLZU 020022Z 28007KT 10SM SCT018 BKN031 11/08 A3021 RMK AO2

KLZU Airport Info (Airnav.com)

KLZU Flight Activity (Flightaware)

Listeners: 2 out of 1550 total

Gwinnett Tower: 124.100

KMAN/KEUL CTAF
Nampa, Idaho, United States

Feed Status: DOWN
Offline since: 2022-04-28 00:26:04 UTC

KMAN 020015Z AUTO 00000KT 10SM M01/M09 A3036 RMK A01

KMAN Airport Info (Airnav.com)

Nampa/Caldwell CTAF/UNICOM: 122.700

KMCC CTAF/Del/Gnd/Twr (Archives)
Sacramento, California, United States

Feed Status: UP
Listen in your browser - HTML5 player(in browser, HTML5)
Click here to listen with your own player(launches your MP3 player)

KMCC 020015Z AUTO 32004KT 10SM CLR 12/02 A3020 RMK AO2

KMCC Airport Info (Airnav.com)

KMCC Flight Activity (Flightaware)

Listeners: 0 out of 1550 total

McClellan Clearance Delivery: 119.825
McClellan CTAF: 122.975
McClellan Ground (temp): 133.150
McClellan Tower (temp): 132.300

KMCO App/Dep (North Satellite) (Archives)
Orlando, Florida, United States

Feed Status: UP
Listen in your browser - HTML5 player(in browser, HTML5)
Click here to listen with your own player(launches your MP3 player)

KORL 012353Z 00000KT 10SM SCT060 26/17 A3018 RMK AO2 SLP221 T02610167 10289 20261 53010

KORL Airport Info (Airnav.com)

KORL Flight Activity (Flightaware)

Listeners: 1 out of 1550 total

Orlando Approach (North Satellite): 135.300

KMDD ASOS
Midland, Texas, United States

Feed Status: DOWN
Offline since: 2022-06-10 20:58:05 UTC

KMAF 012353Z 28007KT 5SM UP BR OVC008 M02/M02 A3022 RMK AO2 UPB12E19B45FZRAE12 SLP243 P0001 60006 I1000 I6001 T10171022 11017 21028 53014

KMAF Airport Info (Airnav.com)

Midland Airpark ASOS: 118.125

KMDD Clearance Delivery
Midland, Texas, United States

Feed Status: DOWN
Offline since: 2022-06-10 20:58:05 UTC

KMAF 012353Z 28007KT 5SM UP BR OVC008 M02/M02 A3022 RMK AO2 UPB12E19B45FZRAE12 SLP243 P0001 60006 I1000 I6001 T10171022 11017 21028 53014

KMAF Airport Info (Airnav.com)

Midland Airpark Clearance Delivery: 121.800

KMDD CTAF
Midland, Texas, United States

Feed Status: DOWN
Offline since: 2022-06-10 20:58:05 UTC

KMAF 012353Z 28007KT 5SM UP BR OVC008 M02/M02 A3022 RMK AO2 UPB12E19B45FZRAE12 SLP243 P0001 60006 I1000 I6001 T10171022 11017 21028 53014

KMAF Airport Info (Airnav.com)

Midland Airpark CTAF: 122.700

KMDH Ground/Tower
Carbondale/Murphysboro, Illinois, United States

Feed Status: DOWN
Offline since: 2022-11-18 13:54:39 UTC

KMDH 012352Z 00000KT 10SM CLR M01/M08 A3035 RMK AO2 SLP281 T10111078 10000 21028 50001

KMDH Airport Info (Airnav.com)

Carbondale Ground: 121.800
Carbondale Tower: 126.250
Carbondale Tower: 125.350

KMDQ CTAF
Huntsville, Alabama, United States

Feed Status: DOWN
Offline since: 2022-01-19 20:04:22 UTC

Huntsville Executive CTAF: 123.000

KMDT App/Dep (East) (Archives)
Harrisburg, Pennsylvania, United States

Feed Status: UP
Listen in your browser - HTML5 player(in browser, HTML5)
Click here to listen with your own player(launches your MP3 player)

KMDT 012356Z 26003KT 10SM FEW200 00/M12 A3029 RMK AO2 SLP262 T00001122 10017 21017 53008

KMDT Airport Info (Airnav.com)

KMDT Flight Activity (Flightaware)

Listeners: 0 out of 1550 total

Harrisburg App/Dep (East): 126.450

KMDT App/Dep (East/West) (Archives)
Harrisburg, Pennsylvania, United States

Feed Status: UP
Listen in your browser - HTML5 player(in browser, HTML5)
Click here to listen with your own player(launches your MP3 player)

KMDT 012356Z 26003KT 10SM FEW200 00/M12 A3029 RMK AO2 SLP262 T00001122 10017 21017 53008

KMDT Airport Info (Airnav.com)

KMDT Flight Activity (Flightaware)

Listeners: 1 out of 1550 total

Harrisburg App/Dep (East): 126.450
Harrisburg App/Dep (North): 118.250
Harrisburg App/Dep (West): 124.100

KMDT App/Dep (North) (Archives)
Harrisburg, Pennsylvania, United States

Feed Status: UP
Listen in your browser - HTML5 player(in browser, HTML5)
Click here to listen with your own player(launches your MP3 player)

KMDT 012356Z 26003KT 10SM FEW200 00/M12 A3029 RMK AO2 SLP262 T00001122 10017 21017 53008

KMDT Airport Info (Airnav.com)

KMDT Flight Activity (Flightaware)

Listeners: 0 out of 1550 total

Harrisburg App/Dep (North): 118.250

KMDT App/Dep (West) (Archives)
Harrisburg, Pennsylvania, United States

Feed Status: UP
Listen in your browser - HTML5 player(in browser, HTML5)
Click here to listen with your own player(launches your MP3 player)

KMDT 012356Z 26003KT 10SM FEW200 00/M12 A3029 RMK AO2 SLP262 T00001122 10017 21017 53008

KMDT Airport Info (Airnav.com)

KMDT Flight Activity (Flightaware)

Listeners: 1 out of 1550 total

Harrisburg App/Dep (West): 124.100

KMDT ATIS (Archives)
Harrisburg, Pennsylvania, United States

Feed Status: UP
Listen in your browser - HTML5 player(in browser, HTML5)
Click here to listen with your own player(launches your MP3 player)

KMDT 012356Z 26003KT 10SM FEW200 00/M12 A3029 RMK AO2 SLP262 T00001122 10017 21017 53008

KMDT Airport Info (Airnav.com)

KMDT Flight Activity (Flightaware)

Listeners: 0 out of 1550 total

Harrisburg ATIS: 118.800

KMDT Emergency/Ground (Archives)
Harrisburg, Pennsylvania, United States

Feed Status: UP
Listen in your browser - HTML5 player(in browser, HTML5)
Click here to listen with your own player(launches your MP3 player)

KMDT 012356Z 26003KT 10SM FEW200 00/M12 A3029 RMK AO2 SLP262 T00001122 10017 21017 53008

KMDT Airport Info (Airnav.com)

KMDT Flight Activity (Flightaware)

Listeners: 0 out of 1550 total

Emergency/Guard: 121.500

KMDT Ground (Archives)
Harrisburg, Pennsylvania, United States

Feed Status: UP
Listen in your browser - HTML5 player(in browser, HTML5)
Click here to listen with your own player(launches your MP3 player)

KMDT 012356Z 26003KT 10SM FEW200 00/M12 A3029 RMK AO2 SLP262 T00001122 10017 21017 53008

KMDT Airport Info (Airnav.com)

KMDT Flight Activity (Flightaware)

Listeners: 0 out of 1550 total

Harrisburg Ground: 121.700

KMDT Tower (Archives)
Harrisburg, Pennsylvania, United States

Feed Status: UP
Listen in your browser - HTML5 player(in browser, HTML5)
Click here to listen with your own player(launches your MP3 player)

KMDT 012356Z 26003KT 10SM FEW200 00/M12 A3029 RMK AO2 SLP262 T00001122 10017 21017 53008

KMDT Airport Info (Airnav.com)

KMDT Flight Activity (Flightaware)

Listeners: 0 out of 1550 total

Harrisburg Tower: 124.800

KMEV CTAF/Unicom (Archives)
Minden, Nevada, United States

Feed Status: UP
Listen in your browser - HTML5 player(in browser, HTML5)
Click here to listen with your own player(launches your MP3 player)

KMEV 020015Z AUTO 00000KT 10SM CLR M01/M12 A3025 RMK AO2

KMEV Airport Info (Airnav.com)

KMEV Flight Activity (Flightaware)

Listeners: 0 out of 1550 total

Minden CTAF/UNICOM: 123.050

KMFD ATIS (Archives)
Mansfield, Ohio, United States

Feed Status: UP
Listen in your browser - HTML5 player(in browser, HTML5)
Click here to listen with your own player(launches your MP3 player)

KMFD 012352Z 22005KT 10SM CLR M07/M12 A3028 RMK AO2 SLP277 T10671122 11033 21067 55001

KMFD Airport Info (Airnav.com)

KMFD Flight Activity (Flightaware)

Listeners: 0 out of 1550 total

Mansfield ATIS: 125.300

KMFE App/Dep
Mc Allen, Texas, United States

Feed Status: DOWN
Offline since: 2022-09-16 21:27:23 UTC

KMFE 020001Z 34008KT 9SM BKN009 BKN015 OVC025 05/04 A3022 RMK AO2 T00500039

KMFE Airport Info (Airnav.com)

Valley Approach: 121.000
Valley Departure: 120.700

KMFE Gnd/Twr
Mc Allen, Texas, United States

Feed Status: DOWN
Offline since: 2022-09-16 21:27:23 UTC

KMFE 020001Z 34008KT 9SM BKN009 BKN015 OVC025 05/04 A3022 RMK AO2 T00500039

KMFE Airport Info (Airnav.com)

Mc Allen Ground: 121.800
Mc Allen Tower: 118.500
San Angelo Radio: 122.200

KMFR App/Dep (Archives)
Medford, Oregon, United States

Feed Status: UP
Listen in your browser - HTML5 player(in browser, HTML5)
Click here to listen with your own player(launches your MP3 player)

KMFR 012353Z 00000KT 10SM CLR 11/M07 A3010 RMK AO2 SLP199 T01061067 10117 21011 56017

KMFR Airport Info (Airnav.com)

KMFR Flight Activity (Flightaware)

Listeners: 0 out of 1550 total

Cascade Approach/Departure: 124.300

KMFR Emergency/Guard (Archives)
Medford, Oregon, United States

Feed Status: UP
Listen in your browser - HTML5 player(in browser, HTML5)
Click here to listen with your own player(launches your MP3 player)

KMFR 012353Z 00000KT 10SM CLR 11/M07 A3010 RMK AO2 SLP199 T01061067 10117 21011 56017

KMFR Airport Info (Airnav.com)

KMFR Flight Activity (Flightaware)

Listeners: 0 out of 1550 total

Emergency/Guard: 121.500

KMFR Ground (Archives)
Medford, Oregon, United States

Feed Status: UP
Listen in your browser - HTML5 player(in browser, HTML5)
Click here to listen with your own player(launches your MP3 player)

KMFR 012353Z 00000KT 10SM CLR 11/M07 A3010 RMK AO2 SLP199 T01061067 10117 21011 56017

KMFR Airport Info (Airnav.com)

KMFR Flight Activity (Flightaware)

Listeners: 0 out of 1550 total

Medford Ground: 121.800

KMFR Ground/Tower (Archives)
Medford, Oregon, United States

Feed Status: UP
Listen in your browser - HTML5 player(in browser, HTML5)
Click here to listen with your own player(launches your MP3 player)

KMFR 012353Z 00000KT 10SM CLR 11/M07 A3010 RMK AO2 SLP199 T01061067 10117 21011 56017

KMFR Airport Info (Airnav.com)

KMFR Flight Activity (Flightaware)

Listeners: 0 out of 1550 total

Medford Ground: 121.800
Medford Tower: 119.400

Atlanta Approach (N. Sat) (Archives)
Marietta, Georgia, United States

Feed Status: UP
Listen in your browser - HTML5 player(in browser, HTML5)
Click here to listen with your own player(launches your MP3 player)

KRYY 012350Z 00000KT 10SM OVC014 08/06 A3024 RMK AO2 SLP238 T00830056 10117 20083 51019 $

KRYY Airport Info (Airnav.com)

KRYY Flight Activity (Flightaware)

Listeners: 0 out of 1550 total

Atlanta Approach (North Satellite): 121.000

KMGE Ground (Archives)
Marietta, Georgia, United States

Feed Status: UP
Listen in your browser - HTML5 player(in browser, HTML5)
Click here to listen with your own player(launches your MP3 player)

KRYY 012350Z 00000KT 10SM OVC014 08/06 A3024 RMK AO2 SLP238 T00830056 10117 20083 51019 $

KRYY Airport Info (Airnav.com)

KRYY Flight Activity (Flightaware)

Listeners: 0 out of 1550 total

Dobbins Ground: 125.300

KMGE Tower (Archives)
Marietta, Georgia, United States

Feed Status: UP
Listen in your browser - HTML5 player(in browser, HTML5)
Click here to listen with your own player(launches your MP3 player)

KRYY 012350Z 00000KT 10SM OVC014 08/06 A3024 RMK AO2 SLP238 T00830056 10117 20083 51019 $

KRYY Airport Info (Airnav.com)

KRYY Flight Activity (Flightaware)

Listeners: 0 out of 1550 total

Dobbins Tower: 120.750

KMGW ASOS (Archives)
Morgantown, West Virginia, United States

Feed Status: UP
Listen in your browser - HTML5 player(in browser, HTML5)
Click here to listen with your own player(launches your MP3 player)

KMGW 012353Z 00000KT 10SM CLR M02/M10 A3029 RMK AO2 SLP275 T10221100 11011 21044 55001

KMGW Airport Info (Airnav.com)

KMGW Flight Activity (Flightaware)

Listeners: 0 out of 1550 total

Morgantown ASOS Weather: 120.675

KMGW Ground (Archives)
Morgantown, West Virginia, United States

Feed Status: UP
Listen in your browser - HTML5 player(in browser, HTML5)
Click here to listen with your own player(launches your MP3 player)

KMGW 012353Z 00000KT 10SM CLR M02/M10 A3029 RMK AO2 SLP275 T10221100 11011 21044 55001

KMGW Airport Info (Airnav.com)

KMGW Flight Activity (Flightaware)

Listeners: 0 out of 1550 total

Morgantown Ground: 121.700

KMGW Tower (Archives)
Morgantown, West Virginia, United States

Feed Status: UP
Listen in your browser - HTML5 player(in browser, HTML5)
Click here to listen with your own player(launches your MP3 player)

KMGW 012353Z 00000KT 10SM CLR M02/M10 A3029 RMK AO2 SLP275 T10221100 11011 21044 55001

KMGW Airport Info (Airnav.com)

KMGW Flight Activity (Flightaware)

Listeners: 0 out of 1550 total

Morgantown Tower: 125.100

KMGY Air to Air (Archives)
Dayton, Ohio, United States

Feed Status: UP
Listen in your browser - HTML5 player(in browser, HTML5)
Click here to listen with your own player(launches your MP3 player)

KMGY 012353Z AUTO 00000KT 10SM CLR M02/M13 A3030 RMK AO2 SLP273 T10221133 10000 21028 58001

KMGY Airport Info (Airnav.com)

KMGY Flight Activity (Flightaware)

Listeners: 0 out of 1550 total

Air to Air: 123.450

KMGY App/Dep (Archives)
Dayton, Ohio, United States

Feed Status: UP
Listen in your browser - HTML5 player(in browser, HTML5)
Click here to listen with your own player(launches your MP3 player)

KMGY 012353Z AUTO 00000KT 10SM CLR M02/M13 A3030 RMK AO2 SLP273 T10221133 10000 21028 58001

KMGY Airport Info (Airnav.com)

KMGY Flight Activity (Flightaware)

Listeners: 0 out of 1550 total

Dayton Approach/Departure: 118.850

KMGY AWOS (Archives)
Dayton, Ohio, United States

Feed Status: UP
Listen in your browser - HTML5 player(in browser, HTML5)
Click here to listen with your own player(launches your MP3 player)

KMGY 012353Z AUTO 00000KT 10SM CLR M02/M13 A3030 RMK AO2 SLP273 T10221133 10000 21028 58001

KMGY Airport Info (Airnav.com)

KMGY Flight Activity (Flightaware)

Listeners: 0 out of 1550 total

Dayton-Wright Brothers AWOS: 118.375

KMGY Clearance Delivery (Archives)
Dayton, Ohio, United States

Feed Status: UP
Listen in your browser - HTML5 player(in browser, HTML5)
Click here to listen with your own player(launches your MP3 player)

KMGY 012353Z AUTO 00000KT 10SM CLR M02/M13 A3030 RMK AO2 SLP273 T10221133 10000 21028 58001

KMGY Airport Info (Airnav.com)

KMGY Flight Activity (Flightaware)

Listeners: 0 out of 1550 total

Dayton Clearance Delivery (KMGY): 119.400

KMGY CTAF (Archives)
Dayton, Ohio, United States

Feed Status: UP
Listen in your browser - HTML5 player(in browser, HTML5)
Click here to listen with your own player(launches your MP3 player)

KMGY 012353Z AUTO 00000KT 10SM CLR M02/M13 A3030 RMK AO2 SLP273 T10221133 10000 21028 58001

KMGY Airport Info (Airnav.com)

KMGY Flight Activity (Flightaware)

Listeners: 0 out of 1550 total

Dayton-Wright Brothers CTAF: 122.800

KMGY Emergency/Guard (Archives)
Dayton, Ohio, United States

Feed Status: UP
Listen in your browser - HTML5 player(in browser, HTML5)
Click here to listen with your own player(launches your MP3 player)

KMGY 012353Z AUTO 00000KT 10SM CLR M02/M13 A3030 RMK AO2 SLP273 T10221133 10000 21028 58001

KMGY Airport Info (Airnav.com)

KMGY Flight Activity (Flightaware)

Listeners: 0 out of 1550 total

Emergency/Guard: 121.500

KMHR Ground/Tower (Archives)
Sacramento, California, United States

Feed Status: UP
Listen in your browser - HTML5 player(in browser, HTML5)
Click here to listen with your own player(launches your MP3 player)

KMHR 020015Z AUTO 00000KT 10SM CLR 13/02 A3019 RMK A01

KMHR Airport Info (Airnav.com)

KMHR Flight Activity (Flightaware)

Listeners: 0 out of 1550 total

Mather Ground: 121.850
Mather Tower: 120.650

NORCAL App (EXPO/127.4) (Archives)
Sacramento, California, United States

Feed Status: UP
Listen in your browser - HTML5 player(in browser, HTML5)
Click here to listen with your own player(launches your MP3 player)

KMHR 020015Z AUTO 00000KT 10SM CLR 13/02 A3019 RMK A01

KMHR Airport Info (Airnav.com)

KMHR Flight Activity (Flightaware)

Listeners: 0 out of 1550 total

NORCAL Approach (EXPO Sector): 127.400

KMIC ATIS (Archives)
Minneapolis, Minnesota, United States

Feed Status: UP
Listen in your browser - HTML5 player(in browser, HTML5)
Click here to listen with your own player(launches your MP3 player)

KMIC 012353Z 19003KT 10SM CLR M08/M16 A3007 RMK AO2 SLP203 T10831156 11061 21100 55002

KMIC Airport Info (Airnav.com)

KMIC Flight Activity (Flightaware)

Listeners: 0 out of 1550 total

Crystal ATIS: 124.475

KMIC Emergency/Guard (Archives)
Minneapolis, Minnesota, United States

Feed Status: UP
Listen in your browser - HTML5 player(in browser, HTML5)
Click here to listen with your own player(launches your MP3 player)

KMIC 012353Z 19003KT 10SM CLR M08/M16 A3007 RMK AO2 SLP203 T10831156 11061 21100 55002

KMIC Airport Info (Airnav.com)

KMIC Flight Activity (Flightaware)

Listeners: 0 out of 1550 total

Emergency/Guard: 121.500

KMIC Ground (Archives)
Minneapolis, Minnesota, United States

Feed Status: UP
Listen in your browser - HTML5 player(in browser, HTML5)
Click here to listen with your own player(launches your MP3 player)

KMIC 012353Z 19003KT 10SM CLR M08/M16 A3007 RMK AO2 SLP203 T10831156 11061 21100 55002

KMIC Airport Info (Airnav.com)

KMIC Flight Activity (Flightaware)

Listeners: 0 out of 1550 total

Crystal Ground: 121.600

KMIC Ground/Tower (Archives)
Minneapolis, Minnesota, United States

Feed Status: UP
Listen in your browser - HTML5 player(in browser, HTML5)
Click here to listen with your own player(launches your MP3 player)

KMIC 012353Z 19003KT 10SM CLR M08/M16 A3007 RMK AO2 SLP203 T10831156 11061 21100 55002

KMIC Airport Info (Airnav.com)

KMIC Flight Activity (Flightaware)

Listeners: 0 out of 1550 total

Crystal Ground: 121.600
Crystal Tower/CTAF: 120.700

KMIC Tower/CTAF (Archives)
Minneapolis, Minnesota, United States

Feed Status: UP
Listen in your browser - HTML5 player(in browser, HTML5)
Click here to listen with your own player(launches your MP3 player)

KMIC 012353Z 19003KT 10SM CLR M08/M16 A3007 RMK AO2 SLP203 T10831156 11061 21100 55002

KMIC Airport Info (Airnav.com)

KMIC Flight Activity (Flightaware)

Listeners: 0 out of 1550 total

Crystal Tower/CTAF: 120.700

KBLM/N12/3N6/KMJX (Archives)
Toms River, New Jersey, United States

Feed Status: UP
Listen in your browser - HTML5 player(in browser, HTML5)
Click here to listen with your own player(launches your MP3 player)

KBLM 012356Z AUTO 26006KT 10SM CLR A3028 RMK AO2 SLPNO 6//// 53014 FZRANO $

KBLM Airport Info (Airnav.com)

KBLM Flight Activity (Flightaware)

Listeners: 0 out of 1550 total

3N6 Old Bridge CTAF: 123.075
Emergency/Guard: 121.500
Monmouth Clearance: 120.950
Monmouth Clearance: 126.150
Monmouth CTAF: 123.000
N12 Lakewood CTAF: 122.800
Ocean County KMJX CTAF: 122.700

KMJX CTAF
Toms River, New Jersey, United States

Feed Status: DOWN
Offline since: 2023-02-01 16:22:39 UTC



KMJX Airport Info (Airnav.com)

Toms River CTAF: 122.700

KMKC ATIS (Archives)
Kansas City, Missouri, United States

Feed Status: UP
Listen in your browser - HTML5 player(in browser, HTML5)
Click here to listen with your own player(launches your MP3 player)

KMKC 012354Z 21006KT 10SM CLR 01/M12 A3026 RMK AO2 SLP257 T00061117 10039 20006 55002

KMKC Airport Info (Airnav.com)

KMKC Flight Activity (Flightaware)

Listeners: 0 out of 1550 total

Downtown ATIS: 120.750

KMKC Ground (Archives)
Kansas City, Missouri, United States

Feed Status: UP
Listen in your browser - HTML5 player(in browser, HTML5)
Click here to listen with your own player(launches your MP3 player)

KMKC 012354Z 21006KT 10SM CLR 01/M12 A3026 RMK AO2 SLP257 T00061117 10039 20006 55002

KMKC Airport Info (Airnav.com)

KMKC Flight Activity (Flightaware)

Listeners: 0 out of 1550 total

Downtown Ground: 121.900

KMKC Tower (Archives)
Kansas City, Missouri, United States

Feed Status: UP
Listen in your browser - HTML5 player(in browser, HTML5)
Click here to listen with your own player(launches your MP3 player)

KMKC 012354Z 21006KT 10SM CLR 01/M12 A3026 RMK AO2 SLP257 T00061117 10039 20006 55002

KMKC Airport Info (Airnav.com)

KMKC Flight Activity (Flightaware)

Listeners: 0 out of 1550 total

Downtown Tower: 133.300

KMKG App/Dep (North)
Muskegon, Michigan, United States

Feed Status: DOWN
Offline since: 2022-12-20 19:59:22 UTC

KMKG 012355Z 25013G23KT 10SM SCT040 M01/M09 A3020 RMK AO2 PK WND 23028/2331 SLP235 4/010 T10111094 11011 21022 55001 $

KMKG Airport Info (Airnav.com)

Muskegon Approach/Departure (North): 119.800

KMKG App/Dep (North/South)
Muskegon, Michigan, United States

Feed Status: DOWN
Offline since: 2022-12-20 19:59:22 UTC

KMKG 012355Z 25013G23KT 10SM SCT040 M01/M09 A3020 RMK AO2 PK WND 23028/2331 SLP235 4/010 T10111094 11011 21022 55001 $

KMKG Airport Info (Airnav.com)

Muskegon Approach/Departure (North): 119.800
Muskegon Approach/Departure (South): 133.825

KMKG App/Dep (North/South)
Muskegon, Michigan, United States

Feed Status: DOWN
Offline since: 2022-12-20 19:59:22 UTC

KMKG 012355Z 25013G23KT 10SM SCT040 M01/M09 A3020 RMK AO2 PK WND 23028/2331 SLP235 4/010 T10111094 11011 21022 55001 $

KMKG Airport Info (Airnav.com)

Muskegon Approach/Departure (North): 119.800
Muskegon Approach/Departure (South): 133.825

KMKG App/Dep (South)
Muskegon, Michigan, United States

Feed Status: DOWN
Offline since: 2022-12-20 19:59:22 UTC

KMKG 012355Z 25013G23KT 10SM SCT040 M01/M09 A3020 RMK AO2 PK WND 23028/2331 SLP235 4/010 T10111094 11011 21022 55001 $

KMKG Airport Info (Airnav.com)

Muskegon Approach/Departure (South): 133.825

KMKG ATIS
Muskegon, Michigan, United States

Feed Status: DOWN
Offline since: 2022-12-20 19:59:22 UTC

KMKG 012355Z 25013G23KT 10SM SCT040 M01/M09 A3020 RMK AO2 PK WND 23028/2331 SLP235 4/010 T10111094 11011 21022 55001 $

KMKG Airport Info (Airnav.com)

Muskegon ATIS: 124.300

KMKG Emergency/Guard
Muskegon, Michigan, United States

Feed Status: DOWN
Offline since: 2022-12-20 19:59:22 UTC

KMKG 012355Z 25013G23KT 10SM SCT040 M01/M09 A3020 RMK AO2 PK WND 23028/2331 SLP235 4/010 T10111094 11011 21022 55001 $

KMKG Airport Info (Airnav.com)

Emergency/Guard: 121.500

KMKG Gnd/Twr/App/Dep
Muskegon, Michigan, United States

Feed Status: DOWN
Offline since: 2022-12-20 19:59:22 UTC

KMKG 012355Z 25013G23KT 10SM SCT040 M01/M09 A3020 RMK AO2 PK WND 23028/2331 SLP235 4/010 T10111094 11011 21022 55001 $

KMKG Airport Info (Airnav.com)

Muskegon Approach/Departure (North): 119.800
Muskegon Approach/Departure (South): 133.825
Muskegon Ground: 121.600
Muskegon Tower: 126.250

KMKG Ground
Muskegon, Michigan, United States

Feed Status: DOWN
Offline since: 2022-12-20 19:59:22 UTC

KMKG 012355Z 25013G23KT 10SM SCT040 M01/M09 A3020 RMK AO2 PK WND 23028/2331 SLP235 4/010 T10111094 11011 21022 55001 $

KMKG Airport Info (Airnav.com)

Muskegon Ground: 121.600

KMKG Ground/Tower
Muskegon, Michigan, United States

Feed Status: DOWN
Offline since: 2022-12-20 19:59:22 UTC

KMKG 012355Z 25013G23KT 10SM SCT040 M01/M09 A3020 RMK AO2 PK WND 23028/2331 SLP235 4/010 T10111094 11011 21022 55001 $

KMKG Airport Info (Airnav.com)

Muskegon Ground: 121.600
Muskegon Tower: 126.250

KMKG Tower
Muskegon, Michigan, United States

Feed Status: DOWN
Offline since: 2022-12-20 19:59:22 UTC

KMKG 012355Z 25013G23KT 10SM SCT040 M01/M09 A3020 RMK AO2 PK WND 23028/2331 SLP235 4/010 T10111094 11011 21022 55001 $

KMKG Airport Info (Airnav.com)

Muskegon Tower: 126.250

KMKG UNICOM
Muskegon, Michigan, United States

Feed Status: DOWN
Offline since: 2022-12-20 19:59:22 UTC

KMKG 012355Z 25013G23KT 10SM SCT040 M01/M09 A3020 RMK AO2 PK WND 23028/2331 SLP235 4/010 T10111094 11011 21022 55001 $

KMKG Airport Info (Airnav.com)

Muskegon UNICOM: 122.950

KMKL Tower (Air Race Classic Start)
Jackson, Tennessee, United States

Feed Status: DOWN
Offline since: 2019-06-20 14:39:02 UTC

Jackson Tower: 127.150

KMLB Twr/App (Archives)
Melbourne, Florida, United States

Feed Status: UP
Listen in your browser - HTML5 player(in browser, HTML5)
Click here to listen with your own player(launches your MP3 player)

KMLB 012353Z 12006KT 10SM CLR 23/19 A3018 RMK AO2 SLP219 T02280194 10283 20228 53015

KMLB Airport Info (Airnav.com)

KMLB Flight Activity (Flightaware)

Listeners: 1 out of 1550 total

Melbourne Tower: 118.200
Orlando Approach: 132.650

KMMU ATIS (Archives)
Morristown, New Jersey, United States

Feed Status: UP
Listen in your browser - HTML5 player(in browser, HTML5)
Click here to listen with your own player(launches your MP3 player)

KMMU 012345Z 02003KT 10SM SKC 01/M10 A3027

KMMU Airport Info (Airnav.com)

KMMU Flight Activity (Flightaware)

Listeners: 0 out of 1550 total

Morristown ATIS: 124.250

KMMU Clearance Delivery (Archives)
Morristown, New Jersey, United States

Feed Status: UP
Listen in your browser - HTML5 player(in browser, HTML5)
Click here to listen with your own player(launches your MP3 player)

KMMU 012345Z 02003KT 10SM SKC 01/M10 A3027

KMMU Airport Info (Airnav.com)

KMMU Flight Activity (Flightaware)

Listeners: 0 out of 1550 total

Morristown Clearance Delivery: 128.600

KMMU Ground (Archives)
Morristown, New Jersey, United States

Feed Status: UP
Listen in your browser - HTML5 player(in browser, HTML5)
Click here to listen with your own player(launches your MP3 player)

KMMU 012345Z 02003KT 10SM SKC 01/M10 A3027

KMMU Airport Info (Airnav.com)

KMMU Flight Activity (Flightaware)

Listeners: 0 out of 1550 total

Morristown Ground: 134.200

KMMU Tower #1 (Archives)
Morristown, New Jersey, United States

Feed Status: UP
Listen in your browser - HTML5 player(in browser, HTML5)
Click here to listen with your own player(launches your MP3 player)

KMMU 012345Z 02003KT 10SM SKC 01/M10 A3027

KMMU Airport Info (Airnav.com)

KMMU Flight Activity (Flightaware)

Listeners: 1 out of 1550 total

Morristown Tower: 118.100

KMMU Tower #2 (Archives)
Morristown, New Jersey, United States

Feed Status: UP
Listen in your browser - HTML5 player(in browser, HTML5)
Click here to listen with your own player(launches your MP3 player)

KMMU 012345Z 02003KT 10SM SKC 01/M10 A3027

KMMU Airport Info (Airnav.com)

KMMU Flight Activity (Flightaware)

Listeners: 0 out of 1550 total

Morristown Tower: 118.100

KMMV CTAF (Archives)
Mc Minnville, Oregon, United States

Feed Status: UP
Listen in your browser - HTML5 player(in browser, HTML5)
Click here to listen with your own player(launches your MP3 player)

KMMV 012353Z AUTO 00000KT 5SM HZ CLR 07/M01 A3012 RMK AO2 SLP202 T00721006 10072 20000 56009

KMMV Airport Info (Airnav.com)

KMMV Flight Activity (Flightaware)

Listeners: 0 out of 1550 total

Mc Minnville CTAF: 123.000

KMNZ CTAF (Archives)
Hamilton, Texas, United States

Feed Status: UP
Listen in your browser - HTML5 player(in browser, HTML5)
Click here to listen with your own player(launches your MP3 player)

KMNZ 020015Z AUTO 02007KT 3SM BR M01/M01 A3027 RMK AO2 T10151015

KMNZ Airport Info (Airnav.com)

KMNZ Flight Activity (Flightaware)

Listeners: 0 out of 1550 total

Hamilton CTAF: 122.700

KMOR AWOS
Morristown, Tennessee, United States

Feed Status: DOWN
Offline since: 2021-02-22 17:33:22 UTC

KMOR 020015Z AUTO 00000KT 10SM OVC010 04/04 A3021 RMK A01

KMOR Airport Info (Airnav.com)

Morristown AWOS: 126.725

KMOR Clearance Delivery
Morristown, Tennessee, United States

Feed Status: DOWN
Offline since: 2021-02-22 17:33:22 UTC

KMOR 020015Z AUTO 00000KT 10SM OVC010 04/04 A3021 RMK A01

KMOR Airport Info (Airnav.com)

Morristown Clearance Delivery (RCO): 132.800

KMOR CTAF
Morristown, Tennessee, United States

Feed Status: DOWN
Offline since: 2021-02-22 17:33:22 UTC

KMOR 020015Z AUTO 00000KT 10SM OVC010 04/04 A3021 RMK A01

KMOR Airport Info (Airnav.com)

Morristown CTAF: 122.800

KMQS/KPTW CTAF (Archives)
Coatesville, Pennsylvania, United States

Feed Status: UP
Listen in your browser - HTML5 player(in browser, HTML5)
Click here to listen with your own player(launches your MP3 player)

KOQN 020015Z AUTO 10SM CLR 00/M10 A3029 RMK AO2

KOQN Airport Info (Airnav.com)

KOQN Flight Activity (Flightaware)

Listeners: 0 out of 1550 total

Chester County/Pottstown CTAF: 122.700

KMQY Clearance Delivery (Archives)
Smyrna, Tennessee, United States

Feed Status: UP
Listen in your browser - HTML5 player(in browser, HTML5)
Click here to listen with your own player(launches your MP3 player)

KMQY 012356Z 01005KT 7SM OVC008 00/M01 A3034 RMK AO2 SLP287 6//// T00001006 10000 21006 50005

KMQY Airport Info (Airnav.com)

KMQY Flight Activity (Flightaware)

Listeners: 0 out of 1550 total

Smyrna Clearance Delivery (after Tower closes): 121.700

KMQY Emergency/Guard (Archives)
Smyrna, Tennessee, United States

Feed Status: UP
Listen in your browser - HTML5 player(in browser, HTML5)
Click here to listen with your own player(launches your MP3 player)

KMQY 012356Z 01005KT 7SM OVC008 00/M01 A3034 RMK AO2 SLP287 6//// T00001006 10000 21006 50005

KMQY Airport Info (Airnav.com)

KMQY Flight Activity (Flightaware)

Listeners: 0 out of 1550 total

Emergency/Guard: 121.500

KMQY Ground (Archives)
Smyrna, Tennessee, United States

Feed Status: UP
Listen in your browser - HTML5 player(in browser, HTML5)
Click here to listen with your own player(launches your MP3 player)

KMQY 012356Z 01005KT 7SM OVC008 00/M01 A3034 RMK AO2 SLP287 6//// T00001006 10000 21006 50005

KMQY Airport Info (Airnav.com)

KMQY Flight Activity (Flightaware)

Listeners: 0 out of 1550 total

Smyrna Ground: 121.400

KMQY Ground/Tower (Archives)
Smyrna, Tennessee, United States

Feed Status: UP
Listen in your browser - HTML5 player(in browser, HTML5)
Click here to listen with your own player(launches your MP3 player)

KMQY 012356Z 01005KT 7SM OVC008 00/M01 A3034 RMK AO2 SLP287 6//// T00001006 10000 21006 50005

KMQY Airport Info (Airnav.com)

KMQY Flight Activity (Flightaware)

Listeners: 0 out of 1550 total

Smyrna Ground: 121.400
Smyrna Tower: 118.500

KMQY Tower (Archives)
Smyrna, Tennessee, United States

Feed Status: UP
Listen in your browser - HTML5 player(in browser, HTML5)
Click here to listen with your own player(launches your MP3 player)

KMQY 012356Z 01005KT 7SM OVC008 00/M01 A3034 RMK AO2 SLP287 6//// T00001006 10000 21006 50005

KMQY Airport Info (Airnav.com)

KMQY Flight Activity (Flightaware)

Listeners: 0 out of 1550 total

Smyrna Tower: 118.500

KMRB ATIS (Archives)
Martinsburg, West Virginia, United States

Feed Status: UP
Listen in your browser - HTML5 player(in browser, HTML5)
Click here to listen with your own player(launches your MP3 player)

KMRB 012353Z 00000KT 10SM CLR M01/M12 A3029 RMK AO2 SLP262 T10111117 10028 21017 53009

KMRB Airport Info (Airnav.com)

KMRB Flight Activity (Flightaware)

Listeners: 0 out of 1550 total

Martinsburg ATIS/AWOS: 119.925

KMRB Del/Gnd (Archives)
Martinsburg, West Virginia, United States

Feed Status: UP
Listen in your browser - HTML5 player(in browser, HTML5)
Click here to listen with your own player(launches your MP3 player)

KMRB 012353Z 00000KT 10SM CLR M01/M12 A3029 RMK AO2 SLP262 T10111117 10028 21017 53009

KMRB Airport Info (Airnav.com)

KMRB Flight Activity (Flightaware)

Listeners: 0 out of 1550 total

Martinsburg Clearance Delivery (after hours via Potomac TRACON): 132.075
Martinsburg Ground: 121.800

KMRB Emergency/Guard (Archives)
Martinsburg, West Virginia, United States

Feed Status: UP
Listen in your browser - HTML5 player(in browser, HTML5)
Click here to listen with your own player(launches your MP3 player)

KMRB 012353Z 00000KT 10SM CLR M01/M12 A3029 RMK AO2 SLP262 T10111117 10028 21017 53009

KMRB Airport Info (Airnav.com)

KMRB Flight Activity (Flightaware)

Listeners: 0 out of 1550 total

Emergency/Guard: 121.500

KMRB Tower/CTAF (Archives)
Martinsburg, West Virginia, United States

Feed Status: UP
Listen in your browser - HTML5 player(in browser, HTML5)
Click here to listen with your own player(launches your MP3 player)

KMRB 012353Z 00000KT 10SM CLR M01/M12 A3029 RMK AO2 SLP262 T10111117 10028 21017 53009

KMRB Airport Info (Airnav.com)

KMRB Flight Activity (Flightaware)

Listeners: 0 out of 1550 total

Martinsburg Tower: 124.300

KMRN CTAF (Archives)
Morganton, North Carolina, United States

Feed Status: UP
Listen in your browser - HTML5 player(in browser, HTML5)
Click here to listen with your own player(launches your MP3 player)

KHKY 012353Z AUTO VRB03KT 10SM OVC009 06/04 A3023 RMK AO2 SLP227 T00560039 10072 20056 50012

KHKY Airport Info (Airnav.com)

KHKY Flight Activity (Flightaware)

Listeners: 0 out of 1550 total

Foothills CTAF: 122.700

KMSO Gnd/Twr/App/ZLC/ZSE (Archives)
Missoula, Montana, United States

Feed Status: UP
Listen in your browser - HTML5 player(in browser, HTML5)
Click here to listen with your own player(launches your MP3 player)

KMSO 012353Z 00000KT 10SM FEW090 SCT110 M03/M06 A3014 RMK AO2 SLP249 T10281061 11017 21067 53003

KMSO Airport Info (Airnav.com)

KMSO Flight Activity (Flightaware)

Listeners: 2 out of 1550 total

Emergency/Guard: 121.500
Great Falls Radio Miller Peak RCO: 122.450
Minuteman Jet Center Unicom: 122.950
Missoula Ground/Clearance Delivery: 121.900
Missoula International Airport Operations: 155.820
Missoula International Airport Operations: 154.965
Missoula Tower: 118.400
Northstar Unicom: 123.300
Salt Lake Center: 132.400
Salt Lake City Center: 133.400
Seattle Center (Mullan Pass RCAG): 128.450
Spokane Approach/Departure: 124.900

KMTC Ground/Tower (Archives)
Mount Clemens, Michigan, United States

Feed Status: UP
Listen in your browser - HTML5 player(in browser, HTML5)
Click here to listen with your own player(launches your MP3 player)

KMTC 012356Z 21011KT 10SM FEW120 FEW200 M06/M14 A3024 RMK AO2A SLP257 4/002 T10581136 11037 21058 53002 $

KMTC Airport Info (Airnav.com)

KMTC Flight Activity (Flightaware)

Listeners: 1 out of 1550 total

Selfridge Ground: 128.300
Selfridge Ground: 275.800
Selfridge Tower: 120.150
Selfridge Tower: 225.400

KMTN Gnd/Twr (Archives)
Baltimore, Maryland, United States

Feed Status: UP
Listen in your browser - HTML5 player(in browser, HTML5)
Click here to listen with your own player(launches your MP3 player)

KMTN 012354Z 31004KT 10SM CLR 00/M10 A3033

KMTN Airport Info (Airnav.com)

KMTN Flight Activity (Flightaware)

Listeners: 0 out of 1550 total

Helo Air to Air: 123.025
Martin Ground/Clearance: 121.800
Martin Ground/Clearance: 253.400
Martin Tower: 121.300
Martin Tower: 254.425

KMTN Ground/Misc (Archives)
Baltimore, Maryland, United States

Feed Status: UP
Listen in your browser - HTML5 player(in browser, HTML5)
Click here to listen with your own player(launches your MP3 player)

KMTN 012354Z 31004KT 10SM CLR 00/M10 A3033

KMTN Airport Info (Airnav.com)

KMTN Flight Activity (Flightaware)

Listeners: 1 out of 1550 total

Helo Air to Air: 123.025
Martin Ground/Clearance: 121.800
Martin Ground/Clearance: 253.400

KMTN Tower (Archives)
Baltimore, Maryland, United States

Feed Status: UP
Listen in your browser - HTML5 player(in browser, HTML5)
Click here to listen with your own player(launches your MP3 player)

KMTN 012354Z 31004KT 10SM CLR 00/M10 A3033

KMTN Airport Info (Airnav.com)

KMTN Flight Activity (Flightaware)

Listeners: 0 out of 1550 total

Martin Tower: 121.300
Martin Tower: 254.425

KMTW CTAF (Archives)
Manitowoc, Wisconsin, United States

Feed Status: UP
Listen in your browser - HTML5 player(in browser, HTML5)
Click here to listen with your own player(launches your MP3 player)

KMTW 012356Z AUTO 23010KT 10SM BKN095 M06/M12 A3016 RMK AO2 SLP228 T10611122 11039 21067 53003 FZRANO

KMTW Airport Info (Airnav.com)

KMTW Flight Activity (Flightaware)

Listeners: 0 out of 1550 total

Manitowoc CTAF: 122.800

KMWA Gnd/Twr/CTAF (Archives)
Marion, Illinois, United States

Feed Status: UP
Listen in your browser - HTML5 player(in browser, HTML5)
Click here to listen with your own player(launches your MP3 player)

KMWA 012346Z 00000KT 10SM BKN150 M03/M10 A3036

KMWA Airport Info (Airnav.com)

KMWA Flight Activity (Flightaware)

Listeners: 0 out of 1550 total

Marion Ground: 121.700
Marion Tower/CTAF: 128.400

KMWC Gnd/Twr (Archives)
Milwaukee, Wisconsin, United States

Feed Status: UP
Listen in your browser - HTML5 player(in browser, HTML5)
Click here to listen with your own player(launches your MP3 player)

KMKE 012352Z 24006KT 10SM FEW100 FEW250 M04/M12 A3018 RMK AO2 SLP235 4/006 T10391122 11028 21039 50003

KMKE Airport Info (Airnav.com)

KMKE Flight Activity (Flightaware)

Listeners: 0 out of 1550 total

Timmerman Ground: 121.700
Timmerman Tower: 120.500

KMYF ATIS (Archives)
San Diego, California, United States

Feed Status: UP
Listen in your browser - HTML5 player(in browser, HTML5)
Click here to listen with your own player(launches your MP3 player)

KSAN 012351Z 32009KT 10SM CLR 17/04 A3015 RMK AO2 SLP207 T01670044 10189 20144 53002

KSAN Airport Info (Airnav.com)

KSAN Flight Activity (Flightaware)

Listeners: 0 out of 1550 total

Montgomery ATIS: 126.900

KMYF Ground #2 (Archives)
San Diego, California, United States

Feed Status: UP
Listen in your browser - HTML5 player(in browser, HTML5)
Click here to listen with your own player(launches your MP3 player)

KSAN 012351Z 32009KT 10SM CLR 17/04 A3015 RMK AO2 SLP207 T01670044 10189 20144 53002

KSAN Airport Info (Airnav.com)

KSAN Flight Activity (Flightaware)

Listeners: 1 out of 1550 total

Montgomery Ground: 118.225

KMYF Guard (Archives)
San Diego, California, United States

Feed Status: UP
Listen in your browser - HTML5 player(in browser, HTML5)
Click here to listen with your own player(launches your MP3 player)

KSAN 012351Z 32009KT 10SM CLR 17/04 A3015 RMK AO2 SLP207 T01670044 10189 20144 53002

KSAN Airport Info (Airnav.com)

KSAN Flight Activity (Flightaware)

Listeners: 0 out of 1550 total

Emergency/Guard: 121.500

KMYF Tower (Archives)
San Diego, California, United States

Feed Status: UP
Listen in your browser - HTML5 player(in browser, HTML5)
Click here to listen with your own player(launches your MP3 player)

KMYF 012353Z 29008KT 10SM CLR 16/03 A3013 RMK AO2 SLP203 T01560028 10183 20133 53003

KMYF Airport Info (Airnav.com)